<?xml version="1.0" encoding="UTF-8" standalone="no" ?>
<gpx xmlns="http://www.topografix.com/GPX/1/1" xmlns:xsi="http://www.w3.org/2001/XMLSchema-instance" xsi:schemaLocation="http://www.topografix.com/GPX/1/1 http://www.topografix.com/GPX/1/1/gpx.xsd" version="1.1" creator="VisuGPX - https://www.visugpx.com">
  <metadata>
    <name>Praz Véchin 2022-02-03</name>
  </metadata>
  <trk>
    <name><![CDATA[2022-02-03 14:04:16]]></name>
    <trkseg>
      <trkpt lat="45.77259" lon="6.47324">
        <ele>939.27</ele>
        <time>2022-02-03T07:00:46Z</time>
      </trkpt>
      <trkpt lat="45.77259" lon="6.47324">
        <ele>939.27</ele>
        <time>2022-02-03T07:00:47Z</time>
      </trkpt>
      <trkpt lat="45.7726" lon="6.47323">
        <ele>937.95</ele>
        <time>2022-02-03T07:01:12Z</time>
      </trkpt>
      <trkpt lat="45.77261" lon="6.47321">
        <ele>937.87</ele>
        <time>2022-02-03T07:01:27Z</time>
      </trkpt>
      <trkpt lat="45.77262" lon="6.47321">
        <ele>937.91</ele>
        <time>2022-02-03T07:01:47Z</time>
      </trkpt>
      <trkpt lat="45.77265" lon="6.47323">
        <ele>937.65</ele>
        <time>2022-02-03T07:02:14Z</time>
      </trkpt>
      <trkpt lat="45.77266" lon="6.47327">
        <ele>937.91</ele>
        <time>2022-02-03T07:02:36Z</time>
      </trkpt>
      <trkpt lat="45.77263" lon="6.47328">
        <ele>938.05</ele>
        <time>2022-02-03T07:03:03Z</time>
      </trkpt>
      <trkpt lat="45.77263" lon="6.47326">
        <ele>937.7</ele>
        <time>2022-02-03T07:03:05Z</time>
      </trkpt>
      <trkpt lat="45.77261" lon="6.47314">
        <ele>938.34</ele>
        <time>2022-02-03T07:03:12Z</time>
      </trkpt>
      <trkpt lat="45.77258" lon="6.47297">
        <ele>938.28</ele>
        <time>2022-02-03T07:03:25Z</time>
      </trkpt>
      <trkpt lat="45.77262" lon="6.473">
        <ele>941.78</ele>
        <time>2022-02-03T07:03:39Z</time>
      </trkpt>
      <trkpt lat="45.77268" lon="6.47298">
        <ele>942.8</ele>
        <time>2022-02-03T07:03:48Z</time>
      </trkpt>
      <trkpt lat="45.77275" lon="6.47288">
        <ele>946.25</ele>
        <time>2022-02-03T07:04:03Z</time>
      </trkpt>
      <trkpt lat="45.77282" lon="6.4728">
        <ele>948.7</ele>
        <time>2022-02-03T07:04:17Z</time>
      </trkpt>
      <trkpt lat="45.77285" lon="6.47286">
        <ele>949.8</ele>
        <time>2022-02-03T07:04:27Z</time>
      </trkpt>
      <trkpt lat="45.77287" lon="6.47288">
        <ele>949.98</ele>
        <time>2022-02-03T07:04:29Z</time>
      </trkpt>
      <trkpt lat="45.77296" lon="6.47294">
        <ele>953.58</ele>
        <time>2022-02-03T07:04:43Z</time>
      </trkpt>
      <trkpt lat="45.77302" lon="6.47293">
        <ele>955.28</ele>
        <time>2022-02-03T07:04:57Z</time>
      </trkpt>
      <trkpt lat="45.77307" lon="6.47284">
        <ele>956.32</ele>
        <time>2022-02-03T07:05:14Z</time>
      </trkpt>
      <trkpt lat="45.77311" lon="6.4728">
        <ele>956.5</ele>
        <time>2022-02-03T07:05:38Z</time>
      </trkpt>
      <trkpt lat="45.77312" lon="6.47277">
        <ele>956.29</ele>
        <time>2022-02-03T07:05:54Z</time>
      </trkpt>
      <trkpt lat="45.7731" lon="6.47278">
        <ele>956.33</ele>
        <time>2022-02-03T07:06:02Z</time>
      </trkpt>
      <trkpt lat="45.77313" lon="6.47271">
        <ele>958.95</ele>
        <time>2022-02-03T07:06:21Z</time>
      </trkpt>
      <trkpt lat="45.77323" lon="6.4727">
        <ele>961.88</ele>
        <time>2022-02-03T07:06:33Z</time>
      </trkpt>
      <trkpt lat="45.77331" lon="6.47272">
        <ele>964.97</ele>
        <time>2022-02-03T07:06:50Z</time>
      </trkpt>
      <trkpt lat="45.77337" lon="6.47279">
        <ele>968.01</ele>
        <time>2022-02-03T07:07:04Z</time>
      </trkpt>
      <trkpt lat="45.77348" lon="6.47286">
        <ele>971.09</ele>
        <time>2022-02-03T07:07:22Z</time>
      </trkpt>
      <trkpt lat="45.7736" lon="6.47283">
        <ele>974.15</ele>
        <time>2022-02-03T07:07:40Z</time>
      </trkpt>
      <trkpt lat="45.77369" lon="6.47279">
        <ele>976.27</ele>
        <time>2022-02-03T07:07:54Z</time>
      </trkpt>
      <trkpt lat="45.77383" lon="6.47285">
        <ele>979.49</ele>
        <time>2022-02-03T07:08:12Z</time>
      </trkpt>
      <trkpt lat="45.77395" lon="6.47288">
        <ele>982.13</ele>
        <time>2022-02-03T07:08:29Z</time>
      </trkpt>
      <trkpt lat="45.77405" lon="6.4729">
        <ele>984.66</ele>
        <time>2022-02-03T07:08:43Z</time>
      </trkpt>
      <trkpt lat="45.77411" lon="6.47295">
        <ele>987.01</ele>
        <time>2022-02-03T07:08:59Z</time>
      </trkpt>
      <trkpt lat="45.77414" lon="6.4729">
        <ele>987.13</ele>
        <time>2022-02-03T07:09:19Z</time>
      </trkpt>
      <trkpt lat="45.77423" lon="6.47287">
        <ele>990.32</ele>
        <time>2022-02-03T07:09:34Z</time>
      </trkpt>
      <trkpt lat="45.7743" lon="6.47279">
        <ele>993.4</ele>
        <time>2022-02-03T07:09:49Z</time>
      </trkpt>
      <trkpt lat="45.77438" lon="6.47277">
        <ele>996.56</ele>
        <time>2022-02-03T07:10:03Z</time>
      </trkpt>
      <trkpt lat="45.77446" lon="6.47273">
        <ele>999.74</ele>
        <time>2022-02-03T07:10:18Z</time>
      </trkpt>
      <trkpt lat="45.77456" lon="6.47272">
        <ele>1002.25</ele>
        <time>2022-02-03T07:10:34Z</time>
      </trkpt>
      <trkpt lat="45.77456" lon="6.47262">
        <ele>1003.83</ele>
        <time>2022-02-03T07:10:46Z</time>
      </trkpt>
      <trkpt lat="45.77455" lon="6.47251">
        <ele>1007.22</ele>
        <time>2022-02-03T07:11:01Z</time>
      </trkpt>
      <trkpt lat="45.77451" lon="6.47245">
        <ele>1010.52</ele>
        <time>2022-02-03T07:11:18Z</time>
      </trkpt>
      <trkpt lat="45.77453" lon="6.47246">
        <ele>1012.32</ele>
        <time>2022-02-03T07:11:32Z</time>
      </trkpt>
      <trkpt lat="45.77457" lon="6.47243">
        <ele>1014.42</ele>
        <time>2022-02-03T07:11:48Z</time>
      </trkpt>
      <trkpt lat="45.77467" lon="6.47239">
        <ele>1017.45</ele>
        <time>2022-02-03T07:12:05Z</time>
      </trkpt>
      <trkpt lat="45.77475" lon="6.47226">
        <ele>1019.34</ele>
        <time>2022-02-03T07:12:24Z</time>
      </trkpt>
      <trkpt lat="45.77482" lon="6.4722">
        <ele>1022.4</ele>
        <time>2022-02-03T07:12:44Z</time>
      </trkpt>
      <trkpt lat="45.77482" lon="6.47219">
        <ele>1022.1</ele>
        <time>2022-02-03T07:12:45Z</time>
      </trkpt>
      <trkpt lat="45.77484" lon="6.47204">
        <ele>1023.56</ele>
        <time>2022-02-03T07:13:03Z</time>
      </trkpt>
      <trkpt lat="45.77486" lon="6.47199">
        <ele>1025.36</ele>
        <time>2022-02-03T07:13:14Z</time>
      </trkpt>
      <trkpt lat="45.77486" lon="6.4719">
        <ele>1026.84</ele>
        <time>2022-02-03T07:13:35Z</time>
      </trkpt>
      <trkpt lat="45.77483" lon="6.4718">
        <ele>1028.55</ele>
        <time>2022-02-03T07:13:53Z</time>
      </trkpt>
      <trkpt lat="45.77474" lon="6.47172">
        <ele>1030.17</ele>
        <time>2022-02-03T07:14:09Z</time>
      </trkpt>
      <trkpt lat="45.77469" lon="6.47162">
        <ele>1032.15</ele>
        <time>2022-02-03T07:14:24Z</time>
      </trkpt>
      <trkpt lat="45.77465" lon="6.47159">
        <ele>1033.82</ele>
        <time>2022-02-03T07:14:39Z</time>
      </trkpt>
      <trkpt lat="45.77463" lon="6.47156">
        <ele>1034.01</ele>
        <time>2022-02-03T07:14:47Z</time>
      </trkpt>
      <trkpt lat="45.7747" lon="6.47146">
        <ele>1035.26</ele>
        <time>2022-02-03T07:15:02Z</time>
      </trkpt>
      <trkpt lat="45.77471" lon="6.47141">
        <ele>1034.94</ele>
        <time>2022-02-03T07:15:24Z</time>
      </trkpt>
      <trkpt lat="45.77473" lon="6.47138">
        <ele>1036.11</ele>
        <time>2022-02-03T07:15:39Z</time>
      </trkpt>
      <trkpt lat="45.77477" lon="6.47128">
        <ele>1037.21</ele>
        <time>2022-02-03T07:16:00Z</time>
      </trkpt>
      <trkpt lat="45.77484" lon="6.4712">
        <ele>1040.3</ele>
        <time>2022-02-03T07:16:15Z</time>
      </trkpt>
      <trkpt lat="45.77489" lon="6.47115">
        <ele>1041.08</ele>
        <time>2022-02-03T07:16:23Z</time>
      </trkpt>
      <trkpt lat="45.77491" lon="6.47113">
        <ele>1041.64</ele>
        <time>2022-02-03T07:16:25Z</time>
      </trkpt>
      <trkpt lat="45.77498" lon="6.47105">
        <ele>1043.47</ele>
        <time>2022-02-03T07:16:37Z</time>
      </trkpt>
      <trkpt lat="45.77505" lon="6.47097">
        <ele>1045.95</ele>
        <time>2022-02-03T07:16:50Z</time>
      </trkpt>
      <trkpt lat="45.77512" lon="6.47085">
        <ele>1047.67</ele>
        <time>2022-02-03T07:17:06Z</time>
      </trkpt>
      <trkpt lat="45.77516" lon="6.47078">
        <ele>1049.27</ele>
        <time>2022-02-03T07:17:15Z</time>
      </trkpt>
      <trkpt lat="45.7752" lon="6.47068">
        <ele>1050.56</ele>
        <time>2022-02-03T07:17:24Z</time>
      </trkpt>
      <trkpt lat="45.77524" lon="6.47056">
        <ele>1052.99</ele>
        <time>2022-02-03T07:17:37Z</time>
      </trkpt>
      <trkpt lat="45.77526" lon="6.47038">
        <ele>1055.94</ele>
        <time>2022-02-03T07:17:53Z</time>
      </trkpt>
      <trkpt lat="45.7753" lon="6.47028">
        <ele>1058.62</ele>
        <time>2022-02-03T07:18:08Z</time>
      </trkpt>
      <trkpt lat="45.77535" lon="6.47025">
        <ele>1060.56</ele>
        <time>2022-02-03T07:18:22Z</time>
      </trkpt>
      <trkpt lat="45.77541" lon="6.47014">
        <ele>1063.89</ele>
        <time>2022-02-03T07:18:41Z</time>
      </trkpt>
      <trkpt lat="45.77549" lon="6.47011">
        <ele>1066.98</ele>
        <time>2022-02-03T07:18:58Z</time>
      </trkpt>
      <trkpt lat="45.77556" lon="6.47004">
        <ele>1070.14</ele>
        <time>2022-02-03T07:19:17Z</time>
      </trkpt>
      <trkpt lat="45.77565" lon="6.47">
        <ele>1072.83</ele>
        <time>2022-02-03T07:19:36Z</time>
      </trkpt>
      <trkpt lat="45.77572" lon="6.46988">
        <ele>1075.91</ele>
        <time>2022-02-03T07:19:52Z</time>
      </trkpt>
      <trkpt lat="45.77581" lon="6.46984">
        <ele>1079.12</ele>
        <time>2022-02-03T07:20:10Z</time>
      </trkpt>
      <trkpt lat="45.77588" lon="6.46969">
        <ele>1081.77</ele>
        <time>2022-02-03T07:20:28Z</time>
      </trkpt>
      <trkpt lat="45.77596" lon="6.46961">
        <ele>1084.78</ele>
        <time>2022-02-03T07:20:47Z</time>
      </trkpt>
      <trkpt lat="45.77604" lon="6.46947">
        <ele>1087.96</ele>
        <time>2022-02-03T07:21:07Z</time>
      </trkpt>
      <trkpt lat="45.77612" lon="6.46931">
        <ele>1091.04</ele>
        <time>2022-02-03T07:21:31Z</time>
      </trkpt>
      <trkpt lat="45.77619" lon="6.46912">
        <ele>1094.26</ele>
        <time>2022-02-03T07:21:54Z</time>
      </trkpt>
      <trkpt lat="45.77623" lon="6.46898">
        <ele>1096.99</ele>
        <time>2022-02-03T07:22:14Z</time>
      </trkpt>
      <trkpt lat="45.77626" lon="6.46889">
        <ele>1100.1</ele>
        <time>2022-02-03T07:22:29Z</time>
      </trkpt>
      <trkpt lat="45.77631" lon="6.46882">
        <ele>1103.23</ele>
        <time>2022-02-03T07:22:47Z</time>
      </trkpt>
      <trkpt lat="45.77638" lon="6.46877">
        <ele>1106.03</ele>
        <time>2022-02-03T07:23:04Z</time>
      </trkpt>
      <trkpt lat="45.77647" lon="6.4687">
        <ele>1109.08</ele>
        <time>2022-02-03T07:23:23Z</time>
      </trkpt>
      <trkpt lat="45.77655" lon="6.46863">
        <ele>1111.92</ele>
        <time>2022-02-03T07:23:42Z</time>
      </trkpt>
      <trkpt lat="45.77662" lon="6.46854">
        <ele>1115.01</ele>
        <time>2022-02-03T07:24:02Z</time>
      </trkpt>
      <trkpt lat="45.7767" lon="6.4684">
        <ele>1117.49</ele>
        <time>2022-02-03T07:24:20Z</time>
      </trkpt>
      <trkpt lat="45.77668" lon="6.46827">
        <ele>1117.62</ele>
        <time>2022-02-03T07:24:43Z</time>
      </trkpt>
      <trkpt lat="45.77674" lon="6.4682">
        <ele>1117.76</ele>
        <time>2022-02-03T07:25:15Z</time>
      </trkpt>
      <trkpt lat="45.77674" lon="6.4682">
        <ele>1117.81</ele>
        <time>2022-02-03T07:25:16Z</time>
      </trkpt>
      <trkpt lat="45.77675" lon="6.46814">
        <ele>1117.79</ele>
        <time>2022-02-03T07:25:45Z</time>
      </trkpt>
      <trkpt lat="45.77671" lon="6.46812">
        <ele>1118.33</ele>
        <time>2022-02-03T07:26:13Z</time>
      </trkpt>
      <trkpt lat="45.77675" lon="6.46813">
        <ele>1120.24</ele>
        <time>2022-02-03T07:26:31Z</time>
      </trkpt>
      <trkpt lat="45.77678" lon="6.4681">
        <ele>1121.42</ele>
        <time>2022-02-03T07:26:44Z</time>
      </trkpt>
      <trkpt lat="45.77683" lon="6.468">
        <ele>1122.61</ele>
        <time>2022-02-03T07:27:00Z</time>
      </trkpt>
      <trkpt lat="45.77687" lon="6.46789">
        <ele>1123.01</ele>
        <time>2022-02-03T07:27:21Z</time>
      </trkpt>
      <trkpt lat="45.77696" lon="6.46778">
        <ele>1122.21</ele>
        <time>2022-02-03T07:27:38Z</time>
      </trkpt>
      <trkpt lat="45.77709" lon="6.46762">
        <ele>1123.2</ele>
        <time>2022-02-03T07:27:59Z</time>
      </trkpt>
      <trkpt lat="45.77715" lon="6.46744">
        <ele>1123.77</ele>
        <time>2022-02-03T07:28:14Z</time>
      </trkpt>
      <trkpt lat="45.7772" lon="6.46721">
        <ele>1125.96</ele>
        <time>2022-02-03T07:28:36Z</time>
      </trkpt>
      <trkpt lat="45.77722" lon="6.46715">
        <ele>1126.47</ele>
        <time>2022-02-03T07:28:44Z</time>
      </trkpt>
      <trkpt lat="45.77726" lon="6.4669">
        <ele>1128.61</ele>
        <time>2022-02-03T07:29:05Z</time>
      </trkpt>
      <trkpt lat="45.7773" lon="6.46666">
        <ele>1127.03</ele>
        <time>2022-02-03T07:29:25Z</time>
      </trkpt>
      <trkpt lat="45.77739" lon="6.46643">
        <ele>1126.11</ele>
        <time>2022-02-03T07:29:39Z</time>
      </trkpt>
      <trkpt lat="45.77743" lon="6.46627">
        <ele>1126.55</ele>
        <time>2022-02-03T07:29:53Z</time>
      </trkpt>
      <trkpt lat="45.77755" lon="6.46606">
        <ele>1125.7</ele>
        <time>2022-02-03T07:30:07Z</time>
      </trkpt>
      <trkpt lat="45.77756" lon="6.46603">
        <ele>1125.46</ele>
        <time>2022-02-03T07:30:09Z</time>
      </trkpt>
      <trkpt lat="45.77757" lon="6.46591">
        <ele>1125.43</ele>
        <time>2022-02-03T07:30:17Z</time>
      </trkpt>
      <trkpt lat="45.77761" lon="6.46578">
        <ele>1125.7</ele>
        <time>2022-02-03T07:30:42Z</time>
      </trkpt>
      <trkpt lat="45.77764" lon="6.46559">
        <ele>1127.54</ele>
        <time>2022-02-03T07:31:00Z</time>
      </trkpt>
      <trkpt lat="45.77765" lon="6.46557">
        <ele>1127.9</ele>
        <time>2022-02-03T07:31:02Z</time>
      </trkpt>
      <trkpt lat="45.77762" lon="6.4654">
        <ele>1130.13</ele>
        <time>2022-02-03T07:31:22Z</time>
      </trkpt>
      <trkpt lat="45.77764" lon="6.46529">
        <ele>1131.78</ele>
        <time>2022-02-03T07:31:43Z</time>
      </trkpt>
      <trkpt lat="45.77768" lon="6.46526">
        <ele>1133.78</ele>
        <time>2022-02-03T07:32:08Z</time>
      </trkpt>
      <trkpt lat="45.77767" lon="6.46518">
        <ele>1136.79</ele>
        <time>2022-02-03T07:32:20Z</time>
      </trkpt>
      <trkpt lat="45.77768" lon="6.46501">
        <ele>1139.35</ele>
        <time>2022-02-03T07:32:36Z</time>
      </trkpt>
      <trkpt lat="45.77768" lon="6.46483">
        <ele>1142.54</ele>
        <time>2022-02-03T07:32:51Z</time>
      </trkpt>
      <trkpt lat="45.77771" lon="6.46472">
        <ele>1145.85</ele>
        <time>2022-02-03T07:33:06Z</time>
      </trkpt>
      <trkpt lat="45.77769" lon="6.4646">
        <ele>1148.36</ele>
        <time>2022-02-03T07:33:20Z</time>
      </trkpt>
      <trkpt lat="45.77773" lon="6.46453">
        <ele>1150.93</ele>
        <time>2022-02-03T07:33:38Z</time>
      </trkpt>
      <trkpt lat="45.77772" lon="6.4644">
        <ele>1154.1</ele>
        <time>2022-02-03T07:33:53Z</time>
      </trkpt>
      <trkpt lat="45.77773" lon="6.46431">
        <ele>1156.59</ele>
        <time>2022-02-03T07:34:07Z</time>
      </trkpt>
      <trkpt lat="45.77771" lon="6.46422">
        <ele>1158.57</ele>
        <time>2022-02-03T07:34:23Z</time>
      </trkpt>
      <trkpt lat="45.77771" lon="6.46413">
        <ele>1160.75</ele>
        <time>2022-02-03T07:34:36Z</time>
      </trkpt>
      <trkpt lat="45.77771" lon="6.46404">
        <ele>1162.51</ele>
        <time>2022-02-03T07:34:49Z</time>
      </trkpt>
      <trkpt lat="45.77771" lon="6.46393">
        <ele>1164.59</ele>
        <time>2022-02-03T07:35:01Z</time>
      </trkpt>
      <trkpt lat="45.77772" lon="6.46381">
        <ele>1166.81</ele>
        <time>2022-02-03T07:35:18Z</time>
      </trkpt>
      <trkpt lat="45.77772" lon="6.46369">
        <ele>1169.06</ele>
        <time>2022-02-03T07:35:36Z</time>
      </trkpt>
      <trkpt lat="45.7777" lon="6.46356">
        <ele>1169.27</ele>
        <time>2022-02-03T07:35:51Z</time>
      </trkpt>
      <trkpt lat="45.77769" lon="6.46357">
        <ele>1168.85</ele>
        <time>2022-02-03T07:36:13Z</time>
      </trkpt>
      <trkpt lat="45.7777" lon="6.46349">
        <ele>1168.8</ele>
        <time>2022-02-03T07:36:26Z</time>
      </trkpt>
      <trkpt lat="45.7777" lon="6.46342">
        <ele>1168.73</ele>
        <time>2022-02-03T07:36:31Z</time>
      </trkpt>
      <trkpt lat="45.77766" lon="6.46327">
        <ele>1168.43</ele>
        <time>2022-02-03T07:36:44Z</time>
      </trkpt>
      <trkpt lat="45.77765" lon="6.46324">
        <ele>1168.55</ele>
        <time>2022-02-03T07:36:49Z</time>
      </trkpt>
      <trkpt lat="45.77763" lon="6.46315">
        <ele>1169.09</ele>
        <time>2022-02-03T07:36:56Z</time>
      </trkpt>
      <trkpt lat="45.77763" lon="6.46308">
        <ele>1169.48</ele>
        <time>2022-02-03T07:37:01Z</time>
      </trkpt>
      <trkpt lat="45.77762" lon="6.46303">
        <ele>1169.94</ele>
        <time>2022-02-03T07:37:04Z</time>
      </trkpt>
      <trkpt lat="45.77756" lon="6.46283">
        <ele>1170.93</ele>
        <time>2022-02-03T07:37:18Z</time>
      </trkpt>
      <trkpt lat="45.77754" lon="6.46273">
        <ele>1171</ele>
        <time>2022-02-03T07:37:32Z</time>
      </trkpt>
      <trkpt lat="45.77753" lon="6.46267">
        <ele>1172.09</ele>
        <time>2022-02-03T07:37:37Z</time>
      </trkpt>
      <trkpt lat="45.77752" lon="6.46263">
        <ele>1172.03</ele>
        <time>2022-02-03T07:37:40Z</time>
      </trkpt>
      <trkpt lat="45.77747" lon="6.46244">
        <ele>1173.32</ele>
        <time>2022-02-03T07:37:53Z</time>
      </trkpt>
      <trkpt lat="45.77747" lon="6.46223">
        <ele>1174.65</ele>
        <time>2022-02-03T07:38:07Z</time>
      </trkpt>
      <trkpt lat="45.77752" lon="6.46205">
        <ele>1175.46</ele>
        <time>2022-02-03T07:38:21Z</time>
      </trkpt>
      <trkpt lat="45.77753" lon="6.46204">
        <ele>1175.37</ele>
        <time>2022-02-03T07:38:22Z</time>
      </trkpt>
      <trkpt lat="45.77755" lon="6.46201">
        <ele>1175.84</ele>
        <time>2022-02-03T07:38:26Z</time>
      </trkpt>
      <trkpt lat="45.77763" lon="6.46197">
        <ele>1177.28</ele>
        <time>2022-02-03T07:38:40Z</time>
      </trkpt>
      <trkpt lat="45.77768" lon="6.46199">
        <ele>1178.5</ele>
        <time>2022-02-03T07:38:53Z</time>
      </trkpt>
      <trkpt lat="45.77774" lon="6.46191">
        <ele>1180.82</ele>
        <time>2022-02-03T07:39:06Z</time>
      </trkpt>
      <trkpt lat="45.77778" lon="6.46185">
        <ele>1181.68</ele>
        <time>2022-02-03T07:39:13Z</time>
      </trkpt>
      <trkpt lat="45.77783" lon="6.46174">
        <ele>1183.01</ele>
        <time>2022-02-03T07:39:26Z</time>
      </trkpt>
      <trkpt lat="45.77787" lon="6.46168">
        <ele>1184.28</ele>
        <time>2022-02-03T07:39:41Z</time>
      </trkpt>
      <trkpt lat="45.77793" lon="6.46166">
        <ele>1185.46</ele>
        <time>2022-02-03T07:39:59Z</time>
      </trkpt>
      <trkpt lat="45.778" lon="6.46161">
        <ele>1186.06</ele>
        <time>2022-02-03T07:40:09Z</time>
      </trkpt>
      <trkpt lat="45.77805" lon="6.46156">
        <ele>1186.58</ele>
        <time>2022-02-03T07:40:14Z</time>
      </trkpt>
      <trkpt lat="45.77817" lon="6.46153">
        <ele>1187.84</ele>
        <time>2022-02-03T07:40:30Z</time>
      </trkpt>
      <trkpt lat="45.77825" lon="6.46161">
        <ele>1190.54</ele>
        <time>2022-02-03T07:40:47Z</time>
      </trkpt>
      <trkpt lat="45.77828" lon="6.46162">
        <ele>1190.89</ele>
        <time>2022-02-03T07:40:51Z</time>
      </trkpt>
      <trkpt lat="45.77834" lon="6.46166">
        <ele>1191.82</ele>
        <time>2022-02-03T07:40:59Z</time>
      </trkpt>
      <trkpt lat="45.77849" lon="6.46178">
        <ele>1192.73</ele>
        <time>2022-02-03T07:41:15Z</time>
      </trkpt>
      <trkpt lat="45.77852" lon="6.46179">
        <ele>1192.78</ele>
        <time>2022-02-03T07:41:18Z</time>
      </trkpt>
      <trkpt lat="45.77861" lon="6.46183">
        <ele>1193.67</ele>
        <time>2022-02-03T07:41:29Z</time>
      </trkpt>
      <trkpt lat="45.77866" lon="6.46184">
        <ele>1193.52</ele>
        <time>2022-02-03T07:41:35Z</time>
      </trkpt>
      <trkpt lat="45.77868" lon="6.46185">
        <ele>1193.85</ele>
        <time>2022-02-03T07:41:37Z</time>
      </trkpt>
      <trkpt lat="45.77873" lon="6.46187">
        <ele>1193.68</ele>
        <time>2022-02-03T07:41:41Z</time>
      </trkpt>
      <trkpt lat="45.77875" lon="6.46189">
        <ele>1193.71</ele>
        <time>2022-02-03T07:41:43Z</time>
      </trkpt>
      <trkpt lat="45.77881" lon="6.4619">
        <ele>1193.81</ele>
        <time>2022-02-03T07:41:49Z</time>
      </trkpt>
      <trkpt lat="45.77883" lon="6.4619">
        <ele>1193.97</ele>
        <time>2022-02-03T07:41:51Z</time>
      </trkpt>
      <trkpt lat="45.77893" lon="6.4619">
        <ele>1193.9</ele>
        <time>2022-02-03T07:42:03Z</time>
      </trkpt>
      <trkpt lat="45.77896" lon="6.46191">
        <ele>1193.77</ele>
        <time>2022-02-03T07:42:16Z</time>
      </trkpt>
      <trkpt lat="45.77899" lon="6.4619">
        <ele>1194.19</ele>
        <time>2022-02-03T07:42:28Z</time>
      </trkpt>
      <trkpt lat="45.77903" lon="6.46191">
        <ele>1194.03</ele>
        <time>2022-02-03T07:42:33Z</time>
      </trkpt>
      <trkpt lat="45.77909" lon="6.46192">
        <ele>1194.25</ele>
        <time>2022-02-03T07:42:39Z</time>
      </trkpt>
      <trkpt lat="45.77914" lon="6.46195">
        <ele>1194.41</ele>
        <time>2022-02-03T07:42:44Z</time>
      </trkpt>
      <trkpt lat="45.77916" lon="6.46194">
        <ele>1194.6</ele>
        <time>2022-02-03T07:42:46Z</time>
      </trkpt>
      <trkpt lat="45.77922" lon="6.46196">
        <ele>1194.86</ele>
        <time>2022-02-03T07:42:51Z</time>
      </trkpt>
      <trkpt lat="45.77926" lon="6.46194">
        <ele>1195.02</ele>
        <time>2022-02-03T07:42:55Z</time>
      </trkpt>
      <trkpt lat="45.77935" lon="6.46196">
        <ele>1195.17</ele>
        <time>2022-02-03T07:43:02Z</time>
      </trkpt>
      <trkpt lat="45.7794" lon="6.46194">
        <ele>1195.43</ele>
        <time>2022-02-03T07:43:07Z</time>
      </trkpt>
      <trkpt lat="45.77944" lon="6.46196">
        <ele>1195.53</ele>
        <time>2022-02-03T07:43:10Z</time>
      </trkpt>
      <trkpt lat="45.77949" lon="6.46194">
        <ele>1195.68</ele>
        <time>2022-02-03T07:43:15Z</time>
      </trkpt>
      <trkpt lat="45.77951" lon="6.46196">
        <ele>1195.67</ele>
        <time>2022-02-03T07:43:17Z</time>
      </trkpt>
      <trkpt lat="45.77959" lon="6.46196">
        <ele>1195.82</ele>
        <time>2022-02-03T07:43:23Z</time>
      </trkpt>
      <trkpt lat="45.77964" lon="6.46197">
        <ele>1195.95</ele>
        <time>2022-02-03T07:43:27Z</time>
      </trkpt>
      <trkpt lat="45.7797" lon="6.46194">
        <ele>1196.2</ele>
        <time>2022-02-03T07:43:32Z</time>
      </trkpt>
      <trkpt lat="45.77973" lon="6.46196">
        <ele>1196.38</ele>
        <time>2022-02-03T07:43:35Z</time>
      </trkpt>
      <trkpt lat="45.77977" lon="6.46195">
        <ele>1196.23</ele>
        <time>2022-02-03T07:43:38Z</time>
      </trkpt>
      <trkpt lat="45.77987" lon="6.46197">
        <ele>1197.03</ele>
        <time>2022-02-03T07:43:47Z</time>
      </trkpt>
      <trkpt lat="45.77998" lon="6.462">
        <ele>1197.16</ele>
        <time>2022-02-03T07:43:56Z</time>
      </trkpt>
      <trkpt lat="45.7801" lon="6.46205">
        <ele>1197.46</ele>
        <time>2022-02-03T07:44:06Z</time>
      </trkpt>
      <trkpt lat="45.78011" lon="6.46206">
        <ele>1197.26</ele>
        <time>2022-02-03T07:44:07Z</time>
      </trkpt>
      <trkpt lat="45.78012" lon="6.46207">
        <ele>1197.22</ele>
        <time>2022-02-03T07:44:08Z</time>
      </trkpt>
      <trkpt lat="45.78013" lon="6.46208">
        <ele>1197.32</ele>
        <time>2022-02-03T07:44:09Z</time>
      </trkpt>
      <trkpt lat="45.78015" lon="6.46209">
        <ele>1197.65</ele>
        <time>2022-02-03T07:44:10Z</time>
      </trkpt>
      <trkpt lat="45.78019" lon="6.46213">
        <ele>1198.03</ele>
        <time>2022-02-03T07:44:15Z</time>
      </trkpt>
      <trkpt lat="45.78026" lon="6.46222">
        <ele>1199.24</ele>
        <time>2022-02-03T07:44:27Z</time>
      </trkpt>
      <trkpt lat="45.78027" lon="6.46224">
        <ele>1199.39</ele>
        <time>2022-02-03T07:44:29Z</time>
      </trkpt>
      <trkpt lat="45.78032" lon="6.46237">
        <ele>1200.24</ele>
        <time>2022-02-03T07:44:44Z</time>
      </trkpt>
      <trkpt lat="45.7804" lon="6.46255">
        <ele>1198.8</ele>
        <time>2022-02-03T07:44:59Z</time>
      </trkpt>
      <trkpt lat="45.78045" lon="6.46261">
        <ele>1197.97</ele>
        <time>2022-02-03T07:45:07Z</time>
      </trkpt>
      <trkpt lat="45.78047" lon="6.46263">
        <ele>1198.03</ele>
        <time>2022-02-03T07:45:10Z</time>
      </trkpt>
      <trkpt lat="45.78052" lon="6.4627">
        <ele>1197.61</ele>
        <time>2022-02-03T07:45:29Z</time>
      </trkpt>
      <trkpt lat="45.78053" lon="6.46274">
        <ele>1198.14</ele>
        <time>2022-02-03T07:45:58Z</time>
      </trkpt>
      <trkpt lat="45.78051" lon="6.46271">
        <ele>1197.97</ele>
        <time>2022-02-03T07:46:25Z</time>
      </trkpt>
      <trkpt lat="45.78052" lon="6.46274">
        <ele>1197.97</ele>
        <time>2022-02-03T07:46:51Z</time>
      </trkpt>
      <trkpt lat="45.78054" lon="6.46274">
        <ele>1198.42</ele>
        <time>2022-02-03T07:47:07Z</time>
      </trkpt>
      <trkpt lat="45.78063" lon="6.46273">
        <ele>1199.37</ele>
        <time>2022-02-03T07:47:21Z</time>
      </trkpt>
      <trkpt lat="45.7806" lon="6.46261">
        <ele>1201.33</ele>
        <time>2022-02-03T07:47:35Z</time>
      </trkpt>
      <trkpt lat="45.78063" lon="6.46263">
        <ele>1201.93</ele>
        <time>2022-02-03T07:47:52Z</time>
      </trkpt>
      <trkpt lat="45.78069" lon="6.46266">
        <ele>1202.52</ele>
        <time>2022-02-03T07:48:05Z</time>
      </trkpt>
      <trkpt lat="45.78071" lon="6.46265">
        <ele>1202.68</ele>
        <time>2022-02-03T07:48:10Z</time>
      </trkpt>
      <trkpt lat="45.78073" lon="6.46265">
        <ele>1202.73</ele>
        <time>2022-02-03T07:48:28Z</time>
      </trkpt>
      <trkpt lat="45.78075" lon="6.4627">
        <ele>1203.03</ele>
        <time>2022-02-03T07:48:56Z</time>
      </trkpt>
      <trkpt lat="45.78082" lon="6.46275">
        <ele>1205</ele>
        <time>2022-02-03T07:49:10Z</time>
      </trkpt>
      <trkpt lat="45.78091" lon="6.46277">
        <ele>1206.56</ele>
        <time>2022-02-03T07:49:23Z</time>
      </trkpt>
      <trkpt lat="45.78101" lon="6.46278">
        <ele>1208.03</ele>
        <time>2022-02-03T07:49:37Z</time>
      </trkpt>
      <trkpt lat="45.78108" lon="6.46283">
        <ele>1209.39</ele>
        <time>2022-02-03T07:49:50Z</time>
      </trkpt>
      <trkpt lat="45.78112" lon="6.46306">
        <ele>1209.87</ele>
        <time>2022-02-03T07:50:10Z</time>
      </trkpt>
      <trkpt lat="45.78112" lon="6.46307">
        <ele>1209.71</ele>
        <time>2022-02-03T07:50:11Z</time>
      </trkpt>
      <trkpt lat="45.78116" lon="6.46321">
        <ele>1210.08</ele>
        <time>2022-02-03T07:50:24Z</time>
      </trkpt>
      <trkpt lat="45.78118" lon="6.46329">
        <ele>1209.92</ele>
        <time>2022-02-03T07:50:32Z</time>
      </trkpt>
      <trkpt lat="45.78126" lon="6.4635">
        <ele>1210.69</ele>
        <time>2022-02-03T07:50:49Z</time>
      </trkpt>
      <trkpt lat="45.78132" lon="6.4636">
        <ele>1210.83</ele>
        <time>2022-02-03T07:50:58Z</time>
      </trkpt>
      <trkpt lat="45.7814" lon="6.46372">
        <ele>1211.46</ele>
        <time>2022-02-03T07:51:08Z</time>
      </trkpt>
      <trkpt lat="45.78141" lon="6.46374">
        <ele>1211.58</ele>
        <time>2022-02-03T07:51:10Z</time>
      </trkpt>
      <trkpt lat="45.78149" lon="6.46389">
        <ele>1212.13</ele>
        <time>2022-02-03T07:51:25Z</time>
      </trkpt>
      <trkpt lat="45.78152" lon="6.46391">
        <ele>1212.5</ele>
        <time>2022-02-03T07:51:28Z</time>
      </trkpt>
      <trkpt lat="45.78159" lon="6.46399">
        <ele>1212.75</ele>
        <time>2022-02-03T07:51:37Z</time>
      </trkpt>
      <trkpt lat="45.78161" lon="6.46402">
        <ele>1212.73</ele>
        <time>2022-02-03T07:51:40Z</time>
      </trkpt>
      <trkpt lat="45.78164" lon="6.46406">
        <ele>1212.9</ele>
        <time>2022-02-03T07:51:43Z</time>
      </trkpt>
      <trkpt lat="45.78172" lon="6.46416">
        <ele>1213.52</ele>
        <time>2022-02-03T07:51:57Z</time>
      </trkpt>
      <trkpt lat="45.78176" lon="6.46421">
        <ele>1213.77</ele>
        <time>2022-02-03T07:52:02Z</time>
      </trkpt>
      <trkpt lat="45.7818" lon="6.46424">
        <ele>1213.54</ele>
        <time>2022-02-03T07:52:08Z</time>
      </trkpt>
      <trkpt lat="45.78183" lon="6.46418">
        <ele>1216.03</ele>
        <time>2022-02-03T07:52:24Z</time>
      </trkpt>
      <trkpt lat="45.78181" lon="6.46402">
        <ele>1217.94</ele>
        <time>2022-02-03T07:52:43Z</time>
      </trkpt>
      <trkpt lat="45.78179" lon="6.46388">
        <ele>1221.26</ele>
        <time>2022-02-03T07:53:03Z</time>
      </trkpt>
      <trkpt lat="45.78177" lon="6.46378">
        <ele>1222.85</ele>
        <time>2022-02-03T07:53:16Z</time>
      </trkpt>
      <trkpt lat="45.78176" lon="6.46375">
        <ele>1224.94</ele>
        <time>2022-02-03T07:53:29Z</time>
      </trkpt>
      <trkpt lat="45.78179" lon="6.46377">
        <ele>1227.5</ele>
        <time>2022-02-03T07:53:41Z</time>
      </trkpt>
      <trkpt lat="45.78183" lon="6.46383">
        <ele>1229.12</ele>
        <time>2022-02-03T07:53:52Z</time>
      </trkpt>
      <trkpt lat="45.78189" lon="6.46383">
        <ele>1230.97</ele>
        <time>2022-02-03T07:54:06Z</time>
      </trkpt>
      <trkpt lat="45.78193" lon="6.46372">
        <ele>1234.26</ele>
        <time>2022-02-03T07:54:23Z</time>
      </trkpt>
      <trkpt lat="45.78197" lon="6.46374">
        <ele>1237.11</ele>
        <time>2022-02-03T07:54:39Z</time>
      </trkpt>
      <trkpt lat="45.78202" lon="6.46376">
        <ele>1238.27</ele>
        <time>2022-02-03T07:54:52Z</time>
      </trkpt>
      <trkpt lat="45.78207" lon="6.46372">
        <ele>1238.99</ele>
        <time>2022-02-03T07:55:08Z</time>
      </trkpt>
      <trkpt lat="45.78208" lon="6.46364">
        <ele>1241.16</ele>
        <time>2022-02-03T07:55:22Z</time>
      </trkpt>
      <trkpt lat="45.78213" lon="6.46361">
        <ele>1243.43</ele>
        <time>2022-02-03T07:55:36Z</time>
      </trkpt>
      <trkpt lat="45.78219" lon="6.46364">
        <ele>1246.1</ele>
        <time>2022-02-03T07:55:51Z</time>
      </trkpt>
      <trkpt lat="45.78224" lon="6.46361">
        <ele>1247.82</ele>
        <time>2022-02-03T07:56:04Z</time>
      </trkpt>
      <trkpt lat="45.78225" lon="6.46353">
        <ele>1250.04</ele>
        <time>2022-02-03T07:56:19Z</time>
      </trkpt>
      <trkpt lat="45.78226" lon="6.46343">
        <ele>1251.99</ele>
        <time>2022-02-03T07:56:32Z</time>
      </trkpt>
      <trkpt lat="45.78227" lon="6.4633">
        <ele>1255.32</ele>
        <time>2022-02-03T07:56:48Z</time>
      </trkpt>
      <trkpt lat="45.78228" lon="6.46324">
        <ele>1256.9</ele>
        <time>2022-02-03T07:57:03Z</time>
      </trkpt>
      <trkpt lat="45.78229" lon="6.46314">
        <ele>1258.96</ele>
        <time>2022-02-03T07:57:19Z</time>
      </trkpt>
      <trkpt lat="45.7823" lon="6.46305">
        <ele>1261.37</ele>
        <time>2022-02-03T07:57:32Z</time>
      </trkpt>
      <trkpt lat="45.7823" lon="6.46292">
        <ele>1264.09</ele>
        <time>2022-02-03T07:57:49Z</time>
      </trkpt>
      <trkpt lat="45.7823" lon="6.46285">
        <ele>1265.18</ele>
        <time>2022-02-03T07:58:06Z</time>
      </trkpt>
      <trkpt lat="45.78226" lon="6.46273">
        <ele>1267.29</ele>
        <time>2022-02-03T07:58:22Z</time>
      </trkpt>
      <trkpt lat="45.78227" lon="6.46263">
        <ele>1269.68</ele>
        <time>2022-02-03T07:58:34Z</time>
      </trkpt>
      <trkpt lat="45.7823" lon="6.46253">
        <ele>1271.48</ele>
        <time>2022-02-03T07:58:47Z</time>
      </trkpt>
      <trkpt lat="45.7823" lon="6.46249">
        <ele>1272.95</ele>
        <time>2022-02-03T07:59:02Z</time>
      </trkpt>
      <trkpt lat="45.78236" lon="6.46247">
        <ele>1274.86</ele>
        <time>2022-02-03T07:59:20Z</time>
      </trkpt>
      <trkpt lat="45.78239" lon="6.46239">
        <ele>1276.64</ele>
        <time>2022-02-03T07:59:33Z</time>
      </trkpt>
      <trkpt lat="45.78245" lon="6.46234">
        <ele>1279.02</ele>
        <time>2022-02-03T07:59:47Z</time>
      </trkpt>
      <trkpt lat="45.7825" lon="6.46224">
        <ele>1280.72</ele>
        <time>2022-02-03T08:00:03Z</time>
      </trkpt>
      <trkpt lat="45.78252" lon="6.46223">
        <ele>1281.2</ele>
        <time>2022-02-03T08:00:26Z</time>
      </trkpt>
      <trkpt lat="45.78258" lon="6.46214">
        <ele>1282.72</ele>
        <time>2022-02-03T08:00:46Z</time>
      </trkpt>
      <trkpt lat="45.78263" lon="6.46209">
        <ele>1285.81</ele>
        <time>2022-02-03T08:01:02Z</time>
      </trkpt>
      <trkpt lat="45.78266" lon="6.46201">
        <ele>1288.15</ele>
        <time>2022-02-03T08:01:16Z</time>
      </trkpt>
      <trkpt lat="45.78269" lon="6.46194">
        <ele>1290.11</ele>
        <time>2022-02-03T08:01:29Z</time>
      </trkpt>
      <trkpt lat="45.78273" lon="6.46188">
        <ele>1292.54</ele>
        <time>2022-02-03T08:01:43Z</time>
      </trkpt>
      <trkpt lat="45.78277" lon="6.46182">
        <ele>1294.51</ele>
        <time>2022-02-03T08:01:57Z</time>
      </trkpt>
      <trkpt lat="45.7828" lon="6.46175">
        <ele>1296.78</ele>
        <time>2022-02-03T08:02:10Z</time>
      </trkpt>
      <trkpt lat="45.78284" lon="6.46164">
        <ele>1298.71</ele>
        <time>2022-02-03T08:02:26Z</time>
      </trkpt>
      <trkpt lat="45.78286" lon="6.46154">
        <ele>1300.49</ele>
        <time>2022-02-03T08:02:41Z</time>
      </trkpt>
      <trkpt lat="45.78287" lon="6.46143">
        <ele>1302.09</ele>
        <time>2022-02-03T08:02:55Z</time>
      </trkpt>
      <trkpt lat="45.78287" lon="6.46132">
        <ele>1303.65</ele>
        <time>2022-02-03T08:03:09Z</time>
      </trkpt>
      <trkpt lat="45.78286" lon="6.46122">
        <ele>1305.23</ele>
        <time>2022-02-03T08:03:22Z</time>
      </trkpt>
      <trkpt lat="45.78284" lon="6.46111">
        <ele>1306.64</ele>
        <time>2022-02-03T08:03:34Z</time>
      </trkpt>
      <trkpt lat="45.78283" lon="6.46102">
        <ele>1308.24</ele>
        <time>2022-02-03T08:03:45Z</time>
      </trkpt>
      <trkpt lat="45.78283" lon="6.46092">
        <ele>1310.91</ele>
        <time>2022-02-03T08:03:59Z</time>
      </trkpt>
      <trkpt lat="45.78284" lon="6.46085">
        <ele>1313.08</ele>
        <time>2022-02-03T08:04:12Z</time>
      </trkpt>
      <trkpt lat="45.78284" lon="6.46079">
        <ele>1315.47</ele>
        <time>2022-02-03T08:04:26Z</time>
      </trkpt>
      <trkpt lat="45.78286" lon="6.46076">
        <ele>1316.26</ele>
        <time>2022-02-03T08:04:47Z</time>
      </trkpt>
      <trkpt lat="45.78292" lon="6.46076">
        <ele>1318.85</ele>
        <time>2022-02-03T08:05:03Z</time>
      </trkpt>
      <trkpt lat="45.78297" lon="6.4607">
        <ele>1320.83</ele>
        <time>2022-02-03T08:05:19Z</time>
      </trkpt>
      <trkpt lat="45.78299" lon="6.46065">
        <ele>1322.73</ele>
        <time>2022-02-03T08:05:32Z</time>
      </trkpt>
      <trkpt lat="45.78299" lon="6.46065">
        <ele>1323.16</ele>
        <time>2022-02-03T08:05:58Z</time>
      </trkpt>
      <trkpt lat="45.78305" lon="6.46061">
        <ele>1326.18</ele>
        <time>2022-02-03T08:06:11Z</time>
      </trkpt>
      <trkpt lat="45.7831" lon="6.46055">
        <ele>1328.84</ele>
        <time>2022-02-03T08:06:23Z</time>
      </trkpt>
      <trkpt lat="45.78313" lon="6.46048">
        <ele>1330.58</ele>
        <time>2022-02-03T08:06:34Z</time>
      </trkpt>
      <trkpt lat="45.78317" lon="6.46043">
        <ele>1333.42</ele>
        <time>2022-02-03T08:06:48Z</time>
      </trkpt>
      <trkpt lat="45.78322" lon="6.4604">
        <ele>1335.96</ele>
        <time>2022-02-03T08:07:03Z</time>
      </trkpt>
      <trkpt lat="45.78325" lon="6.46039">
        <ele>1337.34</ele>
        <time>2022-02-03T08:07:20Z</time>
      </trkpt>
      <trkpt lat="45.78326" lon="6.46038">
        <ele>1337.31</ele>
        <time>2022-02-03T08:07:41Z</time>
      </trkpt>
      <trkpt lat="45.78326" lon="6.46038">
        <ele>1337.38</ele>
        <time>2022-02-03T08:08:05Z</time>
      </trkpt>
      <trkpt lat="45.78327" lon="6.46038">
        <ele>1337.59</ele>
        <time>2022-02-03T08:08:29Z</time>
      </trkpt>
      <trkpt lat="45.7833" lon="6.46039">
        <ele>1338.53</ele>
        <time>2022-02-03T08:08:50Z</time>
      </trkpt>
      <trkpt lat="45.78337" lon="6.4604">
        <ele>1341.47</ele>
        <time>2022-02-03T08:09:06Z</time>
      </trkpt>
      <trkpt lat="45.78343" lon="6.46039">
        <ele>1342.87</ele>
        <time>2022-02-03T08:09:17Z</time>
      </trkpt>
      <trkpt lat="45.78352" lon="6.4604">
        <ele>1345.24</ele>
        <time>2022-02-03T08:09:33Z</time>
      </trkpt>
      <trkpt lat="45.78358" lon="6.4604">
        <ele>1346.14</ele>
        <time>2022-02-03T08:09:48Z</time>
      </trkpt>
      <trkpt lat="45.78366" lon="6.46043">
        <ele>1348.49</ele>
        <time>2022-02-03T08:10:05Z</time>
      </trkpt>
      <trkpt lat="45.78375" lon="6.46045">
        <ele>1349.67</ele>
        <time>2022-02-03T08:10:19Z</time>
      </trkpt>
      <trkpt lat="45.78384" lon="6.46051">
        <ele>1350.95</ele>
        <time>2022-02-03T08:10:34Z</time>
      </trkpt>
      <trkpt lat="45.78391" lon="6.46054">
        <ele>1352.38</ele>
        <time>2022-02-03T08:10:46Z</time>
      </trkpt>
      <trkpt lat="45.78398" lon="6.46059">
        <ele>1354.11</ele>
        <time>2022-02-03T08:11:00Z</time>
      </trkpt>
      <trkpt lat="45.78405" lon="6.46062">
        <ele>1357.23</ele>
        <time>2022-02-03T08:11:13Z</time>
      </trkpt>
      <trkpt lat="45.78413" lon="6.46067">
        <ele>1359.95</ele>
        <time>2022-02-03T08:11:28Z</time>
      </trkpt>
      <trkpt lat="45.78418" lon="6.4607">
        <ele>1361.79</ele>
        <time>2022-02-03T08:11:39Z</time>
      </trkpt>
      <trkpt lat="45.78423" lon="6.46075">
        <ele>1363.33</ele>
        <time>2022-02-03T08:11:57Z</time>
      </trkpt>
      <trkpt lat="45.78428" lon="6.4608">
        <ele>1364.62</ele>
        <time>2022-02-03T08:12:18Z</time>
      </trkpt>
      <trkpt lat="45.78432" lon="6.46087">
        <ele>1367.07</ele>
        <time>2022-02-03T08:12:32Z</time>
      </trkpt>
      <trkpt lat="45.78434" lon="6.46089">
        <ele>1368.09</ele>
        <time>2022-02-03T08:12:53Z</time>
      </trkpt>
      <trkpt lat="45.78439" lon="6.46095">
        <ele>1369.91</ele>
        <time>2022-02-03T08:13:05Z</time>
      </trkpt>
      <trkpt lat="45.78446" lon="6.46103">
        <ele>1372.92</ele>
        <time>2022-02-03T08:13:20Z</time>
      </trkpt>
      <trkpt lat="45.78451" lon="6.4611">
        <ele>1375.43</ele>
        <time>2022-02-03T08:13:35Z</time>
      </trkpt>
      <trkpt lat="45.78458" lon="6.46113">
        <ele>1377.98</ele>
        <time>2022-02-03T08:13:48Z</time>
      </trkpt>
      <trkpt lat="45.78464" lon="6.46121">
        <ele>1380.34</ele>
        <time>2022-02-03T08:14:02Z</time>
      </trkpt>
      <trkpt lat="45.78471" lon="6.46127">
        <ele>1382.16</ele>
        <time>2022-02-03T08:14:16Z</time>
      </trkpt>
      <trkpt lat="45.78475" lon="6.46131">
        <ele>1384.83</ele>
        <time>2022-02-03T08:14:33Z</time>
      </trkpt>
      <trkpt lat="45.78474" lon="6.46139">
        <ele>1387.42</ele>
        <time>2022-02-03T08:14:50Z</time>
      </trkpt>
      <trkpt lat="45.78479" lon="6.46143">
        <ele>1388.78</ele>
        <time>2022-02-03T08:15:05Z</time>
      </trkpt>
      <trkpt lat="45.78487" lon="6.46149">
        <ele>1390.54</ele>
        <time>2022-02-03T08:15:23Z</time>
      </trkpt>
      <trkpt lat="45.78495" lon="6.46154">
        <ele>1392.16</ele>
        <time>2022-02-03T08:15:40Z</time>
      </trkpt>
      <trkpt lat="45.78502" lon="6.46157">
        <ele>1393.79</ele>
        <time>2022-02-03T08:15:56Z</time>
      </trkpt>
      <trkpt lat="45.78509" lon="6.46162">
        <ele>1394.97</ele>
        <time>2022-02-03T08:16:10Z</time>
      </trkpt>
      <trkpt lat="45.78517" lon="6.46167">
        <ele>1396.63</ele>
        <time>2022-02-03T08:16:22Z</time>
      </trkpt>
      <trkpt lat="45.78525" lon="6.46169">
        <ele>1398.05</ele>
        <time>2022-02-03T08:16:36Z</time>
      </trkpt>
      <trkpt lat="45.78531" lon="6.46173">
        <ele>1399.98</ele>
        <time>2022-02-03T08:16:50Z</time>
      </trkpt>
      <trkpt lat="45.78536" lon="6.46175">
        <ele>1401.35</ele>
        <time>2022-02-03T08:17:03Z</time>
      </trkpt>
      <trkpt lat="45.78542" lon="6.46175">
        <ele>1402.43</ele>
        <time>2022-02-03T08:17:17Z</time>
      </trkpt>
      <trkpt lat="45.78547" lon="6.46176">
        <ele>1403.62</ele>
        <time>2022-02-03T08:17:33Z</time>
      </trkpt>
      <trkpt lat="45.78555" lon="6.46176">
        <ele>1404.82</ele>
        <time>2022-02-03T08:17:54Z</time>
      </trkpt>
      <trkpt lat="45.7856" lon="6.46178">
        <ele>1405.86</ele>
        <time>2022-02-03T08:18:02Z</time>
      </trkpt>
      <trkpt lat="45.7857" lon="6.46181">
        <ele>1407.17</ele>
        <time>2022-02-03T08:18:16Z</time>
      </trkpt>
      <trkpt lat="45.78575" lon="6.46184">
        <ele>1408.95</ele>
        <time>2022-02-03T08:18:31Z</time>
      </trkpt>
      <trkpt lat="45.78575" lon="6.46178">
        <ele>1408.7</ele>
        <time>2022-02-03T08:18:55Z</time>
      </trkpt>
      <trkpt lat="45.78574" lon="6.46177">
        <ele>1409</ele>
        <time>2022-02-03T08:19:22Z</time>
      </trkpt>
      <trkpt lat="45.78574" lon="6.4618">
        <ele>1408.76</ele>
        <time>2022-02-03T08:19:44Z</time>
      </trkpt>
      <trkpt lat="45.7858" lon="6.46184">
        <ele>1409.65</ele>
        <time>2022-02-03T08:19:59Z</time>
      </trkpt>
      <trkpt lat="45.78591" lon="6.46183">
        <ele>1410.63</ele>
        <time>2022-02-03T08:20:13Z</time>
      </trkpt>
      <trkpt lat="45.78601" lon="6.46181">
        <ele>1412.23</ele>
        <time>2022-02-03T08:20:29Z</time>
      </trkpt>
      <trkpt lat="45.7861" lon="6.46176">
        <ele>1413.56</ele>
        <time>2022-02-03T08:20:46Z</time>
      </trkpt>
      <trkpt lat="45.78609" lon="6.46172">
        <ele>1413.28</ele>
        <time>2022-02-03T08:21:13Z</time>
      </trkpt>
      <trkpt lat="45.78608" lon="6.46172">
        <ele>1412.72</ele>
        <time>2022-02-03T08:21:33Z</time>
      </trkpt>
      <trkpt lat="45.78609" lon="6.46173">
        <ele>1412.96</ele>
        <time>2022-02-03T08:21:50Z</time>
      </trkpt>
      <trkpt lat="45.78609" lon="6.46173">
        <ele>1412.62</ele>
        <time>2022-02-03T08:22:18Z</time>
      </trkpt>
      <trkpt lat="45.78609" lon="6.46173">
        <ele>1412.88</ele>
        <time>2022-02-03T08:22:45Z</time>
      </trkpt>
      <trkpt lat="45.78611" lon="6.46177">
        <ele>1412.87</ele>
        <time>2022-02-03T08:23:09Z</time>
      </trkpt>
      <trkpt lat="45.78611" lon="6.46177">
        <ele>1412.23</ele>
        <time>2022-02-03T08:23:27Z</time>
      </trkpt>
      <trkpt lat="45.78611" lon="6.46172">
        <ele>1412.35</ele>
        <time>2022-02-03T08:23:55Z</time>
      </trkpt>
      <trkpt lat="45.78613" lon="6.46175">
        <ele>1412.45</ele>
        <time>2022-02-03T08:24:20Z</time>
      </trkpt>
      <trkpt lat="45.78616" lon="6.46169">
        <ele>1414.84</ele>
        <time>2022-02-03T08:24:42Z</time>
      </trkpt>
      <trkpt lat="45.78624" lon="6.4616">
        <ele>1417.28</ele>
        <time>2022-02-03T08:24:59Z</time>
      </trkpt>
      <trkpt lat="45.78628" lon="6.46153">
        <ele>1419.36</ele>
        <time>2022-02-03T08:25:13Z</time>
      </trkpt>
      <trkpt lat="45.78638" lon="6.46146">
        <ele>1422.45</ele>
        <time>2022-02-03T08:25:32Z</time>
      </trkpt>
      <trkpt lat="45.78642" lon="6.46146">
        <ele>1422.59</ele>
        <time>2022-02-03T08:25:38Z</time>
      </trkpt>
      <trkpt lat="45.78647" lon="6.46145">
        <ele>1424.81</ele>
        <time>2022-02-03T08:25:52Z</time>
      </trkpt>
      <trkpt lat="45.78654" lon="6.46143">
        <ele>1426.1</ele>
        <time>2022-02-03T08:26:11Z</time>
      </trkpt>
      <trkpt lat="45.78665" lon="6.46139">
        <ele>1428.33</ele>
        <time>2022-02-03T08:26:31Z</time>
      </trkpt>
      <trkpt lat="45.78672" lon="6.46144">
        <ele>1429.79</ele>
        <time>2022-02-03T08:26:47Z</time>
      </trkpt>
      <trkpt lat="45.78681" lon="6.46144">
        <ele>1431.96</ele>
        <time>2022-02-03T08:27:08Z</time>
      </trkpt>
      <trkpt lat="45.78687" lon="6.46145">
        <ele>1432.94</ele>
        <time>2022-02-03T08:27:17Z</time>
      </trkpt>
      <trkpt lat="45.787" lon="6.46145">
        <ele>1435.21</ele>
        <time>2022-02-03T08:27:37Z</time>
      </trkpt>
      <trkpt lat="45.78708" lon="6.46148">
        <ele>1436.7</ele>
        <time>2022-02-03T08:27:50Z</time>
      </trkpt>
      <trkpt lat="45.78713" lon="6.46142">
        <ele>1437.04</ele>
        <time>2022-02-03T08:27:56Z</time>
      </trkpt>
      <trkpt lat="45.78722" lon="6.46141">
        <ele>1438.77</ele>
        <time>2022-02-03T08:28:17Z</time>
      </trkpt>
      <trkpt lat="45.78728" lon="6.46156">
        <ele>1440</ele>
        <time>2022-02-03T08:28:35Z</time>
      </trkpt>
      <trkpt lat="45.78738" lon="6.46162">
        <ele>1440.95</ele>
        <time>2022-02-03T08:28:54Z</time>
      </trkpt>
      <trkpt lat="45.78745" lon="6.46169">
        <ele>1442.08</ele>
        <time>2022-02-03T08:29:11Z</time>
      </trkpt>
      <trkpt lat="45.78747" lon="6.4617">
        <ele>1442.49</ele>
        <time>2022-02-03T08:29:14Z</time>
      </trkpt>
      <trkpt lat="45.78757" lon="6.46178">
        <ele>1443.43</ele>
        <time>2022-02-03T08:29:31Z</time>
      </trkpt>
      <trkpt lat="45.78766" lon="6.46191">
        <ele>1444.41</ele>
        <time>2022-02-03T08:29:46Z</time>
      </trkpt>
      <trkpt lat="45.78777" lon="6.46197">
        <ele>1445.25</ele>
        <time>2022-02-03T08:30:06Z</time>
      </trkpt>
      <trkpt lat="45.78785" lon="6.46196">
        <ele>1445.68</ele>
        <time>2022-02-03T08:30:24Z</time>
      </trkpt>
      <trkpt lat="45.78793" lon="6.46202">
        <ele>1446.79</ele>
        <time>2022-02-03T08:30:42Z</time>
      </trkpt>
      <trkpt lat="45.78802" lon="6.46205">
        <ele>1448.16</ele>
        <time>2022-02-03T08:30:59Z</time>
      </trkpt>
      <trkpt lat="45.78812" lon="6.46205">
        <ele>1449.68</ele>
        <time>2022-02-03T08:31:17Z</time>
      </trkpt>
      <trkpt lat="45.78825" lon="6.46203">
        <ele>1452.17</ele>
        <time>2022-02-03T08:31:35Z</time>
      </trkpt>
      <trkpt lat="45.78833" lon="6.46198">
        <ele>1453.08</ele>
        <time>2022-02-03T08:31:49Z</time>
      </trkpt>
      <trkpt lat="45.78843" lon="6.46195">
        <ele>1454.22</ele>
        <time>2022-02-03T08:32:09Z</time>
      </trkpt>
      <trkpt lat="45.78852" lon="6.46197">
        <ele>1456.47</ele>
        <time>2022-02-03T08:32:26Z</time>
      </trkpt>
      <trkpt lat="45.78861" lon="6.46193">
        <ele>1458.5</ele>
        <time>2022-02-03T08:32:43Z</time>
      </trkpt>
      <trkpt lat="45.78872" lon="6.46189">
        <ele>1458.91</ele>
        <time>2022-02-03T08:33:04Z</time>
      </trkpt>
      <trkpt lat="45.78881" lon="6.4619">
        <ele>1460.84</ele>
        <time>2022-02-03T08:33:25Z</time>
      </trkpt>
      <trkpt lat="45.78889" lon="6.46191">
        <ele>1462.63</ele>
        <time>2022-02-03T08:33:39Z</time>
      </trkpt>
      <trkpt lat="45.78899" lon="6.46188">
        <ele>1464.9</ele>
        <time>2022-02-03T08:33:58Z</time>
      </trkpt>
      <trkpt lat="45.78903" lon="6.46189">
        <ele>1465.46</ele>
        <time>2022-02-03T08:34:19Z</time>
      </trkpt>
      <trkpt lat="45.78906" lon="6.46178">
        <ele>1465.73</ele>
        <time>2022-02-03T08:34:49Z</time>
      </trkpt>
      <trkpt lat="45.78913" lon="6.46175">
        <ele>1466.94</ele>
        <time>2022-02-03T08:35:23Z</time>
      </trkpt>
      <trkpt lat="45.7892" lon="6.46176">
        <ele>1469.28</ele>
        <time>2022-02-03T08:35:40Z</time>
      </trkpt>
      <trkpt lat="45.7893" lon="6.46175">
        <ele>1471.61</ele>
        <time>2022-02-03T08:35:57Z</time>
      </trkpt>
      <trkpt lat="45.78937" lon="6.46168">
        <ele>1471.81</ele>
        <time>2022-02-03T08:36:21Z</time>
      </trkpt>
      <trkpt lat="45.78939" lon="6.46166">
        <ele>1472.27</ele>
        <time>2022-02-03T08:36:50Z</time>
      </trkpt>
      <trkpt lat="45.78944" lon="6.46151">
        <ele>1473.15</ele>
        <time>2022-02-03T08:37:12Z</time>
      </trkpt>
      <trkpt lat="45.78946" lon="6.4614">
        <ele>1473.84</ele>
        <time>2022-02-03T08:37:31Z</time>
      </trkpt>
      <trkpt lat="45.7895" lon="6.46123">
        <ele>1474.44</ele>
        <time>2022-02-03T08:37:59Z</time>
      </trkpt>
      <trkpt lat="45.78956" lon="6.46105">
        <ele>1476.5</ele>
        <time>2022-02-03T08:38:20Z</time>
      </trkpt>
      <trkpt lat="45.78961" lon="6.46091">
        <ele>1477.63</ele>
        <time>2022-02-03T08:38:36Z</time>
      </trkpt>
      <trkpt lat="45.78962" lon="6.46081">
        <ele>1478.26</ele>
        <time>2022-02-03T08:38:58Z</time>
      </trkpt>
      <trkpt lat="45.7897" lon="6.46072">
        <ele>1479.39</ele>
        <time>2022-02-03T08:39:18Z</time>
      </trkpt>
      <trkpt lat="45.78978" lon="6.46064">
        <ele>1479.66</ele>
        <time>2022-02-03T08:39:35Z</time>
      </trkpt>
      <trkpt lat="45.7899" lon="6.46052">
        <ele>1480.42</ele>
        <time>2022-02-03T08:39:54Z</time>
      </trkpt>
      <trkpt lat="45.79001" lon="6.46038">
        <ele>1480.64</ele>
        <time>2022-02-03T08:40:13Z</time>
      </trkpt>
      <trkpt lat="45.79009" lon="6.46033">
        <ele>1481.35</ele>
        <time>2022-02-03T08:40:32Z</time>
      </trkpt>
      <trkpt lat="45.79013" lon="6.46022">
        <ele>1481.31</ele>
        <time>2022-02-03T08:40:50Z</time>
      </trkpt>
      <trkpt lat="45.79015" lon="6.46003">
        <ele>1481.7</ele>
        <time>2022-02-03T08:41:10Z</time>
      </trkpt>
      <trkpt lat="45.79016" lon="6.45985">
        <ele>1484</ele>
        <time>2022-02-03T08:41:31Z</time>
      </trkpt>
      <trkpt lat="45.79018" lon="6.45953">
        <ele>1485.84</ele>
        <time>2022-02-03T08:41:51Z</time>
      </trkpt>
      <trkpt lat="45.79021" lon="6.45928">
        <ele>1486.54</ele>
        <time>2022-02-03T08:42:10Z</time>
      </trkpt>
      <trkpt lat="45.79025" lon="6.45902">
        <ele>1487.37</ele>
        <time>2022-02-03T08:42:34Z</time>
      </trkpt>
      <trkpt lat="45.79029" lon="6.45891">
        <ele>1488.45</ele>
        <time>2022-02-03T08:42:49Z</time>
      </trkpt>
      <trkpt lat="45.79026" lon="6.45866">
        <ele>1488.94</ele>
        <time>2022-02-03T08:43:08Z</time>
      </trkpt>
      <trkpt lat="45.79025" lon="6.4584">
        <ele>1489.99</ele>
        <time>2022-02-03T08:43:29Z</time>
      </trkpt>
      <trkpt lat="45.79022" lon="6.45816">
        <ele>1491.36</ele>
        <time>2022-02-03T08:43:49Z</time>
      </trkpt>
      <trkpt lat="45.79017" lon="6.45794">
        <ele>1492.5</ele>
        <time>2022-02-03T08:44:06Z</time>
      </trkpt>
      <trkpt lat="45.79013" lon="6.45765">
        <ele>1494.6</ele>
        <time>2022-02-03T08:44:27Z</time>
      </trkpt>
      <trkpt lat="45.79005" lon="6.45745">
        <ele>1496.53</ele>
        <time>2022-02-03T08:44:46Z</time>
      </trkpt>
      <trkpt lat="45.79001" lon="6.45732">
        <ele>1496.79</ele>
        <time>2022-02-03T08:45:01Z</time>
      </trkpt>
      <trkpt lat="45.79001" lon="6.45716">
        <ele>1497.1</ele>
        <time>2022-02-03T08:45:20Z</time>
      </trkpt>
      <trkpt lat="45.79004" lon="6.45698">
        <ele>1496.46</ele>
        <time>2022-02-03T08:45:37Z</time>
      </trkpt>
      <trkpt lat="45.79008" lon="6.45685">
        <ele>1496.03</ele>
        <time>2022-02-03T08:45:52Z</time>
      </trkpt>
      <trkpt lat="45.79014" lon="6.45667">
        <ele>1495.79</ele>
        <time>2022-02-03T08:46:09Z</time>
      </trkpt>
      <trkpt lat="45.79019" lon="6.4564">
        <ele>1496.76</ele>
        <time>2022-02-03T08:46:28Z</time>
      </trkpt>
      <trkpt lat="45.79019" lon="6.45614">
        <ele>1497.12</ele>
        <time>2022-02-03T08:46:49Z</time>
      </trkpt>
      <trkpt lat="45.79024" lon="6.45602">
        <ele>1497.71</ele>
        <time>2022-02-03T08:46:57Z</time>
      </trkpt>
      <trkpt lat="45.79033" lon="6.45574">
        <ele>1498.9</ele>
        <time>2022-02-03T08:47:15Z</time>
      </trkpt>
      <trkpt lat="45.79036" lon="6.45556">
        <ele>1499.32</ele>
        <time>2022-02-03T08:47:29Z</time>
      </trkpt>
      <trkpt lat="45.7904" lon="6.45542">
        <ele>1498.69</ele>
        <time>2022-02-03T08:47:43Z</time>
      </trkpt>
      <trkpt lat="45.7905" lon="6.45533">
        <ele>1497.18</ele>
        <time>2022-02-03T08:48:01Z</time>
      </trkpt>
      <trkpt lat="45.7906" lon="6.45526">
        <ele>1495.4</ele>
        <time>2022-02-03T08:48:18Z</time>
      </trkpt>
      <trkpt lat="45.79068" lon="6.45521">
        <ele>1493.51</ele>
        <time>2022-02-03T08:48:28Z</time>
      </trkpt>
      <trkpt lat="45.79076" lon="6.45513">
        <ele>1492.18</ele>
        <time>2022-02-03T08:48:39Z</time>
      </trkpt>
      <trkpt lat="45.7908" lon="6.4551">
        <ele>1491.51</ele>
        <time>2022-02-03T08:48:44Z</time>
      </trkpt>
      <trkpt lat="45.79082" lon="6.45508">
        <ele>1491.21</ele>
        <time>2022-02-03T08:48:46Z</time>
      </trkpt>
      <trkpt lat="45.79087" lon="6.45505">
        <ele>1490.72</ele>
        <time>2022-02-03T08:48:52Z</time>
      </trkpt>
      <trkpt lat="45.79091" lon="6.45503">
        <ele>1490.18</ele>
        <time>2022-02-03T08:48:55Z</time>
      </trkpt>
      <trkpt lat="45.79096" lon="6.45501">
        <ele>1489.45</ele>
        <time>2022-02-03T08:49:02Z</time>
      </trkpt>
      <trkpt lat="45.79101" lon="6.45495">
        <ele>1488.77</ele>
        <time>2022-02-03T08:49:09Z</time>
      </trkpt>
      <trkpt lat="45.79103" lon="6.45494">
        <ele>1488.78</ele>
        <time>2022-02-03T08:49:11Z</time>
      </trkpt>
      <trkpt lat="45.7911" lon="6.45485">
        <ele>1488.38</ele>
        <time>2022-02-03T08:49:24Z</time>
      </trkpt>
      <trkpt lat="45.79117" lon="6.45477">
        <ele>1488.37</ele>
        <time>2022-02-03T08:49:39Z</time>
      </trkpt>
      <trkpt lat="45.79122" lon="6.45474">
        <ele>1488.11</ele>
        <time>2022-02-03T08:50:11Z</time>
      </trkpt>
      <trkpt lat="45.79123" lon="6.45473">
        <ele>1474.74</ele>
        <time>2022-02-03T08:50:24Z</time>
      </trkpt>
      <trkpt lat="45.79123" lon="6.45473">
        <ele>1500.49</ele>
        <time>2022-02-03T08:50:25Z</time>
      </trkpt>
      <trkpt lat="45.79123" lon="6.45473">
        <ele>1489.13</ele>
        <time>2022-02-03T08:50:26Z</time>
      </trkpt>
      <trkpt lat="45.79123" lon="6.45473">
        <ele>1488.1</ele>
        <time>2022-02-03T08:50:28Z</time>
      </trkpt>
      <trkpt lat="45.79123" lon="6.45473">
        <ele>1488.22</ele>
        <time>2022-02-03T08:50:54Z</time>
      </trkpt>
      <trkpt lat="45.79123" lon="6.45472">
        <ele>1488.01</ele>
        <time>2022-02-03T08:51:32Z</time>
      </trkpt>
      <trkpt lat="45.79129" lon="6.45467">
        <ele>1488.17</ele>
        <time>2022-02-03T08:51:40Z</time>
      </trkpt>
      <trkpt lat="45.79138" lon="6.45462">
        <ele>1488.11</ele>
        <time>2022-02-03T08:51:52Z</time>
      </trkpt>
      <trkpt lat="45.79142" lon="6.45462">
        <ele>1487.94</ele>
        <time>2022-02-03T08:52:09Z</time>
      </trkpt>
      <trkpt lat="45.79144" lon="6.45461">
        <ele>1488.17</ele>
        <time>2022-02-03T08:52:12Z</time>
      </trkpt>
      <trkpt lat="45.79148" lon="6.45457">
        <ele>1488.43</ele>
        <time>2022-02-03T08:52:20Z</time>
      </trkpt>
      <trkpt lat="45.79155" lon="6.45454">
        <ele>1488.1</ele>
        <time>2022-02-03T08:52:28Z</time>
      </trkpt>
      <trkpt lat="45.79158" lon="6.45451">
        <ele>1488.25</ele>
        <time>2022-02-03T08:52:31Z</time>
      </trkpt>
      <trkpt lat="45.79161" lon="6.45445">
        <ele>1488.27</ele>
        <time>2022-02-03T08:52:36Z</time>
      </trkpt>
      <trkpt lat="45.79168" lon="6.45432">
        <ele>1487.16</ele>
        <time>2022-02-03T08:52:46Z</time>
      </trkpt>
      <trkpt lat="45.79173" lon="6.45425">
        <ele>1486.14</ele>
        <time>2022-02-03T08:52:54Z</time>
      </trkpt>
      <trkpt lat="45.79176" lon="6.45417">
        <ele>1485.83</ele>
        <time>2022-02-03T08:53:00Z</time>
      </trkpt>
      <trkpt lat="45.79179" lon="6.45413">
        <ele>1485.5</ele>
        <time>2022-02-03T08:53:05Z</time>
      </trkpt>
      <trkpt lat="45.79184" lon="6.45408">
        <ele>1484.73</ele>
        <time>2022-02-03T08:53:14Z</time>
      </trkpt>
      <trkpt lat="45.79186" lon="6.45407">
        <ele>1484.84</ele>
        <time>2022-02-03T08:53:16Z</time>
      </trkpt>
      <trkpt lat="45.79195" lon="6.45403">
        <ele>1483.98</ele>
        <time>2022-02-03T08:53:28Z</time>
      </trkpt>
      <trkpt lat="45.79197" lon="6.45403">
        <ele>1483.83</ele>
        <time>2022-02-03T08:53:31Z</time>
      </trkpt>
      <trkpt lat="45.79199" lon="6.45403">
        <ele>1483.89</ele>
        <time>2022-02-03T08:53:33Z</time>
      </trkpt>
      <trkpt lat="45.79205" lon="6.454">
        <ele>1484.3</ele>
        <time>2022-02-03T08:53:40Z</time>
      </trkpt>
      <trkpt lat="45.79211" lon="6.45394">
        <ele>1483.84</ele>
        <time>2022-02-03T08:53:51Z</time>
      </trkpt>
      <trkpt lat="45.79216" lon="6.4539">
        <ele>1483.49</ele>
        <time>2022-02-03T08:54:00Z</time>
      </trkpt>
      <trkpt lat="45.79217" lon="6.45387">
        <ele>1483.48</ele>
        <time>2022-02-03T08:54:02Z</time>
      </trkpt>
      <trkpt lat="45.79224" lon="6.45377">
        <ele>1483.77</ele>
        <time>2022-02-03T08:54:15Z</time>
      </trkpt>
      <trkpt lat="45.7923" lon="6.45377">
        <ele>1483.4</ele>
        <time>2022-02-03T08:54:21Z</time>
      </trkpt>
      <trkpt lat="45.79237" lon="6.45379">
        <ele>1482.37</ele>
        <time>2022-02-03T08:54:29Z</time>
      </trkpt>
      <trkpt lat="45.79242" lon="6.45376">
        <ele>1481.79</ele>
        <time>2022-02-03T08:54:34Z</time>
      </trkpt>
      <trkpt lat="45.79247" lon="6.4537">
        <ele>1481.65</ele>
        <time>2022-02-03T08:54:41Z</time>
      </trkpt>
      <trkpt lat="45.79253" lon="6.45359">
        <ele>1481.37</ele>
        <time>2022-02-03T08:54:52Z</time>
      </trkpt>
      <trkpt lat="45.79255" lon="6.45352">
        <ele>1481.21</ele>
        <time>2022-02-03T08:54:57Z</time>
      </trkpt>
      <trkpt lat="45.79258" lon="6.45341">
        <ele>1480.75</ele>
        <time>2022-02-03T08:55:06Z</time>
      </trkpt>
      <trkpt lat="45.79263" lon="6.45322">
        <ele>1480.16</ele>
        <time>2022-02-03T08:55:20Z</time>
      </trkpt>
      <trkpt lat="45.79265" lon="6.45311">
        <ele>1479.79</ele>
        <time>2022-02-03T08:55:29Z</time>
      </trkpt>
      <trkpt lat="45.79269" lon="6.45298">
        <ele>1479.46</ele>
        <time>2022-02-03T08:55:40Z</time>
      </trkpt>
      <trkpt lat="45.7927" lon="6.45294">
        <ele>1479.69</ele>
        <time>2022-02-03T08:55:43Z</time>
      </trkpt>
      <trkpt lat="45.79272" lon="6.45287">
        <ele>1479.08</ele>
        <time>2022-02-03T08:55:50Z</time>
      </trkpt>
      <trkpt lat="45.79275" lon="6.45275">
        <ele>1479.02</ele>
        <time>2022-02-03T08:56:01Z</time>
      </trkpt>
      <trkpt lat="45.79278" lon="6.45259">
        <ele>1478.06</ele>
        <time>2022-02-03T08:56:14Z</time>
      </trkpt>
      <trkpt lat="45.79279" lon="6.45257">
        <ele>1477.78</ele>
        <time>2022-02-03T08:56:16Z</time>
      </trkpt>
      <trkpt lat="45.79279" lon="6.4525">
        <ele>1477.49</ele>
        <time>2022-02-03T08:56:22Z</time>
      </trkpt>
      <trkpt lat="45.79279" lon="6.45247">
        <ele>1477.43</ele>
        <time>2022-02-03T08:56:24Z</time>
      </trkpt>
      <trkpt lat="45.79279" lon="6.45243">
        <ele>1477.53</ele>
        <time>2022-02-03T08:56:27Z</time>
      </trkpt>
      <trkpt lat="45.79279" lon="6.45238">
        <ele>1477.51</ele>
        <time>2022-02-03T08:56:31Z</time>
      </trkpt>
      <trkpt lat="45.79279" lon="6.45226">
        <ele>1477.49</ele>
        <time>2022-02-03T08:56:40Z</time>
      </trkpt>
      <trkpt lat="45.7928" lon="6.4522">
        <ele>1477.28</ele>
        <time>2022-02-03T08:56:45Z</time>
      </trkpt>
      <trkpt lat="45.7928" lon="6.45216">
        <ele>1477.2</ele>
        <time>2022-02-03T08:56:48Z</time>
      </trkpt>
      <trkpt lat="45.7928" lon="6.45213">
        <ele>1477.29</ele>
        <time>2022-02-03T08:56:50Z</time>
      </trkpt>
      <trkpt lat="45.7928" lon="6.45209">
        <ele>1477.37</ele>
        <time>2022-02-03T08:56:53Z</time>
      </trkpt>
      <trkpt lat="45.7928" lon="6.45206">
        <ele>1477.31</ele>
        <time>2022-02-03T08:56:55Z</time>
      </trkpt>
      <trkpt lat="45.7928" lon="6.45202">
        <ele>1477.23</ele>
        <time>2022-02-03T08:56:58Z</time>
      </trkpt>
      <trkpt lat="45.79282" lon="6.45186">
        <ele>1477.16</ele>
        <time>2022-02-03T08:57:10Z</time>
      </trkpt>
      <trkpt lat="45.79284" lon="6.45172">
        <ele>1477.26</ele>
        <time>2022-02-03T08:57:21Z</time>
      </trkpt>
      <trkpt lat="45.79284" lon="6.4517">
        <ele>1477.2</ele>
        <time>2022-02-03T08:57:35Z</time>
      </trkpt>
      <trkpt lat="45.79285" lon="6.45168">
        <ele>1477.59</ele>
        <time>2022-02-03T08:57:58Z</time>
      </trkpt>
      <trkpt lat="45.79286" lon="6.45169">
        <ele>1477.11</ele>
        <time>2022-02-03T08:58:19Z</time>
      </trkpt>
      <trkpt lat="45.79287" lon="6.45163">
        <ele>1477.82</ele>
        <time>2022-02-03T08:58:31Z</time>
      </trkpt>
      <trkpt lat="45.79293" lon="6.45151">
        <ele>1478.81</ele>
        <time>2022-02-03T08:58:43Z</time>
      </trkpt>
      <trkpt lat="45.79299" lon="6.45142">
        <ele>1480.81</ele>
        <time>2022-02-03T08:58:55Z</time>
      </trkpt>
      <trkpt lat="45.79304" lon="6.45135">
        <ele>1482.4</ele>
        <time>2022-02-03T08:59:05Z</time>
      </trkpt>
      <trkpt lat="45.7931" lon="6.45128">
        <ele>1483.87</ele>
        <time>2022-02-03T08:59:15Z</time>
      </trkpt>
      <trkpt lat="45.79315" lon="6.45123">
        <ele>1484.79</ele>
        <time>2022-02-03T08:59:26Z</time>
      </trkpt>
      <trkpt lat="45.7932" lon="6.45117">
        <ele>1485.92</ele>
        <time>2022-02-03T08:59:36Z</time>
      </trkpt>
      <trkpt lat="45.79328" lon="6.4511">
        <ele>1487.34</ele>
        <time>2022-02-03T08:59:48Z</time>
      </trkpt>
      <trkpt lat="45.79334" lon="6.45106">
        <ele>1488.91</ele>
        <time>2022-02-03T08:59:59Z</time>
      </trkpt>
      <trkpt lat="45.7934" lon="6.45102">
        <ele>1489.68</ele>
        <time>2022-02-03T09:00:10Z</time>
      </trkpt>
      <trkpt lat="45.79344" lon="6.45097">
        <ele>1491.33</ele>
        <time>2022-02-03T09:00:23Z</time>
      </trkpt>
      <trkpt lat="45.79348" lon="6.45092">
        <ele>1493.18</ele>
        <time>2022-02-03T09:00:35Z</time>
      </trkpt>
      <trkpt lat="45.79351" lon="6.45086">
        <ele>1494.39</ele>
        <time>2022-02-03T09:00:54Z</time>
      </trkpt>
      <trkpt lat="45.79355" lon="6.45078">
        <ele>1496.18</ele>
        <time>2022-02-03T09:01:07Z</time>
      </trkpt>
      <trkpt lat="45.79357" lon="6.45071">
        <ele>1498.56</ele>
        <time>2022-02-03T09:01:20Z</time>
      </trkpt>
      <trkpt lat="45.79355" lon="6.45066">
        <ele>1498.92</ele>
        <time>2022-02-03T09:01:33Z</time>
      </trkpt>
      <trkpt lat="45.79354" lon="6.45067">
        <ele>1498.95</ele>
        <time>2022-02-03T09:01:58Z</time>
      </trkpt>
      <trkpt lat="45.79354" lon="6.45063">
        <ele>1499.83</ele>
        <time>2022-02-03T09:02:14Z</time>
      </trkpt>
      <trkpt lat="45.7935" lon="6.45055">
        <ele>1501.39</ele>
        <time>2022-02-03T09:02:28Z</time>
      </trkpt>
      <trkpt lat="45.79345" lon="6.45048">
        <ele>1501.1</ele>
        <time>2022-02-03T09:02:40Z</time>
      </trkpt>
      <trkpt lat="45.79341" lon="6.45037">
        <ele>1503.39</ele>
        <time>2022-02-03T09:02:57Z</time>
      </trkpt>
      <trkpt lat="45.7934" lon="6.45031">
        <ele>1504.97</ele>
        <time>2022-02-03T09:03:14Z</time>
      </trkpt>
      <trkpt lat="45.79338" lon="6.45025">
        <ele>1506.64</ele>
        <time>2022-02-03T09:03:30Z</time>
      </trkpt>
      <trkpt lat="45.79337" lon="6.45017">
        <ele>1508.45</ele>
        <time>2022-02-03T09:03:46Z</time>
      </trkpt>
      <trkpt lat="45.79336" lon="6.45009">
        <ele>1509.28</ele>
        <time>2022-02-03T09:04:01Z</time>
      </trkpt>
      <trkpt lat="45.79336" lon="6.45003">
        <ele>1510.36</ele>
        <time>2022-02-03T09:04:15Z</time>
      </trkpt>
      <trkpt lat="45.79333" lon="6.44995">
        <ele>1511.83</ele>
        <time>2022-02-03T09:04:31Z</time>
      </trkpt>
      <trkpt lat="45.79331" lon="6.44988">
        <ele>1513.43</ele>
        <time>2022-02-03T09:04:46Z</time>
      </trkpt>
      <trkpt lat="45.79331" lon="6.44984">
        <ele>1514.08</ele>
        <time>2022-02-03T09:05:03Z</time>
      </trkpt>
      <trkpt lat="45.79332" lon="6.44983">
        <ele>1514.55</ele>
        <time>2022-02-03T09:05:22Z</time>
      </trkpt>
      <trkpt lat="45.79336" lon="6.44987">
        <ele>1516.19</ele>
        <time>2022-02-03T09:05:37Z</time>
      </trkpt>
      <trkpt lat="45.79337" lon="6.44988">
        <ele>1517.75</ele>
        <time>2022-02-03T09:05:53Z</time>
      </trkpt>
      <trkpt lat="45.79342" lon="6.44992">
        <ele>1519.76</ele>
        <time>2022-02-03T09:06:11Z</time>
      </trkpt>
      <trkpt lat="45.79344" lon="6.44992">
        <ele>1520.17</ele>
        <time>2022-02-03T09:06:16Z</time>
      </trkpt>
      <trkpt lat="45.79355" lon="6.44993">
        <ele>1521.17</ele>
        <time>2022-02-03T09:06:33Z</time>
      </trkpt>
      <trkpt lat="45.79359" lon="6.44989">
        <ele>1522.02</ele>
        <time>2022-02-03T09:06:50Z</time>
      </trkpt>
      <trkpt lat="45.79354" lon="6.4498">
        <ele>1523.7</ele>
        <time>2022-02-03T09:07:06Z</time>
      </trkpt>
      <trkpt lat="45.79354" lon="6.44971">
        <ele>1526.23</ele>
        <time>2022-02-03T09:07:20Z</time>
      </trkpt>
      <trkpt lat="45.79352" lon="6.44963">
        <ele>1528</ele>
        <time>2022-02-03T09:07:36Z</time>
      </trkpt>
      <trkpt lat="45.79352" lon="6.44967">
        <ele>1527.33</ele>
        <time>2022-02-03T09:08:00Z</time>
      </trkpt>
      <trkpt lat="45.79354" lon="6.44966">
        <ele>1527.38</ele>
        <time>2022-02-03T09:08:22Z</time>
      </trkpt>
      <trkpt lat="45.79355" lon="6.44964">
        <ele>1527.75</ele>
        <time>2022-02-03T09:08:44Z</time>
      </trkpt>
      <trkpt lat="45.79352" lon="6.44955">
        <ele>1529.21</ele>
        <time>2022-02-03T09:08:59Z</time>
      </trkpt>
      <trkpt lat="45.79349" lon="6.44947">
        <ele>1530.2</ele>
        <time>2022-02-03T09:09:15Z</time>
      </trkpt>
      <trkpt lat="45.79347" lon="6.44933">
        <ele>1531.86</ele>
        <time>2022-02-03T09:09:32Z</time>
      </trkpt>
      <trkpt lat="45.79346" lon="6.44922">
        <ele>1533.55</ele>
        <time>2022-02-03T09:09:48Z</time>
      </trkpt>
      <trkpt lat="45.79348" lon="6.44907">
        <ele>1534.99</ele>
        <time>2022-02-03T09:10:05Z</time>
      </trkpt>
      <trkpt lat="45.79351" lon="6.44893">
        <ele>1537.18</ele>
        <time>2022-02-03T09:10:23Z</time>
      </trkpt>
      <trkpt lat="45.79349" lon="6.44886">
        <ele>1538.95</ele>
        <time>2022-02-03T09:10:38Z</time>
      </trkpt>
      <trkpt lat="45.79355" lon="6.44881">
        <ele>1541.07</ele>
        <time>2022-02-03T09:10:55Z</time>
      </trkpt>
      <trkpt lat="45.79356" lon="6.44887">
        <ele>1543.05</ele>
        <time>2022-02-03T09:11:09Z</time>
      </trkpt>
      <trkpt lat="45.79359" lon="6.44895">
        <ele>1544.45</ele>
        <time>2022-02-03T09:11:24Z</time>
      </trkpt>
      <trkpt lat="45.79365" lon="6.44902">
        <ele>1546.08</ele>
        <time>2022-02-03T09:11:39Z</time>
      </trkpt>
      <trkpt lat="45.79371" lon="6.44913">
        <ele>1547.9</ele>
        <time>2022-02-03T09:11:58Z</time>
      </trkpt>
      <trkpt lat="45.79378" lon="6.44912">
        <ele>1549.71</ele>
        <time>2022-02-03T09:12:19Z</time>
      </trkpt>
      <trkpt lat="45.79379" lon="6.44921">
        <ele>1550.99</ele>
        <time>2022-02-03T09:12:39Z</time>
      </trkpt>
      <trkpt lat="45.79386" lon="6.44925">
        <ele>1553.9</ele>
        <time>2022-02-03T09:12:59Z</time>
      </trkpt>
      <trkpt lat="45.79391" lon="6.44926">
        <ele>1554.95</ele>
        <time>2022-02-03T09:13:06Z</time>
      </trkpt>
      <trkpt lat="45.79399" lon="6.44923">
        <ele>1556.78</ele>
        <time>2022-02-03T09:13:18Z</time>
      </trkpt>
      <trkpt lat="45.79406" lon="6.44925">
        <ele>1558.51</ele>
        <time>2022-02-03T09:13:35Z</time>
      </trkpt>
      <trkpt lat="45.79407" lon="6.4492">
        <ele>1559.65</ele>
        <time>2022-02-03T09:13:50Z</time>
      </trkpt>
      <trkpt lat="45.79405" lon="6.44916">
        <ele>1560.64</ele>
        <time>2022-02-03T09:14:12Z</time>
      </trkpt>
      <trkpt lat="45.794" lon="6.44908">
        <ele>1562.56</ele>
        <time>2022-02-03T09:14:29Z</time>
      </trkpt>
      <trkpt lat="45.79402" lon="6.44901">
        <ele>1564.82</ele>
        <time>2022-02-03T09:14:46Z</time>
      </trkpt>
      <trkpt lat="45.79403" lon="6.44895">
        <ele>1565.8</ele>
        <time>2022-02-03T09:15:07Z</time>
      </trkpt>
      <trkpt lat="45.79406" lon="6.44888">
        <ele>1567.59</ele>
        <time>2022-02-03T09:15:21Z</time>
      </trkpt>
      <trkpt lat="45.79409" lon="6.44881">
        <ele>1569.12</ele>
        <time>2022-02-03T09:15:36Z</time>
      </trkpt>
      <trkpt lat="45.79412" lon="6.44874">
        <ele>1570.25</ele>
        <time>2022-02-03T09:15:53Z</time>
      </trkpt>
      <trkpt lat="45.79413" lon="6.44879">
        <ele>1570.6</ele>
        <time>2022-02-03T09:16:25Z</time>
      </trkpt>
      <trkpt lat="45.79411" lon="6.44881">
        <ele>1570.64</ele>
        <time>2022-02-03T09:16:49Z</time>
      </trkpt>
      <trkpt lat="45.79415" lon="6.4488">
        <ele>1571.79</ele>
        <time>2022-02-03T09:17:10Z</time>
      </trkpt>
      <trkpt lat="45.79416" lon="6.44881">
        <ele>1573.94</ele>
        <time>2022-02-03T09:17:26Z</time>
      </trkpt>
      <trkpt lat="45.7942" lon="6.44878">
        <ele>1575.88</ele>
        <time>2022-02-03T09:17:42Z</time>
      </trkpt>
      <trkpt lat="45.79427" lon="6.44876">
        <ele>1578.08</ele>
        <time>2022-02-03T09:18:00Z</time>
      </trkpt>
      <trkpt lat="45.79431" lon="6.44871">
        <ele>1580.21</ele>
        <time>2022-02-03T09:18:17Z</time>
      </trkpt>
      <trkpt lat="45.79437" lon="6.44867">
        <ele>1582.72</ele>
        <time>2022-02-03T09:18:37Z</time>
      </trkpt>
      <trkpt lat="45.79441" lon="6.44864">
        <ele>1584</ele>
        <time>2022-02-03T09:18:58Z</time>
      </trkpt>
      <trkpt lat="45.7945" lon="6.44861">
        <ele>1584.95</ele>
        <time>2022-02-03T09:19:19Z</time>
      </trkpt>
      <trkpt lat="45.79456" lon="6.44857">
        <ele>1586.57</ele>
        <time>2022-02-03T09:19:37Z</time>
      </trkpt>
      <trkpt lat="45.79458" lon="6.44851">
        <ele>1587.91</ele>
        <time>2022-02-03T09:19:53Z</time>
      </trkpt>
      <trkpt lat="45.79464" lon="6.44845">
        <ele>1590.03</ele>
        <time>2022-02-03T09:20:12Z</time>
      </trkpt>
      <trkpt lat="45.79469" lon="6.44841">
        <ele>1590.58</ele>
        <time>2022-02-03T09:20:34Z</time>
      </trkpt>
      <trkpt lat="45.79474" lon="6.44838">
        <ele>1591.82</ele>
        <time>2022-02-03T09:20:52Z</time>
      </trkpt>
      <trkpt lat="45.79478" lon="6.44834">
        <ele>1592.7</ele>
        <time>2022-02-03T09:21:18Z</time>
      </trkpt>
      <trkpt lat="45.79479" lon="6.44827">
        <ele>1594.09</ele>
        <time>2022-02-03T09:21:39Z</time>
      </trkpt>
      <trkpt lat="45.79476" lon="6.44823">
        <ele>1595.31</ele>
        <time>2022-02-03T09:21:59Z</time>
      </trkpt>
      <trkpt lat="45.79472" lon="6.44818">
        <ele>1596.46</ele>
        <time>2022-02-03T09:22:16Z</time>
      </trkpt>
      <trkpt lat="45.79471" lon="6.44818">
        <ele>1596.97</ele>
        <time>2022-02-03T09:22:36Z</time>
      </trkpt>
      <trkpt lat="45.79468" lon="6.44818">
        <ele>1597.45</ele>
        <time>2022-02-03T09:22:59Z</time>
      </trkpt>
      <trkpt lat="45.79463" lon="6.44816">
        <ele>1598.6</ele>
        <time>2022-02-03T09:23:17Z</time>
      </trkpt>
      <trkpt lat="45.79462" lon="6.44814">
        <ele>1599.51</ele>
        <time>2022-02-03T09:23:36Z</time>
      </trkpt>
      <trkpt lat="45.7946" lon="6.44813">
        <ele>1600.03</ele>
        <time>2022-02-03T09:23:54Z</time>
      </trkpt>
      <trkpt lat="45.79456" lon="6.4481">
        <ele>1601.64</ele>
        <time>2022-02-03T09:24:16Z</time>
      </trkpt>
      <trkpt lat="45.79457" lon="6.44813">
        <ele>1601.89</ele>
        <time>2022-02-03T09:24:38Z</time>
      </trkpt>
      <trkpt lat="45.7946" lon="6.44813">
        <ele>1602.74</ele>
        <time>2022-02-03T09:24:59Z</time>
      </trkpt>
      <trkpt lat="45.79466" lon="6.44814">
        <ele>1603.97</ele>
        <time>2022-02-03T09:25:15Z</time>
      </trkpt>
      <trkpt lat="45.79465" lon="6.44806">
        <ele>1605.94</ele>
        <time>2022-02-03T09:25:34Z</time>
      </trkpt>
      <trkpt lat="45.79467" lon="6.448">
        <ele>1607.8</ele>
        <time>2022-02-03T09:25:49Z</time>
      </trkpt>
      <trkpt lat="45.79468" lon="6.44799">
        <ele>1608.39</ele>
        <time>2022-02-03T09:26:12Z</time>
      </trkpt>
      <trkpt lat="45.79469" lon="6.44796">
        <ele>1607.82</ele>
        <time>2022-02-03T09:26:34Z</time>
      </trkpt>
      <trkpt lat="45.79467" lon="6.44791">
        <ele>1609.52</ele>
        <time>2022-02-03T09:26:52Z</time>
      </trkpt>
      <trkpt lat="45.79462" lon="6.44787">
        <ele>1612.86</ele>
        <time>2022-02-03T09:27:09Z</time>
      </trkpt>
      <trkpt lat="45.79458" lon="6.44783">
        <ele>1614.73</ele>
        <time>2022-02-03T09:27:23Z</time>
      </trkpt>
      <trkpt lat="45.79456" lon="6.44777">
        <ele>1616.63</ele>
        <time>2022-02-03T09:27:39Z</time>
      </trkpt>
      <trkpt lat="45.79453" lon="6.44772">
        <ele>1618.16</ele>
        <time>2022-02-03T09:27:56Z</time>
      </trkpt>
      <trkpt lat="45.7945" lon="6.44761">
        <ele>1620</ele>
        <time>2022-02-03T09:28:13Z</time>
      </trkpt>
      <trkpt lat="45.79448" lon="6.44755">
        <ele>1621.09</ele>
        <time>2022-02-03T09:28:32Z</time>
      </trkpt>
      <trkpt lat="45.79448" lon="6.44753">
        <ele>1622.73</ele>
        <time>2022-02-03T09:28:51Z</time>
      </trkpt>
      <trkpt lat="45.79451" lon="6.44752">
        <ele>1622.82</ele>
        <time>2022-02-03T09:29:03Z</time>
      </trkpt>
      <trkpt lat="45.7946" lon="6.44753">
        <ele>1625.57</ele>
        <time>2022-02-03T09:29:27Z</time>
      </trkpt>
      <trkpt lat="45.7946" lon="6.44754">
        <ele>1625.72</ele>
        <time>2022-02-03T09:29:28Z</time>
      </trkpt>
      <trkpt lat="45.79461" lon="6.44752">
        <ele>1626.45</ele>
        <time>2022-02-03T09:29:49Z</time>
      </trkpt>
      <trkpt lat="45.79465" lon="6.4475">
        <ele>1626.94</ele>
        <time>2022-02-03T09:30:13Z</time>
      </trkpt>
      <trkpt lat="45.79464" lon="6.44746">
        <ele>1628.47</ele>
        <time>2022-02-03T09:30:34Z</time>
      </trkpt>
      <trkpt lat="45.79465" lon="6.44741">
        <ele>1630.14</ele>
        <time>2022-02-03T09:30:53Z</time>
      </trkpt>
      <trkpt lat="45.79466" lon="6.44737">
        <ele>1630.85</ele>
        <time>2022-02-03T09:31:11Z</time>
      </trkpt>
      <trkpt lat="45.79465" lon="6.44735">
        <ele>1631.71</ele>
        <time>2022-02-03T09:31:32Z</time>
      </trkpt>
      <trkpt lat="45.7946" lon="6.44737">
        <ele>1631.63</ele>
        <time>2022-02-03T09:32:03Z</time>
      </trkpt>
      <trkpt lat="45.79461" lon="6.44741">
        <ele>1630.6</ele>
        <time>2022-02-03T09:32:28Z</time>
      </trkpt>
      <trkpt lat="45.79462" lon="6.44741">
        <ele>1630.52</ele>
        <time>2022-02-03T09:32:43Z</time>
      </trkpt>
      <trkpt lat="45.79462" lon="6.44741">
        <ele>1630.69</ele>
        <time>2022-02-03T09:33:13Z</time>
      </trkpt>
      <trkpt lat="45.79464" lon="6.44742">
        <ele>1630.84</ele>
        <time>2022-02-03T09:33:40Z</time>
      </trkpt>
      <trkpt lat="45.79466" lon="6.44742">
        <ele>1630.99</ele>
        <time>2022-02-03T09:34:19Z</time>
      </trkpt>
      <trkpt lat="45.79466" lon="6.4474">
        <ele>1630.75</ele>
        <time>2022-02-03T09:34:55Z</time>
      </trkpt>
      <trkpt lat="45.79466" lon="6.44737">
        <ele>1630.99</ele>
        <time>2022-02-03T09:35:33Z</time>
      </trkpt>
      <trkpt lat="45.79465" lon="6.44739">
        <ele>1630.78</ele>
        <time>2022-02-03T09:36:10Z</time>
      </trkpt>
      <trkpt lat="45.79464" lon="6.44736">
        <ele>1630.75</ele>
        <time>2022-02-03T09:36:39Z</time>
      </trkpt>
      <trkpt lat="45.79466" lon="6.44737">
        <ele>1631.03</ele>
        <time>2022-02-03T09:37:12Z</time>
      </trkpt>
      <trkpt lat="45.79466" lon="6.44736">
        <ele>1631.27</ele>
        <time>2022-02-03T09:37:40Z</time>
      </trkpt>
      <trkpt lat="45.79466" lon="6.44738">
        <ele>1632.17</ele>
        <time>2022-02-03T09:37:48Z</time>
      </trkpt>
      <trkpt lat="45.79464" lon="6.44742">
        <ele>1632.05</ele>
        <time>2022-02-03T09:38:02Z</time>
      </trkpt>
      <trkpt lat="45.79466" lon="6.4474">
        <ele>1631.09</ele>
        <time>2022-02-03T09:38:28Z</time>
      </trkpt>
      <trkpt lat="45.79466" lon="6.44738">
        <ele>1631.12</ele>
        <time>2022-02-03T09:39:00Z</time>
      </trkpt>
      <trkpt lat="45.79464" lon="6.44735">
        <ele>1632.09</ele>
        <time>2022-02-03T09:39:21Z</time>
      </trkpt>
      <trkpt lat="45.79462" lon="6.44731">
        <ele>1633.69</ele>
        <time>2022-02-03T09:39:33Z</time>
      </trkpt>
      <trkpt lat="45.7946" lon="6.44726">
        <ele>1635.38</ele>
        <time>2022-02-03T09:39:44Z</time>
      </trkpt>
      <trkpt lat="45.79457" lon="6.44723">
        <ele>1636.98</ele>
        <time>2022-02-03T09:39:56Z</time>
      </trkpt>
      <trkpt lat="45.79455" lon="6.44718">
        <ele>1638.57</ele>
        <time>2022-02-03T09:40:09Z</time>
      </trkpt>
      <trkpt lat="45.79456" lon="6.44714">
        <ele>1641.26</ele>
        <time>2022-02-03T09:40:27Z</time>
      </trkpt>
      <trkpt lat="45.79455" lon="6.44706">
        <ele>1643.64</ele>
        <time>2022-02-03T09:40:45Z</time>
      </trkpt>
      <trkpt lat="45.79454" lon="6.44699">
        <ele>1646.49</ele>
        <time>2022-02-03T09:41:06Z</time>
      </trkpt>
      <trkpt lat="45.79454" lon="6.44691">
        <ele>1647.18</ele>
        <time>2022-02-03T09:41:23Z</time>
      </trkpt>
      <trkpt lat="45.79451" lon="6.44691">
        <ele>1646.17</ele>
        <time>2022-02-03T09:41:47Z</time>
      </trkpt>
      <trkpt lat="45.79451" lon="6.44692">
        <ele>1645.25</ele>
        <time>2022-02-03T09:42:09Z</time>
      </trkpt>
      <trkpt lat="45.79453" lon="6.44696">
        <ele>1645.73</ele>
        <time>2022-02-03T09:42:32Z</time>
      </trkpt>
      <trkpt lat="45.79452" lon="6.44698">
        <ele>1646.24</ele>
        <time>2022-02-03T09:42:53Z</time>
      </trkpt>
      <trkpt lat="45.79451" lon="6.44688">
        <ele>1647.9</ele>
        <time>2022-02-03T09:43:13Z</time>
      </trkpt>
      <trkpt lat="45.79451" lon="6.44677">
        <ele>1650.27</ele>
        <time>2022-02-03T09:43:29Z</time>
      </trkpt>
      <trkpt lat="45.79451" lon="6.44668">
        <ele>1651.6</ele>
        <time>2022-02-03T09:43:45Z</time>
      </trkpt>
      <trkpt lat="45.7945" lon="6.44658">
        <ele>1653.26</ele>
        <time>2022-02-03T09:44:03Z</time>
      </trkpt>
      <trkpt lat="45.79448" lon="6.44654">
        <ele>1654.39</ele>
        <time>2022-02-03T09:44:17Z</time>
      </trkpt>
      <trkpt lat="45.79449" lon="6.4465">
        <ele>1655.37</ele>
        <time>2022-02-03T09:44:37Z</time>
      </trkpt>
      <trkpt lat="45.7945" lon="6.44654">
        <ele>1656.97</ele>
        <time>2022-02-03T09:44:52Z</time>
      </trkpt>
      <trkpt lat="45.79454" lon="6.44657">
        <ele>1659.07</ele>
        <time>2022-02-03T09:45:08Z</time>
      </trkpt>
      <trkpt lat="45.79457" lon="6.44659">
        <ele>1661.11</ele>
        <time>2022-02-03T09:45:23Z</time>
      </trkpt>
      <trkpt lat="45.79462" lon="6.44664">
        <ele>1662.26</ele>
        <time>2022-02-03T09:45:40Z</time>
      </trkpt>
      <trkpt lat="45.79465" lon="6.44662">
        <ele>1663.47</ele>
        <time>2022-02-03T09:45:59Z</time>
      </trkpt>
      <trkpt lat="45.7947" lon="6.44664">
        <ele>1666.29</ele>
        <time>2022-02-03T09:46:17Z</time>
      </trkpt>
      <trkpt lat="45.79473" lon="6.44667">
        <ele>1668.59</ele>
        <time>2022-02-03T09:46:34Z</time>
      </trkpt>
      <trkpt lat="45.79477" lon="6.44671">
        <ele>1670.78</ele>
        <time>2022-02-03T09:46:56Z</time>
      </trkpt>
      <trkpt lat="45.79479" lon="6.44671">
        <ele>1672.06</ele>
        <time>2022-02-03T09:46:59Z</time>
      </trkpt>
      <trkpt lat="45.79481" lon="6.44674">
        <ele>1673.14</ele>
        <time>2022-02-03T09:47:15Z</time>
      </trkpt>
      <trkpt lat="45.7948" lon="6.44669">
        <ele>1674.11</ele>
        <time>2022-02-03T09:47:30Z</time>
      </trkpt>
      <trkpt lat="45.79479" lon="6.44661">
        <ele>1675.06</ele>
        <time>2022-02-03T09:47:46Z</time>
      </trkpt>
      <trkpt lat="45.79478" lon="6.44658">
        <ele>1675.61</ele>
        <time>2022-02-03T09:48:04Z</time>
      </trkpt>
      <trkpt lat="45.79479" lon="6.44651">
        <ele>1677.34</ele>
        <time>2022-02-03T09:48:20Z</time>
      </trkpt>
      <trkpt lat="45.7948" lon="6.44649">
        <ele>1677.49</ele>
        <time>2022-02-03T09:48:50Z</time>
      </trkpt>
      <trkpt lat="45.79477" lon="6.44652">
        <ele>1677.22</ele>
        <time>2022-02-03T09:49:09Z</time>
      </trkpt>
      <trkpt lat="45.79478" lon="6.44661">
        <ele>1674.65</ele>
        <time>2022-02-03T09:49:32Z</time>
      </trkpt>
      <trkpt lat="45.79479" lon="6.44664">
        <ele>1674.47</ele>
        <time>2022-02-03T09:49:56Z</time>
      </trkpt>
      <trkpt lat="45.7948" lon="6.44667">
        <ele>1674.33</ele>
        <time>2022-02-03T09:50:25Z</time>
      </trkpt>
      <trkpt lat="45.79478" lon="6.44664">
        <ele>1675.59</ele>
        <time>2022-02-03T09:50:40Z</time>
      </trkpt>
      <trkpt lat="45.79477" lon="6.44659">
        <ele>1677.2</ele>
        <time>2022-02-03T09:50:58Z</time>
      </trkpt>
      <trkpt lat="45.79478" lon="6.44649">
        <ele>1678.87</ele>
        <time>2022-02-03T09:51:15Z</time>
      </trkpt>
      <trkpt lat="45.79478" lon="6.44639">
        <ele>1680.17</ele>
        <time>2022-02-03T09:51:31Z</time>
      </trkpt>
      <trkpt lat="45.7948" lon="6.44635">
        <ele>1681.96</ele>
        <time>2022-02-03T09:51:47Z</time>
      </trkpt>
      <trkpt lat="45.79481" lon="6.4463">
        <ele>1683.73</ele>
        <time>2022-02-03T09:52:01Z</time>
      </trkpt>
      <trkpt lat="45.79482" lon="6.44624">
        <ele>1685.24</ele>
        <time>2022-02-03T09:52:18Z</time>
      </trkpt>
      <trkpt lat="45.79484" lon="6.44618">
        <ele>1686.83</ele>
        <time>2022-02-03T09:52:32Z</time>
      </trkpt>
      <trkpt lat="45.79485" lon="6.44614">
        <ele>1687.6</ele>
        <time>2022-02-03T09:52:50Z</time>
      </trkpt>
      <trkpt lat="45.79484" lon="6.44605">
        <ele>1688.9</ele>
        <time>2022-02-03T09:53:09Z</time>
      </trkpt>
      <trkpt lat="45.79482" lon="6.44599">
        <ele>1689.18</ele>
        <time>2022-02-03T09:53:36Z</time>
      </trkpt>
      <trkpt lat="45.79482" lon="6.44596">
        <ele>1689.72</ele>
        <time>2022-02-03T09:54:03Z</time>
      </trkpt>
      <trkpt lat="45.79482" lon="6.44593">
        <ele>1691.4</ele>
        <time>2022-02-03T09:54:24Z</time>
      </trkpt>
      <trkpt lat="45.7948" lon="6.44587">
        <ele>1693.51</ele>
        <time>2022-02-03T09:54:42Z</time>
      </trkpt>
      <trkpt lat="45.7948" lon="6.44579">
        <ele>1695.12</ele>
        <time>2022-02-03T09:54:57Z</time>
      </trkpt>
      <trkpt lat="45.79479" lon="6.44571">
        <ele>1696.44</ele>
        <time>2022-02-03T09:55:11Z</time>
      </trkpt>
      <trkpt lat="45.79478" lon="6.44566">
        <ele>1697.47</ele>
        <time>2022-02-03T09:55:25Z</time>
      </trkpt>
      <trkpt lat="45.79478" lon="6.44561">
        <ele>1698.72</ele>
        <time>2022-02-03T09:55:38Z</time>
      </trkpt>
      <trkpt lat="45.79478" lon="6.44558">
        <ele>1699.7</ele>
        <time>2022-02-03T09:55:56Z</time>
      </trkpt>
      <trkpt lat="45.79477" lon="6.44556">
        <ele>1699.34</ele>
        <time>2022-02-03T09:56:13Z</time>
      </trkpt>
      <trkpt lat="45.79474" lon="6.44559">
        <ele>1699.56</ele>
        <time>2022-02-03T09:56:42Z</time>
      </trkpt>
      <trkpt lat="45.79474" lon="6.44559">
        <ele>1699.67</ele>
        <time>2022-02-03T09:57:14Z</time>
      </trkpt>
      <trkpt lat="45.79474" lon="6.44548">
        <ele>1700.81</ele>
        <time>2022-02-03T09:57:29Z</time>
      </trkpt>
      <trkpt lat="45.79473" lon="6.4454">
        <ele>1701.46</ele>
        <time>2022-02-03T09:57:43Z</time>
      </trkpt>
      <trkpt lat="45.7947" lon="6.44532">
        <ele>1702.43</ele>
        <time>2022-02-03T09:57:57Z</time>
      </trkpt>
      <trkpt lat="45.79468" lon="6.44525">
        <ele>1703.65</ele>
        <time>2022-02-03T09:58:09Z</time>
      </trkpt>
      <trkpt lat="45.79465" lon="6.44518">
        <ele>1704.55</ele>
        <time>2022-02-03T09:58:24Z</time>
      </trkpt>
      <trkpt lat="45.79463" lon="6.44512">
        <ele>1705.61</ele>
        <time>2022-02-03T09:58:37Z</time>
      </trkpt>
      <trkpt lat="45.7946" lon="6.44506">
        <ele>1706.7</ele>
        <time>2022-02-03T09:58:50Z</time>
      </trkpt>
      <trkpt lat="45.79458" lon="6.445">
        <ele>1707.97</ele>
        <time>2022-02-03T09:59:06Z</time>
      </trkpt>
      <trkpt lat="45.79457" lon="6.44494">
        <ele>1708.99</ele>
        <time>2022-02-03T09:59:23Z</time>
      </trkpt>
      <trkpt lat="45.79455" lon="6.44489">
        <ele>1710.3</ele>
        <time>2022-02-03T09:59:39Z</time>
      </trkpt>
      <trkpt lat="45.79455" lon="6.44493">
        <ele>1710</ele>
        <time>2022-02-03T09:59:57Z</time>
      </trkpt>
      <trkpt lat="45.79455" lon="6.44494">
        <ele>1709.73</ele>
        <time>2022-02-03T10:00:19Z</time>
      </trkpt>
      <trkpt lat="45.79455" lon="6.44491">
        <ele>1711.09</ele>
        <time>2022-02-03T10:00:35Z</time>
      </trkpt>
      <trkpt lat="45.79455" lon="6.44487">
        <ele>1711.9</ele>
        <time>2022-02-03T10:00:53Z</time>
      </trkpt>
      <trkpt lat="45.79453" lon="6.44483">
        <ele>1712.72</ele>
        <time>2022-02-03T10:01:11Z</time>
      </trkpt>
      <trkpt lat="45.79452" lon="6.44478">
        <ele>1713.52</ele>
        <time>2022-02-03T10:01:27Z</time>
      </trkpt>
      <trkpt lat="45.79451" lon="6.44474">
        <ele>1714.29</ele>
        <time>2022-02-03T10:01:41Z</time>
      </trkpt>
      <trkpt lat="45.79449" lon="6.4447">
        <ele>1715.25</ele>
        <time>2022-02-03T10:01:55Z</time>
      </trkpt>
      <trkpt lat="45.79448" lon="6.44466">
        <ele>1717.67</ele>
        <time>2022-02-03T10:02:09Z</time>
      </trkpt>
      <trkpt lat="45.79448" lon="6.44463">
        <ele>1718.41</ele>
        <time>2022-02-03T10:02:24Z</time>
      </trkpt>
      <trkpt lat="45.79446" lon="6.44459">
        <ele>1719.15</ele>
        <time>2022-02-03T10:02:36Z</time>
      </trkpt>
      <trkpt lat="45.79444" lon="6.44454">
        <ele>1720.64</ele>
        <time>2022-02-03T10:02:51Z</time>
      </trkpt>
      <trkpt lat="45.79444" lon="6.4445">
        <ele>1722.33</ele>
        <time>2022-02-03T10:03:04Z</time>
      </trkpt>
      <trkpt lat="45.79442" lon="6.44446">
        <ele>1722.86</ele>
        <time>2022-02-03T10:03:17Z</time>
      </trkpt>
      <trkpt lat="45.79441" lon="6.44443">
        <ele>1723.59</ele>
        <time>2022-02-03T10:03:30Z</time>
      </trkpt>
      <trkpt lat="45.79439" lon="6.44441">
        <ele>1724.11</ele>
        <time>2022-02-03T10:03:46Z</time>
      </trkpt>
      <trkpt lat="45.79437" lon="6.44438">
        <ele>1726.48</ele>
        <time>2022-02-03T10:04:13Z</time>
      </trkpt>
      <trkpt lat="45.79435" lon="6.44436">
        <ele>1726.76</ele>
        <time>2022-02-03T10:04:27Z</time>
      </trkpt>
      <trkpt lat="45.79435" lon="6.44435">
        <ele>1726.8</ele>
        <time>2022-02-03T10:04:44Z</time>
      </trkpt>
      <trkpt lat="45.79431" lon="6.44432">
        <ele>1728.02</ele>
        <time>2022-02-03T10:05:01Z</time>
      </trkpt>
      <trkpt lat="45.79428" lon="6.4443">
        <ele>1728.54</ele>
        <time>2022-02-03T10:05:15Z</time>
      </trkpt>
      <trkpt lat="45.79426" lon="6.44426">
        <ele>1730.03</ele>
        <time>2022-02-03T10:05:30Z</time>
      </trkpt>
      <trkpt lat="45.79427" lon="6.44425">
        <ele>1730.87</ele>
        <time>2022-02-03T10:05:47Z</time>
      </trkpt>
      <trkpt lat="45.79429" lon="6.44423">
        <ele>1732.36</ele>
        <time>2022-02-03T10:06:05Z</time>
      </trkpt>
      <trkpt lat="45.79432" lon="6.44422">
        <ele>1733.54</ele>
        <time>2022-02-03T10:06:18Z</time>
      </trkpt>
      <trkpt lat="45.79436" lon="6.4442">
        <ele>1734.79</ele>
        <time>2022-02-03T10:06:33Z</time>
      </trkpt>
      <trkpt lat="45.79439" lon="6.44418">
        <ele>1735.4</ele>
        <time>2022-02-03T10:06:48Z</time>
      </trkpt>
      <trkpt lat="45.79443" lon="6.44416">
        <ele>1736.3</ele>
        <time>2022-02-03T10:07:01Z</time>
      </trkpt>
      <trkpt lat="45.79443" lon="6.44413">
        <ele>1737.22</ele>
        <time>2022-02-03T10:07:14Z</time>
      </trkpt>
      <trkpt lat="45.79441" lon="6.4441">
        <ele>1738.1</ele>
        <time>2022-02-03T10:07:27Z</time>
      </trkpt>
      <trkpt lat="45.79439" lon="6.44407">
        <ele>1739.59</ele>
        <time>2022-02-03T10:07:41Z</time>
      </trkpt>
      <trkpt lat="45.79436" lon="6.44402">
        <ele>1740.97</ele>
        <time>2022-02-03T10:07:53Z</time>
      </trkpt>
      <trkpt lat="45.79431" lon="6.44396">
        <ele>1741.87</ele>
        <time>2022-02-03T10:08:05Z</time>
      </trkpt>
      <trkpt lat="45.79425" lon="6.44392">
        <ele>1742.77</ele>
        <time>2022-02-03T10:08:17Z</time>
      </trkpt>
      <trkpt lat="45.79419" lon="6.44391">
        <ele>1742.62</ele>
        <time>2022-02-03T10:08:29Z</time>
      </trkpt>
      <trkpt lat="45.79419" lon="6.44391">
        <ele>1742.57</ele>
        <time>2022-02-03T10:08:30Z</time>
      </trkpt>
      <trkpt lat="45.79416" lon="6.44389">
        <ele>1742.16</ele>
        <time>2022-02-03T10:08:36Z</time>
      </trkpt>
      <trkpt lat="45.79414" lon="6.44387">
        <ele>1742.82</ele>
        <time>2022-02-03T10:08:48Z</time>
      </trkpt>
      <trkpt lat="45.79414" lon="6.44386">
        <ele>1742.12</ele>
        <time>2022-02-03T10:09:05Z</time>
      </trkpt>
      <trkpt lat="45.79414" lon="6.44389">
        <ele>1742.26</ele>
        <time>2022-02-03T10:09:30Z</time>
      </trkpt>
      <trkpt lat="45.79413" lon="6.44387">
        <ele>1742.23</ele>
        <time>2022-02-03T10:09:45Z</time>
      </trkpt>
      <trkpt lat="45.79414" lon="6.44387">
        <ele>1742.16</ele>
        <time>2022-02-03T10:10:13Z</time>
      </trkpt>
      <trkpt lat="45.79414" lon="6.44387">
        <ele>1741.75</ele>
        <time>2022-02-03T10:10:36Z</time>
      </trkpt>
      <trkpt lat="45.79413" lon="6.44387">
        <ele>1742.53</ele>
        <time>2022-02-03T10:11:02Z</time>
      </trkpt>
      <trkpt lat="45.79412" lon="6.44386">
        <ele>1742.29</ele>
        <time>2022-02-03T10:11:23Z</time>
      </trkpt>
      <trkpt lat="45.79412" lon="6.44387">
        <ele>1742.13</ele>
        <time>2022-02-03T10:11:51Z</time>
      </trkpt>
      <trkpt lat="45.79412" lon="6.44387">
        <ele>1742.02</ele>
        <time>2022-02-03T10:12:29Z</time>
      </trkpt>
      <trkpt lat="45.79412" lon="6.44387">
        <ele>1742.78</ele>
        <time>2022-02-03T10:13:09Z</time>
      </trkpt>
      <trkpt lat="45.79412" lon="6.44386">
        <ele>1742.16</ele>
        <time>2022-02-03T10:14:05Z</time>
      </trkpt>
      <trkpt lat="45.79412" lon="6.44386">
        <ele>1742.44</ele>
        <time>2022-02-03T10:14:58Z</time>
      </trkpt>
      <trkpt lat="45.79412" lon="6.44386">
        <ele>1742.46</ele>
        <time>2022-02-03T10:15:43Z</time>
      </trkpt>
      <trkpt lat="45.79412" lon="6.44386">
        <ele>1742.78</ele>
        <time>2022-02-03T10:16:20Z</time>
      </trkpt>
      <trkpt lat="45.79412" lon="6.44386">
        <ele>1742.85</ele>
        <time>2022-02-03T10:17:03Z</time>
      </trkpt>
      <trkpt lat="45.79412" lon="6.44386">
        <ele>1742.79</ele>
        <time>2022-02-03T10:17:42Z</time>
      </trkpt>
      <trkpt lat="45.79412" lon="6.44386">
        <ele>1742.76</ele>
        <time>2022-02-03T10:18:23Z</time>
      </trkpt>
      <trkpt lat="45.79413" lon="6.44386">
        <ele>1743.08</ele>
        <time>2022-02-03T10:19:17Z</time>
      </trkpt>
      <trkpt lat="45.79413" lon="6.44386">
        <ele>1742.77</ele>
        <time>2022-02-03T10:20:14Z</time>
      </trkpt>
      <trkpt lat="45.79413" lon="6.44387">
        <ele>1742.74</ele>
        <time>2022-02-03T10:20:53Z</time>
      </trkpt>
      <trkpt lat="45.79413" lon="6.44388">
        <ele>1743.12</ele>
        <time>2022-02-03T10:21:42Z</time>
      </trkpt>
      <trkpt lat="45.79413" lon="6.44388">
        <ele>1743.13</ele>
        <time>2022-02-03T10:22:21Z</time>
      </trkpt>
      <trkpt lat="45.79413" lon="6.44388">
        <ele>1742.94</ele>
        <time>2022-02-03T10:23:16Z</time>
      </trkpt>
      <trkpt lat="45.79413" lon="6.44388">
        <ele>1742.84</ele>
        <time>2022-02-03T10:23:51Z</time>
      </trkpt>
      <trkpt lat="45.79412" lon="6.44388">
        <ele>1743.65</ele>
        <time>2022-02-03T10:24:25Z</time>
      </trkpt>
      <trkpt lat="45.79412" lon="6.44389">
        <ele>1743.38</ele>
        <time>2022-02-03T10:25:08Z</time>
      </trkpt>
      <trkpt lat="45.79412" lon="6.44392">
        <ele>1744.56</ele>
        <time>2022-02-03T10:25:41Z</time>
      </trkpt>
      <trkpt lat="45.79411" lon="6.44386">
        <ele>1745.39</ele>
        <time>2022-02-03T10:25:54Z</time>
      </trkpt>
      <trkpt lat="45.79411" lon="6.44387">
        <ele>1743.97</ele>
        <time>2022-02-03T10:25:59Z</time>
      </trkpt>
      <trkpt lat="45.79413" lon="6.44388">
        <ele>1744.28</ele>
        <time>2022-02-03T10:26:13Z</time>
      </trkpt>
      <trkpt lat="45.79413" lon="6.44389">
        <ele>1744.29</ele>
        <time>2022-02-03T10:26:33Z</time>
      </trkpt>
      <trkpt lat="45.79412" lon="6.44388">
        <ele>1743.28</ele>
        <time>2022-02-03T10:26:52Z</time>
      </trkpt>
      <trkpt lat="45.79412" lon="6.44388">
        <ele>1743.59</ele>
        <time>2022-02-03T10:27:14Z</time>
      </trkpt>
      <trkpt lat="45.79412" lon="6.44389">
        <ele>1743.03</ele>
        <time>2022-02-03T10:27:49Z</time>
      </trkpt>
      <trkpt lat="45.79412" lon="6.44389">
        <ele>1743.9</ele>
        <time>2022-02-03T10:28:15Z</time>
      </trkpt>
      <trkpt lat="45.79413" lon="6.44388">
        <ele>1744.17</ele>
        <time>2022-02-03T10:28:41Z</time>
      </trkpt>
      <trkpt lat="45.79412" lon="6.44388">
        <ele>1744.8</ele>
        <time>2022-02-03T10:29:11Z</time>
      </trkpt>
      <trkpt lat="45.79409" lon="6.44388">
        <ele>1744.98</ele>
        <time>2022-02-03T10:29:38Z</time>
      </trkpt>
      <trkpt lat="45.79404" lon="6.44388">
        <ele>1744.3</ele>
        <time>2022-02-03T10:29:54Z</time>
      </trkpt>
      <trkpt lat="45.79398" lon="6.44386">
        <ele>1742.3</ele>
        <time>2022-02-03T10:30:02Z</time>
      </trkpt>
      <trkpt lat="45.79395" lon="6.44382">
        <ele>1741.47</ele>
        <time>2022-02-03T10:30:06Z</time>
      </trkpt>
      <trkpt lat="45.79393" lon="6.44382">
        <ele>1740.16</ele>
        <time>2022-02-03T10:30:08Z</time>
      </trkpt>
      <trkpt lat="45.7939" lon="6.44385">
        <ele>1738.7</ele>
        <time>2022-02-03T10:30:16Z</time>
      </trkpt>
      <trkpt lat="45.79387" lon="6.4439">
        <ele>1735.24</ele>
        <time>2022-02-03T10:30:24Z</time>
      </trkpt>
      <trkpt lat="45.79385" lon="6.44391">
        <ele>1734.17</ele>
        <time>2022-02-03T10:30:26Z</time>
      </trkpt>
      <trkpt lat="45.79382" lon="6.4439">
        <ele>1733.09</ele>
        <time>2022-02-03T10:30:29Z</time>
      </trkpt>
      <trkpt lat="45.79378" lon="6.44391">
        <ele>1731.41</ele>
        <time>2022-02-03T10:30:33Z</time>
      </trkpt>
      <trkpt lat="45.79371" lon="6.44392">
        <ele>1727.76</ele>
        <time>2022-02-03T10:30:40Z</time>
      </trkpt>
      <trkpt lat="45.7937" lon="6.44393">
        <ele>1727.54</ele>
        <time>2022-02-03T10:30:41Z</time>
      </trkpt>
      <trkpt lat="45.79363" lon="6.44394">
        <ele>1725.93</ele>
        <time>2022-02-03T10:30:47Z</time>
      </trkpt>
      <trkpt lat="45.7936" lon="6.44393">
        <ele>1725.6</ele>
        <time>2022-02-03T10:30:50Z</time>
      </trkpt>
      <trkpt lat="45.79356" lon="6.44393">
        <ele>1725.09</ele>
        <time>2022-02-03T10:30:54Z</time>
      </trkpt>
      <trkpt lat="45.79352" lon="6.44392">
        <ele>1724.89</ele>
        <time>2022-02-03T10:30:57Z</time>
      </trkpt>
      <trkpt lat="45.79341" lon="6.44394">
        <ele>1722.08</ele>
        <time>2022-02-03T10:31:08Z</time>
      </trkpt>
      <trkpt lat="45.79339" lon="6.44393">
        <ele>1721.31</ele>
        <time>2022-02-03T10:31:13Z</time>
      </trkpt>
      <trkpt lat="45.79337" lon="6.44392">
        <ele>1720.26</ele>
        <time>2022-02-03T10:31:15Z</time>
      </trkpt>
      <trkpt lat="45.79334" lon="6.44389">
        <ele>1718.43</ele>
        <time>2022-02-03T10:31:19Z</time>
      </trkpt>
      <trkpt lat="45.79329" lon="6.44387">
        <ele>1717</ele>
        <time>2022-02-03T10:31:23Z</time>
      </trkpt>
      <trkpt lat="45.79325" lon="6.44386">
        <ele>1715.29</ele>
        <time>2022-02-03T10:31:27Z</time>
      </trkpt>
      <trkpt lat="45.7932" lon="6.44385">
        <ele>1713.52</ele>
        <time>2022-02-03T10:31:31Z</time>
      </trkpt>
      <trkpt lat="45.79314" lon="6.44387">
        <ele>1711.27</ele>
        <time>2022-02-03T10:31:36Z</time>
      </trkpt>
      <trkpt lat="45.7931" lon="6.44391">
        <ele>1708.96</ele>
        <time>2022-02-03T10:31:41Z</time>
      </trkpt>
      <trkpt lat="45.79306" lon="6.44393">
        <ele>1707.09</ele>
        <time>2022-02-03T10:31:45Z</time>
      </trkpt>
      <trkpt lat="45.79298" lon="6.44394">
        <ele>1703.95</ele>
        <time>2022-02-03T10:31:54Z</time>
      </trkpt>
      <trkpt lat="45.79296" lon="6.44392">
        <ele>1702.81</ele>
        <time>2022-02-03T10:31:58Z</time>
      </trkpt>
      <trkpt lat="45.79289" lon="6.44384">
        <ele>1699.45</ele>
        <time>2022-02-03T10:32:08Z</time>
      </trkpt>
      <trkpt lat="45.79284" lon="6.44378">
        <ele>1696.79</ele>
        <time>2022-02-03T10:32:15Z</time>
      </trkpt>
      <trkpt lat="45.79276" lon="6.4437">
        <ele>1693.25</ele>
        <time>2022-02-03T10:32:27Z</time>
      </trkpt>
      <trkpt lat="45.79273" lon="6.44367">
        <ele>1691.77</ele>
        <time>2022-02-03T10:32:31Z</time>
      </trkpt>
      <trkpt lat="45.7927" lon="6.44359">
        <ele>1688.72</ele>
        <time>2022-02-03T10:32:41Z</time>
      </trkpt>
      <trkpt lat="45.79268" lon="6.44356">
        <ele>1688.23</ele>
        <time>2022-02-03T10:32:53Z</time>
      </trkpt>
      <trkpt lat="45.79266" lon="6.44349">
        <ele>1685.98</ele>
        <time>2022-02-03T10:33:04Z</time>
      </trkpt>
      <trkpt lat="45.79264" lon="6.44332">
        <ele>1682.46</ele>
        <time>2022-02-03T10:33:20Z</time>
      </trkpt>
      <trkpt lat="45.79261" lon="6.44328">
        <ele>1680.28</ele>
        <time>2022-02-03T10:33:25Z</time>
      </trkpt>
      <trkpt lat="45.79258" lon="6.44317">
        <ele>1677.05</ele>
        <time>2022-02-03T10:33:38Z</time>
      </trkpt>
      <trkpt lat="45.79259" lon="6.44317">
        <ele>1677.18</ele>
        <time>2022-02-03T10:34:00Z</time>
      </trkpt>
      <trkpt lat="45.79257" lon="6.44316">
        <ele>1676.67</ele>
        <time>2022-02-03T10:34:23Z</time>
      </trkpt>
      <trkpt lat="45.79256" lon="6.44319">
        <ele>1676.77</ele>
        <time>2022-02-03T10:34:59Z</time>
      </trkpt>
      <trkpt lat="45.79257" lon="6.44317">
        <ele>1676.93</ele>
        <time>2022-02-03T10:35:27Z</time>
      </trkpt>
      <trkpt lat="45.79256" lon="6.44318">
        <ele>1676.88</ele>
        <time>2022-02-03T10:35:55Z</time>
      </trkpt>
      <trkpt lat="45.7925" lon="6.44319">
        <ele>1674.98</ele>
        <time>2022-02-03T10:36:12Z</time>
      </trkpt>
      <trkpt lat="45.79244" lon="6.44321">
        <ele>1672.66</ele>
        <time>2022-02-03T10:36:28Z</time>
      </trkpt>
      <trkpt lat="45.79235" lon="6.44328">
        <ele>1669.53</ele>
        <time>2022-02-03T10:36:42Z</time>
      </trkpt>
      <trkpt lat="45.79226" lon="6.44335">
        <ele>1667.09</ele>
        <time>2022-02-03T10:36:56Z</time>
      </trkpt>
      <trkpt lat="45.79223" lon="6.44327">
        <ele>1664.01</ele>
        <time>2022-02-03T10:37:13Z</time>
      </trkpt>
      <trkpt lat="45.79219" lon="6.44321">
        <ele>1660.93</ele>
        <time>2022-02-03T10:37:22Z</time>
      </trkpt>
      <trkpt lat="45.79212" lon="6.44316">
        <ele>1657.72</ele>
        <time>2022-02-03T10:37:34Z</time>
      </trkpt>
      <trkpt lat="45.79211" lon="6.44305">
        <ele>1654.61</ele>
        <time>2022-02-03T10:37:45Z</time>
      </trkpt>
      <trkpt lat="45.79207" lon="6.44299">
        <ele>1651.45</ele>
        <time>2022-02-03T10:37:53Z</time>
      </trkpt>
      <trkpt lat="45.79205" lon="6.44292">
        <ele>1648.15</ele>
        <time>2022-02-03T10:38:04Z</time>
      </trkpt>
      <trkpt lat="45.79203" lon="6.44286">
        <ele>1644.98</ele>
        <time>2022-02-03T10:38:16Z</time>
      </trkpt>
      <trkpt lat="45.79199" lon="6.44277">
        <ele>1641.87</ele>
        <time>2022-02-03T10:38:29Z</time>
      </trkpt>
      <trkpt lat="45.79197" lon="6.44265">
        <ele>1639.7</ele>
        <time>2022-02-03T10:38:45Z</time>
      </trkpt>
      <trkpt lat="45.79195" lon="6.44271">
        <ele>1640.24</ele>
        <time>2022-02-03T10:39:05Z</time>
      </trkpt>
      <trkpt lat="45.79192" lon="6.4428">
        <ele>1638.9</ele>
        <time>2022-02-03T10:39:22Z</time>
      </trkpt>
      <trkpt lat="45.79185" lon="6.44284">
        <ele>1637.05</ele>
        <time>2022-02-03T10:39:43Z</time>
      </trkpt>
      <trkpt lat="45.7918" lon="6.44291">
        <ele>1635.55</ele>
        <time>2022-02-03T10:40:00Z</time>
      </trkpt>
      <trkpt lat="45.79175" lon="6.44297">
        <ele>1634.12</ele>
        <time>2022-02-03T10:40:20Z</time>
      </trkpt>
      <trkpt lat="45.79172" lon="6.443">
        <ele>1631.34</ele>
        <time>2022-02-03T10:40:38Z</time>
      </trkpt>
      <trkpt lat="45.79171" lon="6.44301">
        <ele>1631.07</ele>
        <time>2022-02-03T10:40:58Z</time>
      </trkpt>
      <trkpt lat="45.79167" lon="6.44303">
        <ele>1629.77</ele>
        <time>2022-02-03T10:41:17Z</time>
      </trkpt>
      <trkpt lat="45.79167" lon="6.44305">
        <ele>1630.06</ele>
        <time>2022-02-03T10:41:33Z</time>
      </trkpt>
      <trkpt lat="45.79165" lon="6.44309">
        <ele>1628.89</ele>
        <time>2022-02-03T10:41:54Z</time>
      </trkpt>
      <trkpt lat="45.79161" lon="6.44309">
        <ele>1626.51</ele>
        <time>2022-02-03T10:42:17Z</time>
      </trkpt>
      <trkpt lat="45.79154" lon="6.44312">
        <ele>1624.98</ele>
        <time>2022-02-03T10:42:33Z</time>
      </trkpt>
      <trkpt lat="45.79158" lon="6.44312">
        <ele>1625.93</ele>
        <time>2022-02-03T10:42:57Z</time>
      </trkpt>
      <trkpt lat="45.79156" lon="6.44308">
        <ele>1624.1</ele>
        <time>2022-02-03T10:43:20Z</time>
      </trkpt>
      <trkpt lat="45.79155" lon="6.44299">
        <ele>1620.92</ele>
        <time>2022-02-03T10:43:32Z</time>
      </trkpt>
      <trkpt lat="45.79159" lon="6.44289">
        <ele>1618.67</ele>
        <time>2022-02-03T10:43:48Z</time>
      </trkpt>
      <trkpt lat="45.79161" lon="6.44292">
        <ele>1618.96</ele>
        <time>2022-02-03T10:44:05Z</time>
      </trkpt>
      <trkpt lat="45.79159" lon="6.44295">
        <ele>1619.24</ele>
        <time>2022-02-03T10:44:27Z</time>
      </trkpt>
      <trkpt lat="45.79162" lon="6.44293">
        <ele>1619.35</ele>
        <time>2022-02-03T10:45:02Z</time>
      </trkpt>
      <trkpt lat="45.7916" lon="6.44291">
        <ele>1619.58</ele>
        <time>2022-02-03T10:45:31Z</time>
      </trkpt>
      <trkpt lat="45.79161" lon="6.44293">
        <ele>1619.12</ele>
        <time>2022-02-03T10:45:57Z</time>
      </trkpt>
      <trkpt lat="45.79163" lon="6.44295">
        <ele>1619.17</ele>
        <time>2022-02-03T10:46:24Z</time>
      </trkpt>
      <trkpt lat="45.79163" lon="6.44294">
        <ele>1618.83</ele>
        <time>2022-02-03T10:46:40Z</time>
      </trkpt>
      <trkpt lat="45.79164" lon="6.44289">
        <ele>1618.35</ele>
        <time>2022-02-03T10:47:07Z</time>
      </trkpt>
      <trkpt lat="45.79163" lon="6.44282">
        <ele>1617.01</ele>
        <time>2022-02-03T10:47:24Z</time>
      </trkpt>
      <trkpt lat="45.79162" lon="6.44268">
        <ele>1613.84</ele>
        <time>2022-02-03T10:47:41Z</time>
      </trkpt>
      <trkpt lat="45.79162" lon="6.44256">
        <ele>1610.63</ele>
        <time>2022-02-03T10:47:54Z</time>
      </trkpt>
      <trkpt lat="45.79161" lon="6.44247">
        <ele>1608.67</ele>
        <time>2022-02-03T10:48:03Z</time>
      </trkpt>
      <trkpt lat="45.7916" lon="6.44237">
        <ele>1605.33</ele>
        <time>2022-02-03T10:48:14Z</time>
      </trkpt>
      <trkpt lat="45.79159" lon="6.44229">
        <ele>1602.27</ele>
        <time>2022-02-03T10:48:23Z</time>
      </trkpt>
      <trkpt lat="45.79158" lon="6.44223">
        <ele>1598.88</ele>
        <time>2022-02-03T10:48:33Z</time>
      </trkpt>
      <trkpt lat="45.79158" lon="6.44221">
        <ele>1598.45</ele>
        <time>2022-02-03T10:48:35Z</time>
      </trkpt>
      <trkpt lat="45.79157" lon="6.44219">
        <ele>1597.33</ele>
        <time>2022-02-03T10:48:53Z</time>
      </trkpt>
      <trkpt lat="45.79157" lon="6.4422">
        <ele>1597.22</ele>
        <time>2022-02-03T10:49:15Z</time>
      </trkpt>
      <trkpt lat="45.79157" lon="6.44221">
        <ele>1597.34</ele>
        <time>2022-02-03T10:49:44Z</time>
      </trkpt>
      <trkpt lat="45.79159" lon="6.44216">
        <ele>1596.5</ele>
        <time>2022-02-03T10:50:04Z</time>
      </trkpt>
      <trkpt lat="45.79161" lon="6.44217">
        <ele>1596.35</ele>
        <time>2022-02-03T10:50:32Z</time>
      </trkpt>
      <trkpt lat="45.7916" lon="6.44218">
        <ele>1596.63</ele>
        <time>2022-02-03T10:51:02Z</time>
      </trkpt>
      <trkpt lat="45.79158" lon="6.44217">
        <ele>1596.58</ele>
        <time>2022-02-03T10:51:34Z</time>
      </trkpt>
      <trkpt lat="45.79162" lon="6.44216">
        <ele>1596.5</ele>
        <time>2022-02-03T10:52:02Z</time>
      </trkpt>
      <trkpt lat="45.79158" lon="6.44217">
        <ele>1596.28</ele>
        <time>2022-02-03T10:52:35Z</time>
      </trkpt>
      <trkpt lat="45.79157" lon="6.44218">
        <ele>1596.84</ele>
        <time>2022-02-03T10:53:10Z</time>
      </trkpt>
      <trkpt lat="45.79158" lon="6.44218">
        <ele>1595.99</ele>
        <time>2022-02-03T10:53:40Z</time>
      </trkpt>
      <trkpt lat="45.79159" lon="6.44218">
        <ele>1599.27</ele>
        <time>2022-02-03T10:53:49Z</time>
      </trkpt>
      <trkpt lat="45.79159" lon="6.44218">
        <ele>1597.19</ele>
        <time>2022-02-03T10:53:51Z</time>
      </trkpt>
      <trkpt lat="45.79158" lon="6.44218">
        <ele>1596.66</ele>
        <time>2022-02-03T10:54:11Z</time>
      </trkpt>
      <trkpt lat="45.79149" lon="6.44211">
        <ele>1593.56</ele>
        <time>2022-02-03T10:54:27Z</time>
      </trkpt>
      <trkpt lat="45.79146" lon="6.44203">
        <ele>1590.54</ele>
        <time>2022-02-03T10:54:38Z</time>
      </trkpt>
      <trkpt lat="45.79141" lon="6.44196">
        <ele>1587.47</ele>
        <time>2022-02-03T10:54:50Z</time>
      </trkpt>
      <trkpt lat="45.79135" lon="6.44195">
        <ele>1585.9</ele>
        <time>2022-02-03T10:55:02Z</time>
      </trkpt>
      <trkpt lat="45.79135" lon="6.44195">
        <ele>1585.62</ele>
        <time>2022-02-03T10:55:03Z</time>
      </trkpt>
      <trkpt lat="45.79127" lon="6.44193">
        <ele>1582.4</ele>
        <time>2022-02-03T10:55:13Z</time>
      </trkpt>
      <trkpt lat="45.79126" lon="6.44192">
        <ele>1581.54</ele>
        <time>2022-02-03T10:55:15Z</time>
      </trkpt>
      <trkpt lat="45.79122" lon="6.44188">
        <ele>1579.44</ele>
        <time>2022-02-03T10:55:22Z</time>
      </trkpt>
      <trkpt lat="45.79117" lon="6.44178">
        <ele>1576.69</ele>
        <time>2022-02-03T10:55:30Z</time>
      </trkpt>
      <trkpt lat="45.79112" lon="6.44174">
        <ele>1574.39</ele>
        <time>2022-02-03T10:55:36Z</time>
      </trkpt>
      <trkpt lat="45.79108" lon="6.44165">
        <ele>1571.42</ele>
        <time>2022-02-03T10:55:45Z</time>
      </trkpt>
      <trkpt lat="45.79106" lon="6.44151">
        <ele>1567.52</ele>
        <time>2022-02-03T10:55:57Z</time>
      </trkpt>
      <trkpt lat="45.79106" lon="6.44149">
        <ele>1567.42</ele>
        <time>2022-02-03T10:55:58Z</time>
      </trkpt>
      <trkpt lat="45.79105" lon="6.44145">
        <ele>1566.39</ele>
        <time>2022-02-03T10:56:01Z</time>
      </trkpt>
      <trkpt lat="45.79105" lon="6.4414">
        <ele>1565.61</ele>
        <time>2022-02-03T10:56:04Z</time>
      </trkpt>
      <trkpt lat="45.79108" lon="6.44131">
        <ele>1564.05</ele>
        <time>2022-02-03T10:56:19Z</time>
      </trkpt>
      <trkpt lat="45.79106" lon="6.44126">
        <ele>1562.67</ele>
        <time>2022-02-03T10:56:36Z</time>
      </trkpt>
      <trkpt lat="45.79109" lon="6.44116">
        <ele>1559.36</ele>
        <time>2022-02-03T10:56:47Z</time>
      </trkpt>
      <trkpt lat="45.79109" lon="6.44113">
        <ele>1558.59</ele>
        <time>2022-02-03T10:57:01Z</time>
      </trkpt>
      <trkpt lat="45.79108" lon="6.44117">
        <ele>1558.94</ele>
        <time>2022-02-03T10:57:28Z</time>
      </trkpt>
      <trkpt lat="45.79109" lon="6.4412">
        <ele>1559.59</ele>
        <time>2022-02-03T10:57:51Z</time>
      </trkpt>
      <trkpt lat="45.79109" lon="6.4412">
        <ele>1560.03</ele>
        <time>2022-02-03T10:58:17Z</time>
      </trkpt>
      <trkpt lat="45.79109" lon="6.44122">
        <ele>1559.66</ele>
        <time>2022-02-03T10:58:41Z</time>
      </trkpt>
      <trkpt lat="45.79112" lon="6.44118">
        <ele>1559.04</ele>
        <time>2022-02-03T10:59:02Z</time>
      </trkpt>
      <trkpt lat="45.79111" lon="6.44106">
        <ele>1556.5</ele>
        <time>2022-02-03T10:59:21Z</time>
      </trkpt>
      <trkpt lat="45.79112" lon="6.44097">
        <ele>1553.22</ele>
        <time>2022-02-03T10:59:36Z</time>
      </trkpt>
      <trkpt lat="45.79113" lon="6.44089">
        <ele>1550.2</ele>
        <time>2022-02-03T10:59:51Z</time>
      </trkpt>
      <trkpt lat="45.79114" lon="6.44081">
        <ele>1547.18</ele>
        <time>2022-02-03T11:00:08Z</time>
      </trkpt>
      <trkpt lat="45.79112" lon="6.44077">
        <ele>1545.94</ele>
        <time>2022-02-03T11:00:26Z</time>
      </trkpt>
      <trkpt lat="45.7911" lon="6.4407">
        <ele>1542.77</ele>
        <time>2022-02-03T11:00:45Z</time>
      </trkpt>
      <trkpt lat="45.79109" lon="6.44062">
        <ele>1539.7</ele>
        <time>2022-02-03T11:00:56Z</time>
      </trkpt>
      <trkpt lat="45.79104" lon="6.44058">
        <ele>1537.75</ele>
        <time>2022-02-03T11:01:12Z</time>
      </trkpt>
      <trkpt lat="45.79098" lon="6.44052">
        <ele>1535.91</ele>
        <time>2022-02-03T11:01:30Z</time>
      </trkpt>
      <trkpt lat="45.79095" lon="6.4405">
        <ele>1535.06</ele>
        <time>2022-02-03T11:01:36Z</time>
      </trkpt>
      <trkpt lat="45.79092" lon="6.44047">
        <ele>1534.13</ele>
        <time>2022-02-03T11:01:39Z</time>
      </trkpt>
      <trkpt lat="45.79087" lon="6.44038">
        <ele>1531.26</ele>
        <time>2022-02-03T11:01:51Z</time>
      </trkpt>
      <trkpt lat="45.7908" lon="6.44027">
        <ele>1529.22</ele>
        <time>2022-02-03T11:02:06Z</time>
      </trkpt>
      <trkpt lat="45.79077" lon="6.44026">
        <ele>1528.99</ele>
        <time>2022-02-03T11:02:10Z</time>
      </trkpt>
      <trkpt lat="45.79071" lon="6.44023">
        <ele>1527.89</ele>
        <time>2022-02-03T11:02:22Z</time>
      </trkpt>
      <trkpt lat="45.79067" lon="6.44017">
        <ele>1527.07</ele>
        <time>2022-02-03T11:02:34Z</time>
      </trkpt>
      <trkpt lat="45.79061" lon="6.44013">
        <ele>1526.54</ele>
        <time>2022-02-03T11:02:42Z</time>
      </trkpt>
      <trkpt lat="45.79057" lon="6.44007">
        <ele>1526.38</ele>
        <time>2022-02-03T11:02:52Z</time>
      </trkpt>
      <trkpt lat="45.79056" lon="6.44005">
        <ele>1526.23</ele>
        <time>2022-02-03T11:03:06Z</time>
      </trkpt>
      <trkpt lat="45.79057" lon="6.44013">
        <ele>1525.68</ele>
        <time>2022-02-03T11:03:22Z</time>
      </trkpt>
      <trkpt lat="45.79064" lon="6.44016">
        <ele>1526.9</ele>
        <time>2022-02-03T11:03:36Z</time>
      </trkpt>
      <trkpt lat="45.79066" lon="6.44016">
        <ele>1526.59</ele>
        <time>2022-02-03T11:03:57Z</time>
      </trkpt>
      <trkpt lat="45.79065" lon="6.44016">
        <ele>1526.73</ele>
        <time>2022-02-03T11:04:21Z</time>
      </trkpt>
      <trkpt lat="45.79064" lon="6.44015">
        <ele>1526.36</ele>
        <time>2022-02-03T11:04:47Z</time>
      </trkpt>
      <trkpt lat="45.79062" lon="6.44012">
        <ele>1526.11</ele>
        <time>2022-02-03T11:05:05Z</time>
      </trkpt>
      <trkpt lat="45.79063" lon="6.44012">
        <ele>1526.73</ele>
        <time>2022-02-03T11:05:35Z</time>
      </trkpt>
      <trkpt lat="45.79064" lon="6.44012">
        <ele>1526.58</ele>
        <time>2022-02-03T11:06:16Z</time>
      </trkpt>
      <trkpt lat="45.79065" lon="6.44007">
        <ele>1526.67</ele>
        <time>2022-02-03T11:06:34Z</time>
      </trkpt>
      <trkpt lat="45.79063" lon="6.43999">
        <ele>1526.25</ele>
        <time>2022-02-03T11:06:48Z</time>
      </trkpt>
      <trkpt lat="45.79063" lon="6.43994">
        <ele>1525.98</ele>
        <time>2022-02-03T11:06:56Z</time>
      </trkpt>
      <trkpt lat="45.79063" lon="6.43991">
        <ele>1525.91</ele>
        <time>2022-02-03T11:06:58Z</time>
      </trkpt>
      <trkpt lat="45.79063" lon="6.43985">
        <ele>1525.58</ele>
        <time>2022-02-03T11:07:03Z</time>
      </trkpt>
      <trkpt lat="45.79063" lon="6.43974">
        <ele>1525.24</ele>
        <time>2022-02-03T11:07:15Z</time>
      </trkpt>
      <trkpt lat="45.79064" lon="6.43968">
        <ele>1525.16</ele>
        <time>2022-02-03T11:07:27Z</time>
      </trkpt>
      <trkpt lat="45.79064" lon="6.43969">
        <ele>1525.19</ele>
        <time>2022-02-03T11:07:57Z</time>
      </trkpt>
      <trkpt lat="45.79065" lon="6.4397">
        <ele>1525.17</ele>
        <time>2022-02-03T11:08:09Z</time>
      </trkpt>
      <trkpt lat="45.79063" lon="6.43968">
        <ele>1525.28</ele>
        <time>2022-02-03T11:08:29Z</time>
      </trkpt>
      <trkpt lat="45.79059" lon="6.43963">
        <ele>1525.19</ele>
        <time>2022-02-03T11:08:53Z</time>
      </trkpt>
      <trkpt lat="45.79061" lon="6.43966">
        <ele>1525.23</ele>
        <time>2022-02-03T11:09:09Z</time>
      </trkpt>
      <trkpt lat="45.79059" lon="6.43965">
        <ele>1524.91</ele>
        <time>2022-02-03T11:09:31Z</time>
      </trkpt>
      <trkpt lat="45.79057" lon="6.43963">
        <ele>1524.69</ele>
        <time>2022-02-03T11:09:36Z</time>
      </trkpt>
      <trkpt lat="45.79054" lon="6.43957">
        <ele>1524.36</ele>
        <time>2022-02-03T11:09:48Z</time>
      </trkpt>
      <trkpt lat="45.79045" lon="6.43951">
        <ele>1524.34</ele>
        <time>2022-02-03T11:09:59Z</time>
      </trkpt>
      <trkpt lat="45.79043" lon="6.4395">
        <ele>1524.29</ele>
        <time>2022-02-03T11:10:01Z</time>
      </trkpt>
      <trkpt lat="45.79037" lon="6.43944">
        <ele>1524.14</ele>
        <time>2022-02-03T11:10:09Z</time>
      </trkpt>
      <trkpt lat="45.79032" lon="6.43942">
        <ele>1523.99</ele>
        <time>2022-02-03T11:10:15Z</time>
      </trkpt>
      <trkpt lat="45.7903" lon="6.43941">
        <ele>1524.27</ele>
        <time>2022-02-03T11:10:17Z</time>
      </trkpt>
      <trkpt lat="45.79024" lon="6.43936">
        <ele>1524.12</ele>
        <time>2022-02-03T11:10:27Z</time>
      </trkpt>
      <trkpt lat="45.79016" lon="6.43931">
        <ele>1524.08</ele>
        <time>2022-02-03T11:10:42Z</time>
      </trkpt>
      <trkpt lat="45.79016" lon="6.43934">
        <ele>1524.34</ele>
        <time>2022-02-03T11:11:08Z</time>
      </trkpt>
      <trkpt lat="45.79015" lon="6.43934">
        <ele>1524</ele>
        <time>2022-02-03T11:11:42Z</time>
      </trkpt>
      <trkpt lat="45.79014" lon="6.43934">
        <ele>1523.8</ele>
        <time>2022-02-03T11:12:12Z</time>
      </trkpt>
      <trkpt lat="45.79014" lon="6.43934">
        <ele>1523.73</ele>
        <time>2022-02-03T11:12:36Z</time>
      </trkpt>
      <trkpt lat="45.79015" lon="6.43934">
        <ele>1523.83</ele>
        <time>2022-02-03T11:13:12Z</time>
      </trkpt>
      <trkpt lat="45.79012" lon="6.43932">
        <ele>1524.12</ele>
        <time>2022-02-03T11:13:22Z</time>
      </trkpt>
      <trkpt lat="45.79008" lon="6.43928">
        <ele>1524.26</ele>
        <time>2022-02-03T11:13:25Z</time>
      </trkpt>
      <trkpt lat="45.79002" lon="6.43921">
        <ele>1524.19</ele>
        <time>2022-02-03T11:13:32Z</time>
      </trkpt>
      <trkpt lat="45.78994" lon="6.43907">
        <ele>1524.71</ele>
        <time>2022-02-03T11:13:43Z</time>
      </trkpt>
      <trkpt lat="45.78985" lon="6.4389">
        <ele>1525.5</ele>
        <time>2022-02-03T11:13:57Z</time>
      </trkpt>
      <trkpt lat="45.78985" lon="6.43889">
        <ele>1525.35</ele>
        <time>2022-02-03T11:13:58Z</time>
      </trkpt>
      <trkpt lat="45.78981" lon="6.43884">
        <ele>1525.35</ele>
        <time>2022-02-03T11:14:03Z</time>
      </trkpt>
      <trkpt lat="45.78979" lon="6.43883">
        <ele>1525.54</ele>
        <time>2022-02-03T11:14:05Z</time>
      </trkpt>
      <trkpt lat="45.78976" lon="6.43881">
        <ele>1525.58</ele>
        <time>2022-02-03T11:14:08Z</time>
      </trkpt>
      <trkpt lat="45.78959" lon="6.43878">
        <ele>1525.65</ele>
        <time>2022-02-03T11:14:22Z</time>
      </trkpt>
      <trkpt lat="45.7895" lon="6.43879">
        <ele>1525.51</ele>
        <time>2022-02-03T11:14:30Z</time>
      </trkpt>
      <trkpt lat="45.78948" lon="6.4388">
        <ele>1525.53</ele>
        <time>2022-02-03T11:14:32Z</time>
      </trkpt>
      <trkpt lat="45.78937" lon="6.43885">
        <ele>1524.99</ele>
        <time>2022-02-03T11:14:47Z</time>
      </trkpt>
      <trkpt lat="45.78936" lon="6.43885">
        <ele>1524.82</ele>
        <time>2022-02-03T11:14:48Z</time>
      </trkpt>
      <trkpt lat="45.78917" lon="6.43896">
        <ele>1524.73</ele>
        <time>2022-02-03T11:15:05Z</time>
      </trkpt>
      <trkpt lat="45.78904" lon="6.43903">
        <ele>1524.11</ele>
        <time>2022-02-03T11:15:18Z</time>
      </trkpt>
      <trkpt lat="45.78889" lon="6.43912">
        <ele>1523.66</ele>
        <time>2022-02-03T11:15:31Z</time>
      </trkpt>
      <trkpt lat="45.78872" lon="6.43926">
        <ele>1522.65</ele>
        <time>2022-02-03T11:15:48Z</time>
      </trkpt>
      <trkpt lat="45.78857" lon="6.43933">
        <ele>1522.46</ele>
        <time>2022-02-03T11:16:02Z</time>
      </trkpt>
      <trkpt lat="45.78843" lon="6.43934">
        <ele>1521.69</ele>
        <time>2022-02-03T11:16:14Z</time>
      </trkpt>
      <trkpt lat="45.78829" lon="6.43934">
        <ele>1521.22</ele>
        <time>2022-02-03T11:16:27Z</time>
      </trkpt>
      <trkpt lat="45.78816" lon="6.43936">
        <ele>1520.68</ele>
        <time>2022-02-03T11:16:39Z</time>
      </trkpt>
      <trkpt lat="45.78813" lon="6.43935">
        <ele>1520.73</ele>
        <time>2022-02-03T11:16:42Z</time>
      </trkpt>
      <trkpt lat="45.78796" lon="6.43942">
        <ele>1520.27</ele>
        <time>2022-02-03T11:16:57Z</time>
      </trkpt>
      <trkpt lat="45.78785" lon="6.43948">
        <ele>1520.41</ele>
        <time>2022-02-03T11:17:08Z</time>
      </trkpt>
      <trkpt lat="45.78771" lon="6.43955">
        <ele>1520.11</ele>
        <time>2022-02-03T11:17:22Z</time>
      </trkpt>
      <trkpt lat="45.78757" lon="6.43958">
        <ele>1519.98</ele>
        <time>2022-02-03T11:17:36Z</time>
      </trkpt>
      <trkpt lat="45.7874" lon="6.4396">
        <ele>1519.52</ele>
        <time>2022-02-03T11:17:50Z</time>
      </trkpt>
      <trkpt lat="45.78727" lon="6.43962">
        <ele>1519.1</ele>
        <time>2022-02-03T11:18:02Z</time>
      </trkpt>
      <trkpt lat="45.7871" lon="6.4396">
        <ele>1518.66</ele>
        <time>2022-02-03T11:18:16Z</time>
      </trkpt>
      <trkpt lat="45.78697" lon="6.43958">
        <ele>1518.41</ele>
        <time>2022-02-03T11:18:28Z</time>
      </trkpt>
      <trkpt lat="45.78683" lon="6.43957">
        <ele>1517.93</ele>
        <time>2022-02-03T11:18:39Z</time>
      </trkpt>
      <trkpt lat="45.78664" lon="6.43956">
        <ele>1517.1</ele>
        <time>2022-02-03T11:18:55Z</time>
      </trkpt>
      <trkpt lat="45.78648" lon="6.4395">
        <ele>1516.24</ele>
        <time>2022-02-03T11:19:09Z</time>
      </trkpt>
      <trkpt lat="45.78633" lon="6.43943">
        <ele>1515.62</ele>
        <time>2022-02-03T11:19:23Z</time>
      </trkpt>
      <trkpt lat="45.7862" lon="6.43934">
        <ele>1515</ele>
        <time>2022-02-03T11:19:35Z</time>
      </trkpt>
      <trkpt lat="45.78612" lon="6.43926">
        <ele>1514.79</ele>
        <time>2022-02-03T11:19:43Z</time>
      </trkpt>
      <trkpt lat="45.78608" lon="6.4392">
        <ele>1514.42</ele>
        <time>2022-02-03T11:19:48Z</time>
      </trkpt>
      <trkpt lat="45.78596" lon="6.43898">
        <ele>1513.66</ele>
        <time>2022-02-03T11:20:04Z</time>
      </trkpt>
      <trkpt lat="45.78593" lon="6.43888">
        <ele>1513.16</ele>
        <time>2022-02-03T11:20:11Z</time>
      </trkpt>
      <trkpt lat="45.78591" lon="6.43882">
        <ele>1512.89</ele>
        <time>2022-02-03T11:20:16Z</time>
      </trkpt>
      <trkpt lat="45.78591" lon="6.43876">
        <ele>1512.58</ele>
        <time>2022-02-03T11:20:19Z</time>
      </trkpt>
      <trkpt lat="45.7859" lon="6.43873">
        <ele>1512.26</ele>
        <time>2022-02-03T11:20:21Z</time>
      </trkpt>
      <trkpt lat="45.78586" lon="6.43854">
        <ele>1511.28</ele>
        <time>2022-02-03T11:20:33Z</time>
      </trkpt>
      <trkpt lat="45.78584" lon="6.43846">
        <ele>1510.84</ele>
        <time>2022-02-03T11:20:42Z</time>
      </trkpt>
      <trkpt lat="45.78583" lon="6.43841">
        <ele>1510.53</ele>
        <time>2022-02-03T11:20:45Z</time>
      </trkpt>
      <trkpt lat="45.78582" lon="6.43837">
        <ele>1510.38</ele>
        <time>2022-02-03T11:20:48Z</time>
      </trkpt>
      <trkpt lat="45.78579" lon="6.43821">
        <ele>1509.37</ele>
        <time>2022-02-03T11:20:58Z</time>
      </trkpt>
      <trkpt lat="45.78577" lon="6.4381">
        <ele>1508.85</ele>
        <time>2022-02-03T11:21:04Z</time>
      </trkpt>
      <trkpt lat="45.78572" lon="6.4379">
        <ele>1507.39</ele>
        <time>2022-02-03T11:21:18Z</time>
      </trkpt>
      <trkpt lat="45.78571" lon="6.43787">
        <ele>1507.58</ele>
        <time>2022-02-03T11:21:20Z</time>
      </trkpt>
      <trkpt lat="45.7857" lon="6.43784">
        <ele>1506.94</ele>
        <time>2022-02-03T11:21:22Z</time>
      </trkpt>
      <trkpt lat="45.7857" lon="6.43779">
        <ele>1506.72</ele>
        <time>2022-02-03T11:21:25Z</time>
      </trkpt>
      <trkpt lat="45.78569" lon="6.43776">
        <ele>1506.37</ele>
        <time>2022-02-03T11:21:26Z</time>
      </trkpt>
      <trkpt lat="45.78569" lon="6.43773">
        <ele>1506.01</ele>
        <time>2022-02-03T11:21:28Z</time>
      </trkpt>
      <trkpt lat="45.78569" lon="6.43772">
        <ele>1505.94</ele>
        <time>2022-02-03T11:21:29Z</time>
      </trkpt>
      <trkpt lat="45.78567" lon="6.43753">
        <ele>1504.61</ele>
        <time>2022-02-03T11:21:41Z</time>
      </trkpt>
      <trkpt lat="45.78566" lon="6.43751">
        <ele>1504.57</ele>
        <time>2022-02-03T11:21:42Z</time>
      </trkpt>
      <trkpt lat="45.78566" lon="6.43749">
        <ele>1504.26</ele>
        <time>2022-02-03T11:21:43Z</time>
      </trkpt>
      <trkpt lat="45.78566" lon="6.43747">
        <ele>1504.21</ele>
        <time>2022-02-03T11:21:44Z</time>
      </trkpt>
      <trkpt lat="45.78566" lon="6.43745">
        <ele>1504.47</ele>
        <time>2022-02-03T11:21:45Z</time>
      </trkpt>
      <trkpt lat="45.78565" lon="6.4374">
        <ele>1503.5</ele>
        <time>2022-02-03T11:21:49Z</time>
      </trkpt>
      <trkpt lat="45.78564" lon="6.43738">
        <ele>1503.9</ele>
        <time>2022-02-03T11:21:50Z</time>
      </trkpt>
      <trkpt lat="45.78563" lon="6.43736">
        <ele>1503.97</ele>
        <time>2022-02-03T11:21:51Z</time>
      </trkpt>
      <trkpt lat="45.7856" lon="6.43724">
        <ele>1502.52</ele>
        <time>2022-02-03T11:21:59Z</time>
      </trkpt>
      <trkpt lat="45.78559" lon="6.43723">
        <ele>1502.59</ele>
        <time>2022-02-03T11:22:00Z</time>
      </trkpt>
      <trkpt lat="45.78558" lon="6.43708">
        <ele>1501.36</ele>
        <time>2022-02-03T11:22:10Z</time>
      </trkpt>
      <trkpt lat="45.78556" lon="6.43684">
        <ele>1499.19</ele>
        <time>2022-02-03T11:22:23Z</time>
      </trkpt>
      <trkpt lat="45.78554" lon="6.43666">
        <ele>1498.3</ele>
        <time>2022-02-03T11:22:32Z</time>
      </trkpt>
      <trkpt lat="45.78554" lon="6.43663">
        <ele>1497.79</ele>
        <time>2022-02-03T11:22:34Z</time>
      </trkpt>
      <trkpt lat="45.78553" lon="6.43651">
        <ele>1496.6</ele>
        <time>2022-02-03T11:22:41Z</time>
      </trkpt>
      <trkpt lat="45.78553" lon="6.43649">
        <ele>1496.25</ele>
        <time>2022-02-03T11:22:42Z</time>
      </trkpt>
      <trkpt lat="45.78553" lon="6.43647">
        <ele>1496.22</ele>
        <time>2022-02-03T11:22:43Z</time>
      </trkpt>
      <trkpt lat="45.78553" lon="6.43644">
        <ele>1496.01</ele>
        <time>2022-02-03T11:22:45Z</time>
      </trkpt>
      <trkpt lat="45.78553" lon="6.43642">
        <ele>1495.74</ele>
        <time>2022-02-03T11:22:46Z</time>
      </trkpt>
      <trkpt lat="45.78552" lon="6.43635">
        <ele>1495.34</ele>
        <time>2022-02-03T11:22:50Z</time>
      </trkpt>
      <trkpt lat="45.78552" lon="6.43633">
        <ele>1495.28</ele>
        <time>2022-02-03T11:22:51Z</time>
      </trkpt>
      <trkpt lat="45.78551" lon="6.43631">
        <ele>1494.9</ele>
        <time>2022-02-03T11:22:52Z</time>
      </trkpt>
      <trkpt lat="45.78551" lon="6.43629">
        <ele>1494.82</ele>
        <time>2022-02-03T11:22:53Z</time>
      </trkpt>
      <trkpt lat="45.7855" lon="6.43624">
        <ele>1494.65</ele>
        <time>2022-02-03T11:22:56Z</time>
      </trkpt>
      <trkpt lat="45.7855" lon="6.43622">
        <ele>1494.51</ele>
        <time>2022-02-03T11:22:57Z</time>
      </trkpt>
      <trkpt lat="45.78548" lon="6.43617">
        <ele>1493.97</ele>
        <time>2022-02-03T11:23:00Z</time>
      </trkpt>
      <trkpt lat="45.78548" lon="6.43615">
        <ele>1493.86</ele>
        <time>2022-02-03T11:23:01Z</time>
      </trkpt>
      <trkpt lat="45.78547" lon="6.43614">
        <ele>1493.77</ele>
        <time>2022-02-03T11:23:02Z</time>
      </trkpt>
      <trkpt lat="45.78547" lon="6.43612">
        <ele>1493.69</ele>
        <time>2022-02-03T11:23:03Z</time>
      </trkpt>
      <trkpt lat="45.78546" lon="6.43611">
        <ele>1493.56</ele>
        <time>2022-02-03T11:23:04Z</time>
      </trkpt>
      <trkpt lat="45.78533" lon="6.43593">
        <ele>1491.43</ele>
        <time>2022-02-03T11:23:19Z</time>
      </trkpt>
      <trkpt lat="45.78522" lon="6.43583">
        <ele>1490.28</ele>
        <time>2022-02-03T11:23:29Z</time>
      </trkpt>
      <trkpt lat="45.7852" lon="6.43583">
        <ele>1490.07</ele>
        <time>2022-02-03T11:23:30Z</time>
      </trkpt>
      <trkpt lat="45.78518" lon="6.43582">
        <ele>1490.02</ele>
        <time>2022-02-03T11:23:31Z</time>
      </trkpt>
      <trkpt lat="45.78503" lon="6.43572">
        <ele>1488.5</ele>
        <time>2022-02-03T11:23:44Z</time>
      </trkpt>
      <trkpt lat="45.78489" lon="6.43558">
        <ele>1486.89</ele>
        <time>2022-02-03T11:23:58Z</time>
      </trkpt>
      <trkpt lat="45.78476" lon="6.43546">
        <ele>1484.95</ele>
        <time>2022-02-03T11:24:11Z</time>
      </trkpt>
      <trkpt lat="45.78466" lon="6.43535">
        <ele>1483.33</ele>
        <time>2022-02-03T11:24:23Z</time>
      </trkpt>
      <trkpt lat="45.78465" lon="6.43534">
        <ele>1483.06</ele>
        <time>2022-02-03T11:24:24Z</time>
      </trkpt>
      <trkpt lat="45.78463" lon="6.43532">
        <ele>1482.71</ele>
        <time>2022-02-03T11:24:26Z</time>
      </trkpt>
      <trkpt lat="45.78462" lon="6.43531">
        <ele>1482.56</ele>
        <time>2022-02-03T11:24:27Z</time>
      </trkpt>
      <trkpt lat="45.7846" lon="6.43531">
        <ele>1482.65</ele>
        <time>2022-02-03T11:24:28Z</time>
      </trkpt>
      <trkpt lat="45.78458" lon="6.4353">
        <ele>1482.51</ele>
        <time>2022-02-03T11:24:29Z</time>
      </trkpt>
      <trkpt lat="45.78456" lon="6.43529">
        <ele>1482.43</ele>
        <time>2022-02-03T11:24:31Z</time>
      </trkpt>
      <trkpt lat="45.78455" lon="6.43528">
        <ele>1482.15</ele>
        <time>2022-02-03T11:24:32Z</time>
      </trkpt>
      <trkpt lat="45.78437" lon="6.43516">
        <ele>1480.33</ele>
        <time>2022-02-03T11:24:46Z</time>
      </trkpt>
      <trkpt lat="45.78431" lon="6.43511">
        <ele>1479.72</ele>
        <time>2022-02-03T11:24:51Z</time>
      </trkpt>
      <trkpt lat="45.7843" lon="6.4351">
        <ele>1479.52</ele>
        <time>2022-02-03T11:24:52Z</time>
      </trkpt>
      <trkpt lat="45.78429" lon="6.43508">
        <ele>1479.39</ele>
        <time>2022-02-03T11:24:53Z</time>
      </trkpt>
      <trkpt lat="45.78428" lon="6.43507">
        <ele>1479.1</ele>
        <time>2022-02-03T11:24:54Z</time>
      </trkpt>
      <trkpt lat="45.78427" lon="6.43506">
        <ele>1479.01</ele>
        <time>2022-02-03T11:24:55Z</time>
      </trkpt>
      <trkpt lat="45.78425" lon="6.43502">
        <ele>1478.79</ele>
        <time>2022-02-03T11:24:58Z</time>
      </trkpt>
      <trkpt lat="45.78424" lon="6.43501">
        <ele>1478.28</ele>
        <time>2022-02-03T11:24:59Z</time>
      </trkpt>
      <trkpt lat="45.78422" lon="6.43501">
        <ele>1478.15</ele>
        <time>2022-02-03T11:25:00Z</time>
      </trkpt>
      <trkpt lat="45.78421" lon="6.435">
        <ele>1478.06</ele>
        <time>2022-02-03T11:25:01Z</time>
      </trkpt>
      <trkpt lat="45.78416" lon="6.43494">
        <ele>1477.35</ele>
        <time>2022-02-03T11:25:07Z</time>
      </trkpt>
      <trkpt lat="45.78414" lon="6.43493">
        <ele>1477</ele>
        <time>2022-02-03T11:25:08Z</time>
      </trkpt>
      <trkpt lat="45.78413" lon="6.43492">
        <ele>1476.88</ele>
        <time>2022-02-03T11:25:09Z</time>
      </trkpt>
      <trkpt lat="45.78412" lon="6.43491">
        <ele>1476.55</ele>
        <time>2022-02-03T11:25:10Z</time>
      </trkpt>
      <trkpt lat="45.78411" lon="6.4349">
        <ele>1476.57</ele>
        <time>2022-02-03T11:25:11Z</time>
      </trkpt>
      <trkpt lat="45.78409" lon="6.43489">
        <ele>1476.25</ele>
        <time>2022-02-03T11:25:12Z</time>
      </trkpt>
      <trkpt lat="45.78397" lon="6.43474">
        <ele>1474.61</ele>
        <time>2022-02-03T11:25:24Z</time>
      </trkpt>
      <trkpt lat="45.78395" lon="6.43472">
        <ele>1474.35</ele>
        <time>2022-02-03T11:25:27Z</time>
      </trkpt>
      <trkpt lat="45.78394" lon="6.4347">
        <ele>1474.21</ele>
        <time>2022-02-03T11:25:28Z</time>
      </trkpt>
      <trkpt lat="45.78392" lon="6.43469">
        <ele>1474.03</ele>
        <time>2022-02-03T11:25:29Z</time>
      </trkpt>
      <trkpt lat="45.78391" lon="6.43467">
        <ele>1473.67</ele>
        <time>2022-02-03T11:25:30Z</time>
      </trkpt>
      <trkpt lat="45.78391" lon="6.43465">
        <ele>1472.98</ele>
        <time>2022-02-03T11:25:31Z</time>
      </trkpt>
      <trkpt lat="45.7839" lon="6.43463">
        <ele>1473.21</ele>
        <time>2022-02-03T11:25:32Z</time>
      </trkpt>
      <trkpt lat="45.78388" lon="6.43462">
        <ele>1473.09</ele>
        <time>2022-02-03T11:25:33Z</time>
      </trkpt>
      <trkpt lat="45.78387" lon="6.4346">
        <ele>1473.12</ele>
        <time>2022-02-03T11:25:34Z</time>
      </trkpt>
      <trkpt lat="45.78371" lon="6.43436">
        <ele>1470.71</ele>
        <time>2022-02-03T11:25:50Z</time>
      </trkpt>
      <trkpt lat="45.78366" lon="6.43432">
        <ele>1469.87</ele>
        <time>2022-02-03T11:25:55Z</time>
      </trkpt>
      <trkpt lat="45.78365" lon="6.4343">
        <ele>1469.55</ele>
        <time>2022-02-03T11:25:56Z</time>
      </trkpt>
      <trkpt lat="45.78364" lon="6.43428">
        <ele>1469.45</ele>
        <time>2022-02-03T11:25:57Z</time>
      </trkpt>
      <trkpt lat="45.78352" lon="6.43404">
        <ele>1467.13</ele>
        <time>2022-02-03T11:26:12Z</time>
      </trkpt>
      <trkpt lat="45.7835" lon="6.43398">
        <ele>1466.02</ele>
        <time>2022-02-03T11:26:16Z</time>
      </trkpt>
      <trkpt lat="45.7835" lon="6.43396">
        <ele>1465.84</ele>
        <time>2022-02-03T11:26:17Z</time>
      </trkpt>
      <trkpt lat="45.78349" lon="6.43395">
        <ele>1465.75</ele>
        <time>2022-02-03T11:26:18Z</time>
      </trkpt>
      <trkpt lat="45.78348" lon="6.43394">
        <ele>1465.63</ele>
        <time>2022-02-03T11:26:19Z</time>
      </trkpt>
      <trkpt lat="45.78348" lon="6.43392">
        <ele>1465.3</ele>
        <time>2022-02-03T11:26:20Z</time>
      </trkpt>
      <trkpt lat="45.78347" lon="6.43391">
        <ele>1465.09</ele>
        <time>2022-02-03T11:26:21Z</time>
      </trkpt>
      <trkpt lat="45.78346" lon="6.43389">
        <ele>1464.96</ele>
        <time>2022-02-03T11:26:22Z</time>
      </trkpt>
      <trkpt lat="45.78346" lon="6.43387">
        <ele>1464.45</ele>
        <time>2022-02-03T11:26:23Z</time>
      </trkpt>
      <trkpt lat="45.78345" lon="6.43385">
        <ele>1464.33</ele>
        <time>2022-02-03T11:26:24Z</time>
      </trkpt>
      <trkpt lat="45.78343" lon="6.4337">
        <ele>1463.07</ele>
        <time>2022-02-03T11:26:32Z</time>
      </trkpt>
      <trkpt lat="45.78342" lon="6.43369">
        <ele>1462.98</ele>
        <time>2022-02-03T11:26:33Z</time>
      </trkpt>
      <trkpt lat="45.78341" lon="6.43367">
        <ele>1462.8</ele>
        <time>2022-02-03T11:26:34Z</time>
      </trkpt>
      <trkpt lat="45.78341" lon="6.43365">
        <ele>1463.09</ele>
        <time>2022-02-03T11:26:35Z</time>
      </trkpt>
      <trkpt lat="45.7834" lon="6.43363">
        <ele>1462.91</ele>
        <time>2022-02-03T11:26:36Z</time>
      </trkpt>
      <trkpt lat="45.7834" lon="6.43361">
        <ele>1462.68</ele>
        <time>2022-02-03T11:26:37Z</time>
      </trkpt>
      <trkpt lat="45.78339" lon="6.43359">
        <ele>1462.48</ele>
        <time>2022-02-03T11:26:38Z</time>
      </trkpt>
      <trkpt lat="45.78338" lon="6.43357">
        <ele>1462.22</ele>
        <time>2022-02-03T11:26:39Z</time>
      </trkpt>
      <trkpt lat="45.78334" lon="6.43331">
        <ele>1458.93</ele>
        <time>2022-02-03T11:26:53Z</time>
      </trkpt>
      <trkpt lat="45.78333" lon="6.43327">
        <ele>1458.44</ele>
        <time>2022-02-03T11:26:56Z</time>
      </trkpt>
      <trkpt lat="45.78332" lon="6.43326">
        <ele>1458.11</ele>
        <time>2022-02-03T11:26:57Z</time>
      </trkpt>
      <trkpt lat="45.7833" lon="6.43324">
        <ele>1458.22</ele>
        <time>2022-02-03T11:26:58Z</time>
      </trkpt>
      <trkpt lat="45.7832" lon="6.43322">
        <ele>1456.79</ele>
        <time>2022-02-03T11:27:05Z</time>
      </trkpt>
      <trkpt lat="45.78319" lon="6.43322">
        <ele>1456.51</ele>
        <time>2022-02-03T11:27:06Z</time>
      </trkpt>
      <trkpt lat="45.78314" lon="6.43328">
        <ele>1455.93</ele>
        <time>2022-02-03T11:27:12Z</time>
      </trkpt>
      <trkpt lat="45.78312" lon="6.43338">
        <ele>1455.96</ele>
        <time>2022-02-03T11:27:18Z</time>
      </trkpt>
      <trkpt lat="45.78312" lon="6.4334">
        <ele>1455.92</ele>
        <time>2022-02-03T11:27:19Z</time>
      </trkpt>
      <trkpt lat="45.78312" lon="6.43344">
        <ele>1456.08</ele>
        <time>2022-02-03T11:27:22Z</time>
      </trkpt>
      <trkpt lat="45.78312" lon="6.43346">
        <ele>1455.85</ele>
        <time>2022-02-03T11:27:23Z</time>
      </trkpt>
      <trkpt lat="45.78319" lon="6.43368">
        <ele>1455.19</ele>
        <time>2022-02-03T11:27:37Z</time>
      </trkpt>
      <trkpt lat="45.7832" lon="6.43369">
        <ele>1455.43</ele>
        <time>2022-02-03T11:27:38Z</time>
      </trkpt>
      <trkpt lat="45.78324" lon="6.43375">
        <ele>1455.32</ele>
        <time>2022-02-03T11:27:42Z</time>
      </trkpt>
      <trkpt lat="45.78325" lon="6.4338">
        <ele>1455.02</ele>
        <time>2022-02-03T11:27:45Z</time>
      </trkpt>
      <trkpt lat="45.78326" lon="6.43381">
        <ele>1455.28</ele>
        <time>2022-02-03T11:27:46Z</time>
      </trkpt>
      <trkpt lat="45.78326" lon="6.43384">
        <ele>1455.33</ele>
        <time>2022-02-03T11:27:48Z</time>
      </trkpt>
      <trkpt lat="45.78336" lon="6.4341">
        <ele>1454.72</ele>
        <time>2022-02-03T11:28:05Z</time>
      </trkpt>
      <trkpt lat="45.78336" lon="6.43411">
        <ele>1454.58</ele>
        <time>2022-02-03T11:28:06Z</time>
      </trkpt>
      <trkpt lat="45.78341" lon="6.43419">
        <ele>1454.85</ele>
        <time>2022-02-03T11:28:12Z</time>
      </trkpt>
      <trkpt lat="45.78343" lon="6.43425">
        <ele>1454.73</ele>
        <time>2022-02-03T11:28:16Z</time>
      </trkpt>
      <trkpt lat="45.78343" lon="6.43427">
        <ele>1454.69</ele>
        <time>2022-02-03T11:28:17Z</time>
      </trkpt>
      <trkpt lat="45.78347" lon="6.43431">
        <ele>1454.47</ele>
        <time>2022-02-03T11:28:20Z</time>
      </trkpt>
      <trkpt lat="45.78347" lon="6.43432">
        <ele>1454.41</ele>
        <time>2022-02-03T11:28:21Z</time>
      </trkpt>
      <trkpt lat="45.78348" lon="6.43434">
        <ele>1454.44</ele>
        <time>2022-02-03T11:28:22Z</time>
      </trkpt>
      <trkpt lat="45.78349" lon="6.43435">
        <ele>1454.43</ele>
        <time>2022-02-03T11:28:23Z</time>
      </trkpt>
      <trkpt lat="45.78351" lon="6.43439">
        <ele>1454.09</ele>
        <time>2022-02-03T11:28:26Z</time>
      </trkpt>
      <trkpt lat="45.78352" lon="6.43441">
        <ele>1454.08</ele>
        <time>2022-02-03T11:28:27Z</time>
      </trkpt>
      <trkpt lat="45.78352" lon="6.43443">
        <ele>1454.11</ele>
        <time>2022-02-03T11:28:28Z</time>
      </trkpt>
      <trkpt lat="45.78353" lon="6.43444">
        <ele>1453.95</ele>
        <time>2022-02-03T11:28:29Z</time>
      </trkpt>
      <trkpt lat="45.78354" lon="6.43445">
        <ele>1453.73</ele>
        <time>2022-02-03T11:28:30Z</time>
      </trkpt>
      <trkpt lat="45.78355" lon="6.43446">
        <ele>1453.72</ele>
        <time>2022-02-03T11:28:31Z</time>
      </trkpt>
      <trkpt lat="45.7836" lon="6.4346">
        <ele>1453.47</ele>
        <time>2022-02-03T11:28:40Z</time>
      </trkpt>
      <trkpt lat="45.78364" lon="6.43468">
        <ele>1452.87</ele>
        <time>2022-02-03T11:28:46Z</time>
      </trkpt>
      <trkpt lat="45.78365" lon="6.43472">
        <ele>1452.74</ele>
        <time>2022-02-03T11:28:48Z</time>
      </trkpt>
      <trkpt lat="45.78367" lon="6.43473">
        <ele>1452.73</ele>
        <time>2022-02-03T11:28:49Z</time>
      </trkpt>
      <trkpt lat="45.78368" lon="6.43477">
        <ele>1452.6</ele>
        <time>2022-02-03T11:28:52Z</time>
      </trkpt>
      <trkpt lat="45.7837" lon="6.43482">
        <ele>1452.74</ele>
        <time>2022-02-03T11:28:55Z</time>
      </trkpt>
      <trkpt lat="45.78371" lon="6.43483">
        <ele>1452.67</ele>
        <time>2022-02-03T11:28:56Z</time>
      </trkpt>
      <trkpt lat="45.78372" lon="6.43484">
        <ele>1452.55</ele>
        <time>2022-02-03T11:28:57Z</time>
      </trkpt>
      <trkpt lat="45.78373" lon="6.43486">
        <ele>1452.62</ele>
        <time>2022-02-03T11:28:58Z</time>
      </trkpt>
      <trkpt lat="45.78373" lon="6.43487">
        <ele>1452.39</ele>
        <time>2022-02-03T11:28:59Z</time>
      </trkpt>
      <trkpt lat="45.78373" lon="6.43491">
        <ele>1452.28</ele>
        <time>2022-02-03T11:29:01Z</time>
      </trkpt>
      <trkpt lat="45.78374" lon="6.43492">
        <ele>1452.18</ele>
        <time>2022-02-03T11:29:02Z</time>
      </trkpt>
      <trkpt lat="45.78375" lon="6.43493">
        <ele>1452.07</ele>
        <time>2022-02-03T11:29:03Z</time>
      </trkpt>
      <trkpt lat="45.78376" lon="6.43496">
        <ele>1452.02</ele>
        <time>2022-02-03T11:29:05Z</time>
      </trkpt>
      <trkpt lat="45.78376" lon="6.43498">
        <ele>1451.74</ele>
        <time>2022-02-03T11:29:06Z</time>
      </trkpt>
      <trkpt lat="45.78377" lon="6.43499">
        <ele>1451.78</ele>
        <time>2022-02-03T11:29:07Z</time>
      </trkpt>
      <trkpt lat="45.78378" lon="6.43501">
        <ele>1451.67</ele>
        <time>2022-02-03T11:29:08Z</time>
      </trkpt>
      <trkpt lat="45.78378" lon="6.43503">
        <ele>1451.57</ele>
        <time>2022-02-03T11:29:09Z</time>
      </trkpt>
      <trkpt lat="45.78379" lon="6.43504">
        <ele>1451.42</ele>
        <time>2022-02-03T11:29:10Z</time>
      </trkpt>
      <trkpt lat="45.7838" lon="6.43505">
        <ele>1451.52</ele>
        <time>2022-02-03T11:29:11Z</time>
      </trkpt>
      <trkpt lat="45.78381" lon="6.43506">
        <ele>1451.24</ele>
        <time>2022-02-03T11:29:12Z</time>
      </trkpt>
      <trkpt lat="45.78382" lon="6.43508">
        <ele>1451.33</ele>
        <time>2022-02-03T11:29:13Z</time>
      </trkpt>
      <trkpt lat="45.78382" lon="6.4351">
        <ele>1451.2</ele>
        <time>2022-02-03T11:29:14Z</time>
      </trkpt>
      <trkpt lat="45.78383" lon="6.43512">
        <ele>1451.12</ele>
        <time>2022-02-03T11:29:15Z</time>
      </trkpt>
      <trkpt lat="45.78383" lon="6.43513">
        <ele>1451.2</ele>
        <time>2022-02-03T11:29:16Z</time>
      </trkpt>
      <trkpt lat="45.78384" lon="6.43515">
        <ele>1451.02</ele>
        <time>2022-02-03T11:29:17Z</time>
      </trkpt>
      <trkpt lat="45.78385" lon="6.43516">
        <ele>1451.02</ele>
        <time>2022-02-03T11:29:18Z</time>
      </trkpt>
      <trkpt lat="45.7839" lon="6.43526">
        <ele>1450.55</ele>
        <time>2022-02-03T11:29:25Z</time>
      </trkpt>
      <trkpt lat="45.78394" lon="6.43533">
        <ele>1450.64</ele>
        <time>2022-02-03T11:29:30Z</time>
      </trkpt>
      <trkpt lat="45.78394" lon="6.43534">
        <ele>1450.63</ele>
        <time>2022-02-03T11:29:31Z</time>
      </trkpt>
      <trkpt lat="45.78395" lon="6.43536">
        <ele>1450.54</ele>
        <time>2022-02-03T11:29:32Z</time>
      </trkpt>
      <trkpt lat="45.78397" lon="6.43537">
        <ele>1450.66</ele>
        <time>2022-02-03T11:29:33Z</time>
      </trkpt>
      <trkpt lat="45.78399" lon="6.4354">
        <ele>1450.73</ele>
        <time>2022-02-03T11:29:36Z</time>
      </trkpt>
      <trkpt lat="45.784" lon="6.43541">
        <ele>1450.81</ele>
        <time>2022-02-03T11:29:37Z</time>
      </trkpt>
      <trkpt lat="45.78401" lon="6.43543">
        <ele>1450.61</ele>
        <time>2022-02-03T11:29:38Z</time>
      </trkpt>
      <trkpt lat="45.78402" lon="6.43544">
        <ele>1450.78</ele>
        <time>2022-02-03T11:29:39Z</time>
      </trkpt>
      <trkpt lat="45.78403" lon="6.43545">
        <ele>1450.66</ele>
        <time>2022-02-03T11:29:40Z</time>
      </trkpt>
      <trkpt lat="45.78404" lon="6.43546">
        <ele>1450.61</ele>
        <time>2022-02-03T11:29:41Z</time>
      </trkpt>
      <trkpt lat="45.78406" lon="6.43547">
        <ele>1450.52</ele>
        <time>2022-02-03T11:29:42Z</time>
      </trkpt>
      <trkpt lat="45.78407" lon="6.43549">
        <ele>1449.94</ele>
        <time>2022-02-03T11:29:43Z</time>
      </trkpt>
      <trkpt lat="45.78408" lon="6.43552">
        <ele>1450.33</ele>
        <time>2022-02-03T11:29:45Z</time>
      </trkpt>
      <trkpt lat="45.78408" lon="6.43554">
        <ele>1450.15</ele>
        <time>2022-02-03T11:29:46Z</time>
      </trkpt>
      <trkpt lat="45.78409" lon="6.43555">
        <ele>1450.18</ele>
        <time>2022-02-03T11:29:47Z</time>
      </trkpt>
      <trkpt lat="45.7841" lon="6.43556">
        <ele>1450.14</ele>
        <time>2022-02-03T11:29:48Z</time>
      </trkpt>
      <trkpt lat="45.78411" lon="6.43558">
        <ele>1449.95</ele>
        <time>2022-02-03T11:29:49Z</time>
      </trkpt>
      <trkpt lat="45.78412" lon="6.43559">
        <ele>1449.97</ele>
        <time>2022-02-03T11:29:50Z</time>
      </trkpt>
      <trkpt lat="45.78413" lon="6.4356">
        <ele>1449.84</ele>
        <time>2022-02-03T11:29:51Z</time>
      </trkpt>
      <trkpt lat="45.78415" lon="6.43561">
        <ele>1449.91</ele>
        <time>2022-02-03T11:29:52Z</time>
      </trkpt>
      <trkpt lat="45.78416" lon="6.43564">
        <ele>1449.87</ele>
        <time>2022-02-03T11:29:54Z</time>
      </trkpt>
      <trkpt lat="45.78417" lon="6.43565">
        <ele>1449.72</ele>
        <time>2022-02-03T11:29:55Z</time>
      </trkpt>
      <trkpt lat="45.78422" lon="6.43569">
        <ele>1449.3</ele>
        <time>2022-02-03T11:29:59Z</time>
      </trkpt>
      <trkpt lat="45.78423" lon="6.4357">
        <ele>1449.34</ele>
        <time>2022-02-03T11:30:00Z</time>
      </trkpt>
      <trkpt lat="45.78424" lon="6.43572">
        <ele>1448.97</ele>
        <time>2022-02-03T11:30:02Z</time>
      </trkpt>
      <trkpt lat="45.78425" lon="6.43573">
        <ele>1448.95</ele>
        <time>2022-02-03T11:30:03Z</time>
      </trkpt>
      <trkpt lat="45.78428" lon="6.43576">
        <ele>1448.89</ele>
        <time>2022-02-03T11:30:06Z</time>
      </trkpt>
      <trkpt lat="45.78431" lon="6.43579">
        <ele>1448.45</ele>
        <time>2022-02-03T11:30:09Z</time>
      </trkpt>
      <trkpt lat="45.78432" lon="6.4358">
        <ele>1448.37</ele>
        <time>2022-02-03T11:30:10Z</time>
      </trkpt>
      <trkpt lat="45.78433" lon="6.43582">
        <ele>1448.38</ele>
        <time>2022-02-03T11:30:11Z</time>
      </trkpt>
      <trkpt lat="45.78434" lon="6.43584">
        <ele>1448.21</ele>
        <time>2022-02-03T11:30:12Z</time>
      </trkpt>
      <trkpt lat="45.78435" lon="6.43585">
        <ele>1448.25</ele>
        <time>2022-02-03T11:30:13Z</time>
      </trkpt>
      <trkpt lat="45.78436" lon="6.43586">
        <ele>1448.23</ele>
        <time>2022-02-03T11:30:14Z</time>
      </trkpt>
      <trkpt lat="45.78438" lon="6.43587">
        <ele>1448.12</ele>
        <time>2022-02-03T11:30:15Z</time>
      </trkpt>
      <trkpt lat="45.78439" lon="6.43589">
        <ele>1448.09</ele>
        <time>2022-02-03T11:30:16Z</time>
      </trkpt>
      <trkpt lat="45.78445" lon="6.43599">
        <ele>1447.48</ele>
        <time>2022-02-03T11:30:23Z</time>
      </trkpt>
      <trkpt lat="45.78446" lon="6.436">
        <ele>1447.48</ele>
        <time>2022-02-03T11:30:24Z</time>
      </trkpt>
      <trkpt lat="45.78447" lon="6.43601">
        <ele>1447.46</ele>
        <time>2022-02-03T11:30:25Z</time>
      </trkpt>
      <trkpt lat="45.78448" lon="6.43604">
        <ele>1447.09</ele>
        <time>2022-02-03T11:30:27Z</time>
      </trkpt>
      <trkpt lat="45.78449" lon="6.43606">
        <ele>1446.9</ele>
        <time>2022-02-03T11:30:28Z</time>
      </trkpt>
      <trkpt lat="45.7845" lon="6.43608">
        <ele>1447.28</ele>
        <time>2022-02-03T11:30:29Z</time>
      </trkpt>
      <trkpt lat="45.7845" lon="6.4361">
        <ele>1447.2</ele>
        <time>2022-02-03T11:30:30Z</time>
      </trkpt>
      <trkpt lat="45.78452" lon="6.43611">
        <ele>1447.24</ele>
        <time>2022-02-03T11:30:31Z</time>
      </trkpt>
      <trkpt lat="45.78453" lon="6.43613">
        <ele>1447.1</ele>
        <time>2022-02-03T11:30:32Z</time>
      </trkpt>
      <trkpt lat="45.78454" lon="6.43614">
        <ele>1446.95</ele>
        <time>2022-02-03T11:30:33Z</time>
      </trkpt>
      <trkpt lat="45.78455" lon="6.43615">
        <ele>1446.84</ele>
        <time>2022-02-03T11:30:34Z</time>
      </trkpt>
      <trkpt lat="45.78456" lon="6.43617">
        <ele>1446.74</ele>
        <time>2022-02-03T11:30:35Z</time>
      </trkpt>
      <trkpt lat="45.78457" lon="6.43619">
        <ele>1446.61</ele>
        <time>2022-02-03T11:30:36Z</time>
      </trkpt>
      <trkpt lat="45.78457" lon="6.4362">
        <ele>1446.42</ele>
        <time>2022-02-03T11:30:37Z</time>
      </trkpt>
      <trkpt lat="45.78458" lon="6.43622">
        <ele>1446.44</ele>
        <time>2022-02-03T11:30:38Z</time>
      </trkpt>
      <trkpt lat="45.78459" lon="6.43624">
        <ele>1446.53</ele>
        <time>2022-02-03T11:30:39Z</time>
      </trkpt>
      <trkpt lat="45.7846" lon="6.43625">
        <ele>1446.48</ele>
        <time>2022-02-03T11:30:40Z</time>
      </trkpt>
      <trkpt lat="45.78462" lon="6.43626">
        <ele>1446.38</ele>
        <time>2022-02-03T11:30:41Z</time>
      </trkpt>
      <trkpt lat="45.78464" lon="6.43631">
        <ele>1445.86</ele>
        <time>2022-02-03T11:30:44Z</time>
      </trkpt>
      <trkpt lat="45.78465" lon="6.43633">
        <ele>1445.93</ele>
        <time>2022-02-03T11:30:45Z</time>
      </trkpt>
      <trkpt lat="45.78465" lon="6.43635">
        <ele>1445.75</ele>
        <time>2022-02-03T11:30:46Z</time>
      </trkpt>
      <trkpt lat="45.78466" lon="6.43637">
        <ele>1445.45</ele>
        <time>2022-02-03T11:30:47Z</time>
      </trkpt>
      <trkpt lat="45.78467" lon="6.43639">
        <ele>1445.39</ele>
        <time>2022-02-03T11:30:48Z</time>
      </trkpt>
      <trkpt lat="45.78468" lon="6.4364">
        <ele>1445.36</ele>
        <time>2022-02-03T11:30:49Z</time>
      </trkpt>
      <trkpt lat="45.78469" lon="6.43641">
        <ele>1445.37</ele>
        <time>2022-02-03T11:30:50Z</time>
      </trkpt>
      <trkpt lat="45.7847" lon="6.43642">
        <ele>1445.35</ele>
        <time>2022-02-03T11:30:51Z</time>
      </trkpt>
      <trkpt lat="45.78471" lon="6.43644">
        <ele>1445.24</ele>
        <time>2022-02-03T11:30:52Z</time>
      </trkpt>
      <trkpt lat="45.78471" lon="6.43646">
        <ele>1445.21</ele>
        <time>2022-02-03T11:30:53Z</time>
      </trkpt>
      <trkpt lat="45.78472" lon="6.43647">
        <ele>1445.22</ele>
        <time>2022-02-03T11:30:54Z</time>
      </trkpt>
      <trkpt lat="45.78472" lon="6.43649">
        <ele>1444.98</ele>
        <time>2022-02-03T11:30:55Z</time>
      </trkpt>
      <trkpt lat="45.78474" lon="6.43654">
        <ele>1444.65</ele>
        <time>2022-02-03T11:30:58Z</time>
      </trkpt>
      <trkpt lat="45.78476" lon="6.43658">
        <ele>1444.65</ele>
        <time>2022-02-03T11:31:01Z</time>
      </trkpt>
      <trkpt lat="45.78477" lon="6.43659">
        <ele>1444.51</ele>
        <time>2022-02-03T11:31:02Z</time>
      </trkpt>
      <trkpt lat="45.78477" lon="6.43661">
        <ele>1444.26</ele>
        <time>2022-02-03T11:31:03Z</time>
      </trkpt>
      <trkpt lat="45.78477" lon="6.43663">
        <ele>1444.39</ele>
        <time>2022-02-03T11:31:04Z</time>
      </trkpt>
      <trkpt lat="45.78478" lon="6.43666">
        <ele>1444.17</ele>
        <time>2022-02-03T11:31:05Z</time>
      </trkpt>
      <trkpt lat="45.78478" lon="6.43668">
        <ele>1444</ele>
        <time>2022-02-03T11:31:06Z</time>
      </trkpt>
      <trkpt lat="45.78476" lon="6.43687">
        <ele>1443.06</ele>
        <time>2022-02-03T11:31:14Z</time>
      </trkpt>
      <trkpt lat="45.78476" lon="6.43689">
        <ele>1443.16</ele>
        <time>2022-02-03T11:31:15Z</time>
      </trkpt>
      <trkpt lat="45.78476" lon="6.43691">
        <ele>1442.96</ele>
        <time>2022-02-03T11:31:16Z</time>
      </trkpt>
      <trkpt lat="45.78476" lon="6.43693">
        <ele>1443.1</ele>
        <time>2022-02-03T11:31:17Z</time>
      </trkpt>
      <trkpt lat="45.78476" lon="6.43695">
        <ele>1443.02</ele>
        <time>2022-02-03T11:31:18Z</time>
      </trkpt>
      <trkpt lat="45.78476" lon="6.43698">
        <ele>1443.04</ele>
        <time>2022-02-03T11:31:19Z</time>
      </trkpt>
      <trkpt lat="45.78476" lon="6.437">
        <ele>1442.64</ele>
        <time>2022-02-03T11:31:20Z</time>
      </trkpt>
      <trkpt lat="45.78476" lon="6.43702">
        <ele>1442.62</ele>
        <time>2022-02-03T11:31:21Z</time>
      </trkpt>
      <trkpt lat="45.78474" lon="6.43722">
        <ele>1442.06</ele>
        <time>2022-02-03T11:31:32Z</time>
      </trkpt>
      <trkpt lat="45.78475" lon="6.43723">
        <ele>1442.07</ele>
        <time>2022-02-03T11:31:33Z</time>
      </trkpt>
      <trkpt lat="45.78476" lon="6.43728">
        <ele>1441.89</ele>
        <time>2022-02-03T11:31:36Z</time>
      </trkpt>
      <trkpt lat="45.78476" lon="6.43729">
        <ele>1441.71</ele>
        <time>2022-02-03T11:31:37Z</time>
      </trkpt>
      <trkpt lat="45.78476" lon="6.43732">
        <ele>1441.92</ele>
        <time>2022-02-03T11:31:38Z</time>
      </trkpt>
      <trkpt lat="45.78476" lon="6.43734">
        <ele>1441.86</ele>
        <time>2022-02-03T11:31:39Z</time>
      </trkpt>
      <trkpt lat="45.78476" lon="6.43735">
        <ele>1441.86</ele>
        <time>2022-02-03T11:31:40Z</time>
      </trkpt>
      <trkpt lat="45.78477" lon="6.43737">
        <ele>1441.38</ele>
        <time>2022-02-03T11:31:41Z</time>
      </trkpt>
      <trkpt lat="45.78477" lon="6.43738">
        <ele>1441.6</ele>
        <time>2022-02-03T11:31:42Z</time>
      </trkpt>
      <trkpt lat="45.78478" lon="6.43739">
        <ele>1441.05</ele>
        <time>2022-02-03T11:31:43Z</time>
      </trkpt>
      <trkpt lat="45.78478" lon="6.43741">
        <ele>1441.15</ele>
        <time>2022-02-03T11:31:44Z</time>
      </trkpt>
      <trkpt lat="45.78479" lon="6.43743">
        <ele>1441.1</ele>
        <time>2022-02-03T11:31:45Z</time>
      </trkpt>
      <trkpt lat="45.78479" lon="6.43744">
        <ele>1441.04</ele>
        <time>2022-02-03T11:31:46Z</time>
      </trkpt>
      <trkpt lat="45.78479" lon="6.43756">
        <ele>1440.53</ele>
        <time>2022-02-03T11:31:52Z</time>
      </trkpt>
      <trkpt lat="45.7848" lon="6.43758">
        <ele>1440.52</ele>
        <time>2022-02-03T11:31:53Z</time>
      </trkpt>
      <trkpt lat="45.78481" lon="6.43761">
        <ele>1439.9</ele>
        <time>2022-02-03T11:31:55Z</time>
      </trkpt>
      <trkpt lat="45.78483" lon="6.43784">
        <ele>1438.63</ele>
        <time>2022-02-03T11:32:07Z</time>
      </trkpt>
      <trkpt lat="45.78483" lon="6.43786">
        <ele>1438.71</ele>
        <time>2022-02-03T11:32:08Z</time>
      </trkpt>
      <trkpt lat="45.78484" lon="6.43788">
        <ele>1438.74</ele>
        <time>2022-02-03T11:32:09Z</time>
      </trkpt>
      <trkpt lat="45.78485" lon="6.4379">
        <ele>1438.4</ele>
        <time>2022-02-03T11:32:10Z</time>
      </trkpt>
      <trkpt lat="45.78485" lon="6.43792">
        <ele>1438.27</ele>
        <time>2022-02-03T11:32:11Z</time>
      </trkpt>
      <trkpt lat="45.78486" lon="6.43795">
        <ele>1438.04</ele>
        <time>2022-02-03T11:32:13Z</time>
      </trkpt>
      <trkpt lat="45.78487" lon="6.43797">
        <ele>1438.24</ele>
        <time>2022-02-03T11:32:14Z</time>
      </trkpt>
      <trkpt lat="45.78487" lon="6.43799">
        <ele>1437.98</ele>
        <time>2022-02-03T11:32:15Z</time>
      </trkpt>
      <trkpt lat="45.78488" lon="6.43823">
        <ele>1436.61</ele>
        <time>2022-02-03T11:32:27Z</time>
      </trkpt>
      <trkpt lat="45.78489" lon="6.43842">
        <ele>1435.79</ele>
        <time>2022-02-03T11:32:37Z</time>
      </trkpt>
      <trkpt lat="45.78489" lon="6.43844">
        <ele>1436</ele>
        <time>2022-02-03T11:32:38Z</time>
      </trkpt>
      <trkpt lat="45.78489" lon="6.43846">
        <ele>1436.05</ele>
        <time>2022-02-03T11:32:39Z</time>
      </trkpt>
      <trkpt lat="45.78494" lon="6.4388">
        <ele>1433.93</ele>
        <time>2022-02-03T11:32:56Z</time>
      </trkpt>
      <trkpt lat="45.78498" lon="6.43908">
        <ele>1432.89</ele>
        <time>2022-02-03T11:33:10Z</time>
      </trkpt>
      <trkpt lat="45.78501" lon="6.43936">
        <ele>1431.11</ele>
        <time>2022-02-03T11:33:24Z</time>
      </trkpt>
      <trkpt lat="45.78502" lon="6.43938">
        <ele>1431.19</ele>
        <time>2022-02-03T11:33:25Z</time>
      </trkpt>
      <trkpt lat="45.78502" lon="6.4394">
        <ele>1431.23</ele>
        <time>2022-02-03T11:33:26Z</time>
      </trkpt>
      <trkpt lat="45.78505" lon="6.43969">
        <ele>1430.26</ele>
        <time>2022-02-03T11:33:41Z</time>
      </trkpt>
      <trkpt lat="45.7851" lon="6.43996">
        <ele>1428.74</ele>
        <time>2022-02-03T11:33:55Z</time>
      </trkpt>
      <trkpt lat="45.78514" lon="6.44017">
        <ele>1427.87</ele>
        <time>2022-02-03T11:34:07Z</time>
      </trkpt>
      <trkpt lat="45.78515" lon="6.44019">
        <ele>1427.6</ele>
        <time>2022-02-03T11:34:08Z</time>
      </trkpt>
      <trkpt lat="45.78515" lon="6.4402">
        <ele>1427.43</ele>
        <time>2022-02-03T11:34:09Z</time>
      </trkpt>
      <trkpt lat="45.78515" lon="6.44022">
        <ele>1427.47</ele>
        <time>2022-02-03T11:34:10Z</time>
      </trkpt>
      <trkpt lat="45.78515" lon="6.44024">
        <ele>1427.3</ele>
        <time>2022-02-03T11:34:11Z</time>
      </trkpt>
      <trkpt lat="45.78515" lon="6.44026">
        <ele>1427.16</ele>
        <time>2022-02-03T11:34:12Z</time>
      </trkpt>
      <trkpt lat="45.78515" lon="6.44028">
        <ele>1427.17</ele>
        <time>2022-02-03T11:34:13Z</time>
      </trkpt>
      <trkpt lat="45.78515" lon="6.4403">
        <ele>1427.06</ele>
        <time>2022-02-03T11:34:14Z</time>
      </trkpt>
      <trkpt lat="45.78515" lon="6.44032">
        <ele>1427.25</ele>
        <time>2022-02-03T11:34:15Z</time>
      </trkpt>
      <trkpt lat="45.78507" lon="6.44053">
        <ele>1426.08</ele>
        <time>2022-02-03T11:34:30Z</time>
      </trkpt>
      <trkpt lat="45.78505" lon="6.44059">
        <ele>1426.59</ele>
        <time>2022-02-03T11:34:37Z</time>
      </trkpt>
      <trkpt lat="45.78505" lon="6.44061">
        <ele>1427.22</ele>
        <time>2022-02-03T11:34:52Z</time>
      </trkpt>
      <trkpt lat="45.78505" lon="6.4406">
        <ele>1427.29</ele>
        <time>2022-02-03T11:35:14Z</time>
      </trkpt>
      <trkpt lat="45.78505" lon="6.44059">
        <ele>1427.18</ele>
        <time>2022-02-03T11:35:55Z</time>
      </trkpt>
      <trkpt lat="45.78505" lon="6.4406">
        <ele>1428.1</ele>
        <time>2022-02-03T11:36:10Z</time>
      </trkpt>
      <trkpt lat="45.78506" lon="6.4406">
        <ele>1428.1</ele>
        <time>2022-02-03T11:36:22Z</time>
      </trkpt>
      <trkpt lat="45.78505" lon="6.44061">
        <ele>1428.02</ele>
        <time>2022-02-03T11:36:44Z</time>
      </trkpt>
      <trkpt lat="45.78505" lon="6.44062">
        <ele>1428.13</ele>
        <time>2022-02-03T11:37:02Z</time>
      </trkpt>
      <trkpt lat="45.78505" lon="6.4406">
        <ele>1427.88</ele>
        <time>2022-02-03T11:37:16Z</time>
      </trkpt>
      <trkpt lat="45.78505" lon="6.44059">
        <ele>1427.96</ele>
        <time>2022-02-03T11:37:32Z</time>
      </trkpt>
      <trkpt lat="45.78504" lon="6.44059">
        <ele>1428.35</ele>
        <time>2022-02-03T11:37:45Z</time>
      </trkpt>
      <trkpt lat="45.78505" lon="6.44057">
        <ele>1427.58</ele>
        <time>2022-02-03T11:37:57Z</time>
      </trkpt>
      <trkpt lat="45.78504" lon="6.44053">
        <ele>1427.44</ele>
        <time>2022-02-03T11:38:07Z</time>
      </trkpt>
      <trkpt lat="45.78499" lon="6.44048">
        <ele>1427.53</ele>
        <time>2022-02-03T11:38:12Z</time>
      </trkpt>
      <trkpt lat="45.78498" lon="6.44047">
        <ele>1427.44</ele>
        <time>2022-02-03T11:38:14Z</time>
      </trkpt>
      <trkpt lat="45.78496" lon="6.44046">
        <ele>1427.5</ele>
        <time>2022-02-03T11:38:16Z</time>
      </trkpt>
      <trkpt lat="45.78495" lon="6.44045">
        <ele>1427.47</ele>
        <time>2022-02-03T11:38:17Z</time>
      </trkpt>
      <trkpt lat="45.7849" lon="6.4404">
        <ele>1427.3</ele>
        <time>2022-02-03T11:38:22Z</time>
      </trkpt>
      <trkpt lat="45.78487" lon="6.4403">
        <ele>1427.5</ele>
        <time>2022-02-03T11:38:29Z</time>
      </trkpt>
      <trkpt lat="45.78486" lon="6.44016">
        <ele>1427.26</ele>
        <time>2022-02-03T11:38:39Z</time>
      </trkpt>
      <trkpt lat="45.78485" lon="6.44014">
        <ele>1426.89</ele>
        <time>2022-02-03T11:38:55Z</time>
      </trkpt>
      <trkpt lat="45.78486" lon="6.44018">
        <ele>1427.07</ele>
        <time>2022-02-03T11:39:06Z</time>
      </trkpt>
      <trkpt lat="45.78486" lon="6.44019">
        <ele>1427.34</ele>
        <time>2022-02-03T11:39:07Z</time>
      </trkpt>
      <trkpt lat="45.7849" lon="6.44037">
        <ele>1428.01</ele>
        <time>2022-02-03T11:39:18Z</time>
      </trkpt>
      <trkpt lat="45.78501" lon="6.44053">
        <ele>1428.24</ele>
        <time>2022-02-03T11:39:31Z</time>
      </trkpt>
      <trkpt lat="45.78503" lon="6.44055">
        <ele>1428.04</ele>
        <time>2022-02-03T11:39:45Z</time>
      </trkpt>
      <trkpt lat="45.78502" lon="6.44055">
        <ele>1428.35</ele>
        <time>2022-02-03T11:40:13Z</time>
      </trkpt>
      <trkpt lat="45.78502" lon="6.44055">
        <ele>1428.08</ele>
        <time>2022-02-03T11:40:41Z</time>
      </trkpt>
      <trkpt lat="45.78502" lon="6.44056">
        <ele>1428.12</ele>
        <time>2022-02-03T11:41:05Z</time>
      </trkpt>
      <trkpt lat="45.78507" lon="6.4406">
        <ele>1428.57</ele>
        <time>2022-02-03T11:41:21Z</time>
      </trkpt>
      <trkpt lat="45.78517" lon="6.44065">
        <ele>1429.11</ele>
        <time>2022-02-03T11:41:32Z</time>
      </trkpt>
      <trkpt lat="45.78519" lon="6.44066">
        <ele>1429.08</ele>
        <time>2022-02-03T11:41:35Z</time>
      </trkpt>
      <trkpt lat="45.78523" lon="6.44069">
        <ele>1429.26</ele>
        <time>2022-02-03T11:41:40Z</time>
      </trkpt>
      <trkpt lat="45.78524" lon="6.4407">
        <ele>1429.27</ele>
        <time>2022-02-03T11:41:41Z</time>
      </trkpt>
      <trkpt lat="45.78526" lon="6.44072">
        <ele>1429.05</ele>
        <time>2022-02-03T11:41:43Z</time>
      </trkpt>
      <trkpt lat="45.78535" lon="6.44078">
        <ele>1429.77</ele>
        <time>2022-02-03T11:41:55Z</time>
      </trkpt>
      <trkpt lat="45.78539" lon="6.44083">
        <ele>1429.86</ele>
        <time>2022-02-03T11:42:06Z</time>
      </trkpt>
      <trkpt lat="45.78543" lon="6.44086">
        <ele>1430.07</ele>
        <time>2022-02-03T11:42:31Z</time>
      </trkpt>
      <trkpt lat="45.78545" lon="6.44087">
        <ele>1430.05</ele>
        <time>2022-02-03T11:42:33Z</time>
      </trkpt>
      <trkpt lat="45.78551" lon="6.44093">
        <ele>1430.31</ele>
        <time>2022-02-03T11:42:43Z</time>
      </trkpt>
      <trkpt lat="45.7856" lon="6.44097">
        <ele>1430.64</ele>
        <time>2022-02-03T11:42:54Z</time>
      </trkpt>
      <trkpt lat="45.7857" lon="6.44102">
        <ele>1431.1</ele>
        <time>2022-02-03T11:43:07Z</time>
      </trkpt>
      <trkpt lat="45.78581" lon="6.44106">
        <ele>1431.47</ele>
        <time>2022-02-03T11:43:20Z</time>
      </trkpt>
      <trkpt lat="45.78586" lon="6.44107">
        <ele>1431.33</ele>
        <time>2022-02-03T11:43:26Z</time>
      </trkpt>
      <trkpt lat="45.78589" lon="6.44108">
        <ele>1431.47</ele>
        <time>2022-02-03T11:43:29Z</time>
      </trkpt>
      <trkpt lat="45.78603" lon="6.44111">
        <ele>1431.97</ele>
        <time>2022-02-03T11:43:45Z</time>
      </trkpt>
      <trkpt lat="45.78611" lon="6.44114">
        <ele>1432.15</ele>
        <time>2022-02-03T11:43:55Z</time>
      </trkpt>
      <trkpt lat="45.7862" lon="6.44118">
        <ele>1431.92</ele>
        <time>2022-02-03T11:44:06Z</time>
      </trkpt>
      <trkpt lat="45.78628" lon="6.44122">
        <ele>1432.13</ele>
        <time>2022-02-03T11:44:18Z</time>
      </trkpt>
      <trkpt lat="45.7863" lon="6.44121">
        <ele>1432.14</ele>
        <time>2022-02-03T11:44:20Z</time>
      </trkpt>
      <trkpt lat="45.78632" lon="6.44122">
        <ele>1432.21</ele>
        <time>2022-02-03T11:44:22Z</time>
      </trkpt>
      <trkpt lat="45.78643" lon="6.44124">
        <ele>1432.4</ele>
        <time>2022-02-03T11:44:35Z</time>
      </trkpt>
      <trkpt lat="45.78658" lon="6.44124">
        <ele>1432.88</ele>
        <time>2022-02-03T11:44:53Z</time>
      </trkpt>
      <trkpt lat="45.78668" lon="6.44123">
        <ele>1433.69</ele>
        <time>2022-02-03T11:45:10Z</time>
      </trkpt>
      <trkpt lat="45.78681" lon="6.44124">
        <ele>1434.02</ele>
        <time>2022-02-03T11:45:24Z</time>
      </trkpt>
      <trkpt lat="45.78693" lon="6.44128">
        <ele>1434.39</ele>
        <time>2022-02-03T11:45:38Z</time>
      </trkpt>
      <trkpt lat="45.78695" lon="6.44128">
        <ele>1434.5</ele>
        <time>2022-02-03T11:45:41Z</time>
      </trkpt>
      <trkpt lat="45.78696" lon="6.44128">
        <ele>1434.58</ele>
        <time>2022-02-03T11:45:42Z</time>
      </trkpt>
      <trkpt lat="45.78707" lon="6.44132">
        <ele>1434.64</ele>
        <time>2022-02-03T11:45:54Z</time>
      </trkpt>
      <trkpt lat="45.78719" lon="6.44136">
        <ele>1434.83</ele>
        <time>2022-02-03T11:46:08Z</time>
      </trkpt>
      <trkpt lat="45.78732" lon="6.44138">
        <ele>1435.15</ele>
        <time>2022-02-03T11:46:23Z</time>
      </trkpt>
      <trkpt lat="45.78743" lon="6.4414">
        <ele>1435.36</ele>
        <time>2022-02-03T11:46:37Z</time>
      </trkpt>
      <trkpt lat="45.78756" lon="6.44139">
        <ele>1435.94</ele>
        <time>2022-02-03T11:46:53Z</time>
      </trkpt>
      <trkpt lat="45.78766" lon="6.44135">
        <ele>1436.13</ele>
        <time>2022-02-03T11:47:05Z</time>
      </trkpt>
      <trkpt lat="45.78774" lon="6.44132">
        <ele>1436.33</ele>
        <time>2022-02-03T11:47:16Z</time>
      </trkpt>
      <trkpt lat="45.78787" lon="6.44132">
        <ele>1436.83</ele>
        <time>2022-02-03T11:47:32Z</time>
      </trkpt>
      <trkpt lat="45.78801" lon="6.44133">
        <ele>1436.84</ele>
        <time>2022-02-03T11:47:49Z</time>
      </trkpt>
      <trkpt lat="45.78812" lon="6.4413">
        <ele>1437.06</ele>
        <time>2022-02-03T11:48:02Z</time>
      </trkpt>
      <trkpt lat="45.78815" lon="6.44129">
        <ele>1437.08</ele>
        <time>2022-02-03T11:48:06Z</time>
      </trkpt>
      <trkpt lat="45.78826" lon="6.4413">
        <ele>1437.52</ele>
        <time>2022-02-03T11:48:20Z</time>
      </trkpt>
      <trkpt lat="45.78842" lon="6.44127">
        <ele>1438.09</ele>
        <time>2022-02-03T11:48:38Z</time>
      </trkpt>
      <trkpt lat="45.78855" lon="6.44134">
        <ele>1438.4</ele>
        <time>2022-02-03T11:48:52Z</time>
      </trkpt>
      <trkpt lat="45.78864" lon="6.44139">
        <ele>1438.65</ele>
        <time>2022-02-03T11:49:03Z</time>
      </trkpt>
      <trkpt lat="45.78873" lon="6.44145">
        <ele>1438.49</ele>
        <time>2022-02-03T11:49:14Z</time>
      </trkpt>
      <trkpt lat="45.78877" lon="6.44149">
        <ele>1438.45</ele>
        <time>2022-02-03T11:49:19Z</time>
      </trkpt>
      <trkpt lat="45.78878" lon="6.4415">
        <ele>1438.64</ele>
        <time>2022-02-03T11:49:20Z</time>
      </trkpt>
      <trkpt lat="45.78881" lon="6.44161">
        <ele>1438.57</ele>
        <time>2022-02-03T11:49:28Z</time>
      </trkpt>
      <trkpt lat="45.78881" lon="6.44162">
        <ele>1438.44</ele>
        <time>2022-02-03T11:49:29Z</time>
      </trkpt>
      <trkpt lat="45.78881" lon="6.44173">
        <ele>1438.99</ele>
        <time>2022-02-03T11:49:39Z</time>
      </trkpt>
      <trkpt lat="45.78881" lon="6.44175">
        <ele>1439.13</ele>
        <time>2022-02-03T11:49:41Z</time>
      </trkpt>
      <trkpt lat="45.78882" lon="6.44189">
        <ele>1439.36</ele>
        <time>2022-02-03T11:49:52Z</time>
      </trkpt>
      <trkpt lat="45.78882" lon="6.44205">
        <ele>1439.86</ele>
        <time>2022-02-03T11:50:04Z</time>
      </trkpt>
      <trkpt lat="45.78882" lon="6.44206">
        <ele>1439.99</ele>
        <time>2022-02-03T11:50:05Z</time>
      </trkpt>
      <trkpt lat="45.78884" lon="6.44216">
        <ele>1440.75</ele>
        <time>2022-02-03T11:50:15Z</time>
      </trkpt>
      <trkpt lat="45.78884" lon="6.44217">
        <ele>1440.86</ele>
        <time>2022-02-03T11:50:16Z</time>
      </trkpt>
      <trkpt lat="45.78884" lon="6.44221">
        <ele>1440.93</ele>
        <time>2022-02-03T11:50:19Z</time>
      </trkpt>
      <trkpt lat="45.78885" lon="6.44232">
        <ele>1441.13</ele>
        <time>2022-02-03T11:50:29Z</time>
      </trkpt>
      <trkpt lat="45.78885" lon="6.44243">
        <ele>1441.84</ele>
        <time>2022-02-03T11:50:39Z</time>
      </trkpt>
      <trkpt lat="45.78885" lon="6.44255">
        <ele>1442.43</ele>
        <time>2022-02-03T11:50:50Z</time>
      </trkpt>
      <trkpt lat="45.78884" lon="6.44265">
        <ele>1440.99</ele>
        <time>2022-02-03T11:51:03Z</time>
      </trkpt>
      <trkpt lat="45.78881" lon="6.44277">
        <ele>1439.46</ele>
        <time>2022-02-03T11:51:15Z</time>
      </trkpt>
      <trkpt lat="45.78876" lon="6.4429">
        <ele>1438.28</ele>
        <time>2022-02-03T11:51:25Z</time>
      </trkpt>
      <trkpt lat="45.78875" lon="6.44291">
        <ele>1438.03</ele>
        <time>2022-02-03T11:51:26Z</time>
      </trkpt>
      <trkpt lat="45.78873" lon="6.44296">
        <ele>1437.96</ele>
        <time>2022-02-03T11:51:44Z</time>
      </trkpt>
      <trkpt lat="45.78874" lon="6.44297">
        <ele>1437.84</ele>
        <time>2022-02-03T11:52:08Z</time>
      </trkpt>
      <trkpt lat="45.7887" lon="6.44311">
        <ele>1436.86</ele>
        <time>2022-02-03T11:52:19Z</time>
      </trkpt>
      <trkpt lat="45.78867" lon="6.44318">
        <ele>1436.72</ele>
        <time>2022-02-03T11:52:24Z</time>
      </trkpt>
      <trkpt lat="45.78867" lon="6.4432">
        <ele>1436.75</ele>
        <time>2022-02-03T11:52:25Z</time>
      </trkpt>
      <trkpt lat="45.78864" lon="6.44326">
        <ele>1436.34</ele>
        <time>2022-02-03T11:52:30Z</time>
      </trkpt>
      <trkpt lat="45.78863" lon="6.44328">
        <ele>1436.26</ele>
        <time>2022-02-03T11:52:31Z</time>
      </trkpt>
      <trkpt lat="45.78857" lon="6.44343">
        <ele>1435.28</ele>
        <time>2022-02-03T11:52:42Z</time>
      </trkpt>
      <trkpt lat="45.78856" lon="6.44346">
        <ele>1435.27</ele>
        <time>2022-02-03T11:52:44Z</time>
      </trkpt>
      <trkpt lat="45.78855" lon="6.4435">
        <ele>1435.02</ele>
        <time>2022-02-03T11:52:47Z</time>
      </trkpt>
      <trkpt lat="45.78855" lon="6.44352">
        <ele>1434.87</ele>
        <time>2022-02-03T11:52:48Z</time>
      </trkpt>
      <trkpt lat="45.78853" lon="6.44356">
        <ele>1434.55</ele>
        <time>2022-02-03T11:52:51Z</time>
      </trkpt>
      <trkpt lat="45.78852" lon="6.44359">
        <ele>1434.54</ele>
        <time>2022-02-03T11:52:53Z</time>
      </trkpt>
      <trkpt lat="45.78852" lon="6.44361">
        <ele>1434.57</ele>
        <time>2022-02-03T11:52:54Z</time>
      </trkpt>
      <trkpt lat="45.78848" lon="6.44373">
        <ele>1433.6</ele>
        <time>2022-02-03T11:53:03Z</time>
      </trkpt>
      <trkpt lat="45.78845" lon="6.44388">
        <ele>1433.03</ele>
        <time>2022-02-03T11:53:14Z</time>
      </trkpt>
      <trkpt lat="45.78843" lon="6.444">
        <ele>1432.26</ele>
        <time>2022-02-03T11:53:22Z</time>
      </trkpt>
      <trkpt lat="45.78842" lon="6.44401">
        <ele>1432.15</ele>
        <time>2022-02-03T11:53:23Z</time>
      </trkpt>
      <trkpt lat="45.78841" lon="6.44415">
        <ele>1431.62</ele>
        <time>2022-02-03T11:53:33Z</time>
      </trkpt>
      <trkpt lat="45.7884" lon="6.4442">
        <ele>1431.72</ele>
        <time>2022-02-03T11:53:37Z</time>
      </trkpt>
      <trkpt lat="45.78838" lon="6.4443">
        <ele>1431.11</ele>
        <time>2022-02-03T11:53:47Z</time>
      </trkpt>
      <trkpt lat="45.78836" lon="6.44436">
        <ele>1431.38</ele>
        <time>2022-02-03T11:53:57Z</time>
      </trkpt>
      <trkpt lat="45.78834" lon="6.44446">
        <ele>1431.14</ele>
        <time>2022-02-03T11:54:09Z</time>
      </trkpt>
      <trkpt lat="45.78832" lon="6.44451">
        <ele>1430.82</ele>
        <time>2022-02-03T11:54:13Z</time>
      </trkpt>
      <trkpt lat="45.78831" lon="6.44456">
        <ele>1430.86</ele>
        <time>2022-02-03T11:54:17Z</time>
      </trkpt>
      <trkpt lat="45.7883" lon="6.44459">
        <ele>1430.84</ele>
        <time>2022-02-03T11:54:19Z</time>
      </trkpt>
      <trkpt lat="45.78827" lon="6.44474">
        <ele>1430.66</ele>
        <time>2022-02-03T11:54:31Z</time>
      </trkpt>
      <trkpt lat="45.78825" lon="6.44489">
        <ele>1430.59</ele>
        <time>2022-02-03T11:54:41Z</time>
      </trkpt>
      <trkpt lat="45.78822" lon="6.44503">
        <ele>1430.93</ele>
        <time>2022-02-03T11:54:52Z</time>
      </trkpt>
      <trkpt lat="45.78819" lon="6.44509">
        <ele>1431.25</ele>
        <time>2022-02-03T11:54:58Z</time>
      </trkpt>
      <trkpt lat="45.78818" lon="6.44511">
        <ele>1431.13</ele>
        <time>2022-02-03T11:55:00Z</time>
      </trkpt>
      <trkpt lat="45.78817" lon="6.44513">
        <ele>1431.19</ele>
        <time>2022-02-03T11:55:01Z</time>
      </trkpt>
      <trkpt lat="45.78811" lon="6.44519">
        <ele>1431.36</ele>
        <time>2022-02-03T11:55:10Z</time>
      </trkpt>
      <trkpt lat="45.78804" lon="6.44523">
        <ele>1431.24</ele>
        <time>2022-02-03T11:55:18Z</time>
      </trkpt>
      <trkpt lat="45.788" lon="6.44526">
        <ele>1430.98</ele>
        <time>2022-02-03T11:55:24Z</time>
      </trkpt>
      <trkpt lat="45.78792" lon="6.44532">
        <ele>1430.98</ele>
        <time>2022-02-03T11:55:35Z</time>
      </trkpt>
      <trkpt lat="45.7879" lon="6.44533">
        <ele>1430.99</ele>
        <time>2022-02-03T11:55:37Z</time>
      </trkpt>
      <trkpt lat="45.78787" lon="6.44535">
        <ele>1431</ele>
        <time>2022-02-03T11:55:40Z</time>
      </trkpt>
      <trkpt lat="45.78781" lon="6.4454">
        <ele>1430.8</ele>
        <time>2022-02-03T11:55:47Z</time>
      </trkpt>
      <trkpt lat="45.78775" lon="6.44546">
        <ele>1430.64</ele>
        <time>2022-02-03T11:55:57Z</time>
      </trkpt>
      <trkpt lat="45.78773" lon="6.44548">
        <ele>1430.85</ele>
        <time>2022-02-03T11:55:59Z</time>
      </trkpt>
      <trkpt lat="45.78772" lon="6.44549">
        <ele>1430.71</ele>
        <time>2022-02-03T11:56:01Z</time>
      </trkpt>
      <trkpt lat="45.78768" lon="6.44553">
        <ele>1430.69</ele>
        <time>2022-02-03T11:56:07Z</time>
      </trkpt>
      <trkpt lat="45.78764" lon="6.44556">
        <ele>1430.52</ele>
        <time>2022-02-03T11:56:12Z</time>
      </trkpt>
      <trkpt lat="45.78757" lon="6.4456">
        <ele>1430.48</ele>
        <time>2022-02-03T11:56:20Z</time>
      </trkpt>
      <trkpt lat="45.78754" lon="6.44563">
        <ele>1430.52</ele>
        <time>2022-02-03T11:56:24Z</time>
      </trkpt>
      <trkpt lat="45.78751" lon="6.44564">
        <ele>1430.03</ele>
        <time>2022-02-03T11:56:27Z</time>
      </trkpt>
      <trkpt lat="45.7875" lon="6.44565">
        <ele>1430.08</ele>
        <time>2022-02-03T11:56:29Z</time>
      </trkpt>
      <trkpt lat="45.78742" lon="6.4457">
        <ele>1428.96</ele>
        <time>2022-02-03T11:56:42Z</time>
      </trkpt>
      <trkpt lat="45.78735" lon="6.44571">
        <ele>1426.65</ele>
        <time>2022-02-03T11:56:59Z</time>
      </trkpt>
      <trkpt lat="45.78733" lon="6.44571">
        <ele>1425.8</ele>
        <time>2022-02-03T11:57:01Z</time>
      </trkpt>
      <trkpt lat="45.78731" lon="6.4457">
        <ele>1425.24</ele>
        <time>2022-02-03T11:57:03Z</time>
      </trkpt>
      <trkpt lat="45.7873" lon="6.4457">
        <ele>1425.08</ele>
        <time>2022-02-03T11:57:04Z</time>
      </trkpt>
      <trkpt lat="45.78723" lon="6.44568">
        <ele>1423.17</ele>
        <time>2022-02-03T11:57:12Z</time>
      </trkpt>
      <trkpt lat="45.7872" lon="6.44567">
        <ele>1422.25</ele>
        <time>2022-02-03T11:57:15Z</time>
      </trkpt>
      <trkpt lat="45.78718" lon="6.44567">
        <ele>1421.47</ele>
        <time>2022-02-03T11:57:18Z</time>
      </trkpt>
      <trkpt lat="45.78715" lon="6.44566">
        <ele>1420.56</ele>
        <time>2022-02-03T11:57:21Z</time>
      </trkpt>
      <trkpt lat="45.78711" lon="6.44564">
        <ele>1419.51</ele>
        <time>2022-02-03T11:57:25Z</time>
      </trkpt>
      <trkpt lat="45.78706" lon="6.44558">
        <ele>1417.79</ele>
        <time>2022-02-03T11:57:32Z</time>
      </trkpt>
      <trkpt lat="45.78704" lon="6.44557">
        <ele>1417.47</ele>
        <time>2022-02-03T11:57:34Z</time>
      </trkpt>
      <trkpt lat="45.787" lon="6.44555">
        <ele>1416.52</ele>
        <time>2022-02-03T11:57:44Z</time>
      </trkpt>
      <trkpt lat="45.78692" lon="6.44547">
        <ele>1413.92</ele>
        <time>2022-02-03T11:57:55Z</time>
      </trkpt>
      <trkpt lat="45.78688" lon="6.44544">
        <ele>1412.22</ele>
        <time>2022-02-03T11:58:00Z</time>
      </trkpt>
      <trkpt lat="45.78684" lon="6.44542">
        <ele>1410.4</ele>
        <time>2022-02-03T11:58:05Z</time>
      </trkpt>
      <trkpt lat="45.78677" lon="6.44543">
        <ele>1407.5</ele>
        <time>2022-02-03T11:58:17Z</time>
      </trkpt>
      <trkpt lat="45.78675" lon="6.44539">
        <ele>1406.95</ele>
        <time>2022-02-03T11:58:21Z</time>
      </trkpt>
      <trkpt lat="45.78673" lon="6.44531">
        <ele>1405.84</ele>
        <time>2022-02-03T11:58:26Z</time>
      </trkpt>
      <trkpt lat="45.7867" lon="6.44527">
        <ele>1404.79</ele>
        <time>2022-02-03T11:58:30Z</time>
      </trkpt>
      <trkpt lat="45.7866" lon="6.44531">
        <ele>1402.21</ele>
        <time>2022-02-03T11:58:41Z</time>
      </trkpt>
      <trkpt lat="45.78656" lon="6.44536">
        <ele>1400.87</ele>
        <time>2022-02-03T11:58:47Z</time>
      </trkpt>
      <trkpt lat="45.78652" lon="6.44544">
        <ele>1399.6</ele>
        <time>2022-02-03T11:58:54Z</time>
      </trkpt>
      <trkpt lat="45.78648" lon="6.44555">
        <ele>1398.41</ele>
        <time>2022-02-03T11:59:02Z</time>
      </trkpt>
      <trkpt lat="45.78644" lon="6.44558">
        <ele>1397.82</ele>
        <time>2022-02-03T11:59:06Z</time>
      </trkpt>
      <trkpt lat="45.78637" lon="6.44564">
        <ele>1396.4</ele>
        <time>2022-02-03T11:59:15Z</time>
      </trkpt>
      <trkpt lat="45.78629" lon="6.44572">
        <ele>1395.15</ele>
        <time>2022-02-03T11:59:24Z</time>
      </trkpt>
      <trkpt lat="45.78627" lon="6.44573">
        <ele>1394.79</ele>
        <time>2022-02-03T11:59:26Z</time>
      </trkpt>
      <trkpt lat="45.78619" lon="6.44576">
        <ele>1393.86</ele>
        <time>2022-02-03T11:59:34Z</time>
      </trkpt>
      <trkpt lat="45.78609" lon="6.4458">
        <ele>1393.19</ele>
        <time>2022-02-03T11:59:45Z</time>
      </trkpt>
      <trkpt lat="45.78605" lon="6.44581">
        <ele>1393.36</ele>
        <time>2022-02-03T11:59:50Z</time>
      </trkpt>
      <trkpt lat="45.78601" lon="6.44581">
        <ele>1393.24</ele>
        <time>2022-02-03T11:59:55Z</time>
      </trkpt>
      <trkpt lat="45.78594" lon="6.44583">
        <ele>1392.45</ele>
        <time>2022-02-03T12:00:07Z</time>
      </trkpt>
      <trkpt lat="45.78591" lon="6.44583">
        <ele>1392.55</ele>
        <time>2022-02-03T12:00:10Z</time>
      </trkpt>
      <trkpt lat="45.78585" lon="6.44585">
        <ele>1391.97</ele>
        <time>2022-02-03T12:00:16Z</time>
      </trkpt>
      <trkpt lat="45.78573" lon="6.44588">
        <ele>1390.26</ele>
        <time>2022-02-03T12:00:28Z</time>
      </trkpt>
      <trkpt lat="45.78569" lon="6.44589">
        <ele>1390.13</ele>
        <time>2022-02-03T12:00:32Z</time>
      </trkpt>
      <trkpt lat="45.78563" lon="6.4459">
        <ele>1389.79</ele>
        <time>2022-02-03T12:00:38Z</time>
      </trkpt>
      <trkpt lat="45.78555" lon="6.44595">
        <ele>1390.24</ele>
        <time>2022-02-03T12:00:49Z</time>
      </trkpt>
      <trkpt lat="45.78547" lon="6.44595">
        <ele>1390.54</ele>
        <time>2022-02-03T12:01:00Z</time>
      </trkpt>
      <trkpt lat="45.78538" lon="6.44592">
        <ele>1390.68</ele>
        <time>2022-02-03T12:01:15Z</time>
      </trkpt>
      <trkpt lat="45.78537" lon="6.44594">
        <ele>1390.65</ele>
        <time>2022-02-03T12:01:33Z</time>
      </trkpt>
      <trkpt lat="45.78531" lon="6.44594">
        <ele>1389.46</ele>
        <time>2022-02-03T12:01:52Z</time>
      </trkpt>
      <trkpt lat="45.78521" lon="6.44585">
        <ele>1386.55</ele>
        <time>2022-02-03T12:02:06Z</time>
      </trkpt>
      <trkpt lat="45.78515" lon="6.44581">
        <ele>1383.93</ele>
        <time>2022-02-03T12:02:14Z</time>
      </trkpt>
      <trkpt lat="45.78504" lon="6.44576">
        <ele>1380.68</ele>
        <time>2022-02-03T12:02:27Z</time>
      </trkpt>
      <trkpt lat="45.78501" lon="6.44575">
        <ele>1379.7</ele>
        <time>2022-02-03T12:02:31Z</time>
      </trkpt>
      <trkpt lat="45.78493" lon="6.44577">
        <ele>1377.43</ele>
        <time>2022-02-03T12:02:39Z</time>
      </trkpt>
      <trkpt lat="45.78488" lon="6.44577">
        <ele>1376.19</ele>
        <time>2022-02-03T12:02:44Z</time>
      </trkpt>
      <trkpt lat="45.78486" lon="6.44578">
        <ele>1375.48</ele>
        <time>2022-02-03T12:02:46Z</time>
      </trkpt>
      <trkpt lat="45.78475" lon="6.44578">
        <ele>1372.24</ele>
        <time>2022-02-03T12:02:57Z</time>
      </trkpt>
      <trkpt lat="45.78463" lon="6.44579">
        <ele>1369.38</ele>
        <time>2022-02-03T12:03:08Z</time>
      </trkpt>
      <trkpt lat="45.78451" lon="6.4458">
        <ele>1366.04</ele>
        <time>2022-02-03T12:03:19Z</time>
      </trkpt>
      <trkpt lat="45.78446" lon="6.44583">
        <ele>1363.77</ele>
        <time>2022-02-03T12:03:25Z</time>
      </trkpt>
      <trkpt lat="45.78438" lon="6.44586">
        <ele>1361.95</ele>
        <time>2022-02-03T12:03:33Z</time>
      </trkpt>
      <trkpt lat="45.78432" lon="6.44589">
        <ele>1360.33</ele>
        <time>2022-02-03T12:03:39Z</time>
      </trkpt>
      <trkpt lat="45.78425" lon="6.44594">
        <ele>1359.16</ele>
        <time>2022-02-03T12:03:46Z</time>
      </trkpt>
      <trkpt lat="45.78423" lon="6.44596">
        <ele>1358.55</ele>
        <time>2022-02-03T12:03:49Z</time>
      </trkpt>
      <trkpt lat="45.78421" lon="6.44598">
        <ele>1358.27</ele>
        <time>2022-02-03T12:03:51Z</time>
      </trkpt>
      <trkpt lat="45.78418" lon="6.44601">
        <ele>1357.81</ele>
        <time>2022-02-03T12:03:54Z</time>
      </trkpt>
      <trkpt lat="45.78412" lon="6.44603">
        <ele>1357.13</ele>
        <time>2022-02-03T12:04:00Z</time>
      </trkpt>
      <trkpt lat="45.78409" lon="6.44602">
        <ele>1356.7</ele>
        <time>2022-02-03T12:04:03Z</time>
      </trkpt>
      <trkpt lat="45.78401" lon="6.44602">
        <ele>1356.31</ele>
        <time>2022-02-03T12:04:11Z</time>
      </trkpt>
      <trkpt lat="45.78393" lon="6.44591">
        <ele>1355.52</ele>
        <time>2022-02-03T12:04:23Z</time>
      </trkpt>
      <trkpt lat="45.78391" lon="6.44591">
        <ele>1355.55</ele>
        <time>2022-02-03T12:04:25Z</time>
      </trkpt>
      <trkpt lat="45.78382" lon="6.4459">
        <ele>1355.5</ele>
        <time>2022-02-03T12:04:39Z</time>
      </trkpt>
      <trkpt lat="45.78377" lon="6.44597">
        <ele>1354.85</ele>
        <time>2022-02-03T12:04:49Z</time>
      </trkpt>
      <trkpt lat="45.78368" lon="6.44603">
        <ele>1351.83</ele>
        <time>2022-02-03T12:05:02Z</time>
      </trkpt>
      <trkpt lat="45.78353" lon="6.44605">
        <ele>1348.99</ele>
        <time>2022-02-03T12:05:21Z</time>
      </trkpt>
      <trkpt lat="45.7834" lon="6.44605">
        <ele>1345.69</ele>
        <time>2022-02-03T12:05:37Z</time>
      </trkpt>
      <trkpt lat="45.78331" lon="6.4459">
        <ele>1342.63</ele>
        <time>2022-02-03T12:05:52Z</time>
      </trkpt>
      <trkpt lat="45.78325" lon="6.44582">
        <ele>1339.57</ele>
        <time>2022-02-03T12:06:03Z</time>
      </trkpt>
      <trkpt lat="45.78324" lon="6.44568">
        <ele>1336.5</ele>
        <time>2022-02-03T12:06:17Z</time>
      </trkpt>
      <trkpt lat="45.78329" lon="6.44556">
        <ele>1333.48</ele>
        <time>2022-02-03T12:06:29Z</time>
      </trkpt>
      <trkpt lat="45.78334" lon="6.44542">
        <ele>1332.45</ele>
        <time>2022-02-03T12:06:38Z</time>
      </trkpt>
      <trkpt lat="45.78336" lon="6.44537">
        <ele>1332.19</ele>
        <time>2022-02-03T12:06:41Z</time>
      </trkpt>
      <trkpt lat="45.7834" lon="6.44522">
        <ele>1330.4</ele>
        <time>2022-02-03T12:06:51Z</time>
      </trkpt>
      <trkpt lat="45.78337" lon="6.44511">
        <ele>1327.38</ele>
        <time>2022-02-03T12:07:00Z</time>
      </trkpt>
      <trkpt lat="45.7833" lon="6.445">
        <ele>1323.9</ele>
        <time>2022-02-03T12:07:12Z</time>
      </trkpt>
      <trkpt lat="45.78322" lon="6.44499">
        <ele>1320.47</ele>
        <time>2022-02-03T12:07:22Z</time>
      </trkpt>
      <trkpt lat="45.78315" lon="6.44499">
        <ele>1318.67</ele>
        <time>2022-02-03T12:07:30Z</time>
      </trkpt>
      <trkpt lat="45.78311" lon="6.44486">
        <ele>1315.31</ele>
        <time>2022-02-03T12:07:41Z</time>
      </trkpt>
      <trkpt lat="45.78312" lon="6.44472">
        <ele>1312.26</ele>
        <time>2022-02-03T12:07:52Z</time>
      </trkpt>
      <trkpt lat="45.78319" lon="6.44456">
        <ele>1308.9</ele>
        <time>2022-02-03T12:08:06Z</time>
      </trkpt>
      <trkpt lat="45.78318" lon="6.44443">
        <ele>1305.65</ele>
        <time>2022-02-03T12:08:16Z</time>
      </trkpt>
      <trkpt lat="45.78308" lon="6.44441">
        <ele>1302.6</ele>
        <time>2022-02-03T12:08:31Z</time>
      </trkpt>
      <trkpt lat="45.78299" lon="6.44443">
        <ele>1299.18</ele>
        <time>2022-02-03T12:08:47Z</time>
      </trkpt>
      <trkpt lat="45.7829" lon="6.44449">
        <ele>1296.22</ele>
        <time>2022-02-03T12:09:07Z</time>
      </trkpt>
      <trkpt lat="45.78283" lon="6.44454">
        <ele>1295.12</ele>
        <time>2022-02-03T12:09:28Z</time>
      </trkpt>
      <trkpt lat="45.78269" lon="6.44461">
        <ele>1292.79</ele>
        <time>2022-02-03T12:09:46Z</time>
      </trkpt>
      <trkpt lat="45.7826" lon="6.44464">
        <ele>1289.77</ele>
        <time>2022-02-03T12:09:55Z</time>
      </trkpt>
      <trkpt lat="45.7825" lon="6.44467">
        <ele>1286.71</ele>
        <time>2022-02-03T12:10:06Z</time>
      </trkpt>
      <trkpt lat="45.78239" lon="6.44471">
        <ele>1283.87</ele>
        <time>2022-02-03T12:10:17Z</time>
      </trkpt>
      <trkpt lat="45.78228" lon="6.44473">
        <ele>1281.92</ele>
        <time>2022-02-03T12:10:31Z</time>
      </trkpt>
      <trkpt lat="45.78225" lon="6.44475">
        <ele>1280.8</ele>
        <time>2022-02-03T12:10:36Z</time>
      </trkpt>
      <trkpt lat="45.7822" lon="6.44484">
        <ele>1279.91</ele>
        <time>2022-02-03T12:10:48Z</time>
      </trkpt>
      <trkpt lat="45.78216" lon="6.44493">
        <ele>1278.2</ele>
        <time>2022-02-03T12:10:57Z</time>
      </trkpt>
      <trkpt lat="45.78212" lon="6.445">
        <ele>1277.15</ele>
        <time>2022-02-03T12:11:08Z</time>
      </trkpt>
      <trkpt lat="45.78205" lon="6.44509">
        <ele>1274.89</ele>
        <time>2022-02-03T12:11:20Z</time>
      </trkpt>
      <trkpt lat="45.78198" lon="6.44517">
        <ele>1272.3</ele>
        <time>2022-02-03T12:11:32Z</time>
      </trkpt>
      <trkpt lat="45.78192" lon="6.44522">
        <ele>1271.08</ele>
        <time>2022-02-03T12:11:40Z</time>
      </trkpt>
      <trkpt lat="45.78179" lon="6.44535">
        <ele>1267.84</ele>
        <time>2022-02-03T12:11:57Z</time>
      </trkpt>
      <trkpt lat="45.78177" lon="6.44536">
        <ele>1267.5</ele>
        <time>2022-02-03T12:11:59Z</time>
      </trkpt>
      <trkpt lat="45.78173" lon="6.44542">
        <ele>1266.53</ele>
        <time>2022-02-03T12:12:04Z</time>
      </trkpt>
      <trkpt lat="45.78166" lon="6.44548">
        <ele>1264.8</ele>
        <time>2022-02-03T12:12:12Z</time>
      </trkpt>
      <trkpt lat="45.78164" lon="6.4455">
        <ele>1264</ele>
        <time>2022-02-03T12:12:16Z</time>
      </trkpt>
      <trkpt lat="45.78155" lon="6.44565">
        <ele>1262.28</ele>
        <time>2022-02-03T12:12:27Z</time>
      </trkpt>
      <trkpt lat="45.78146" lon="6.44577">
        <ele>1260.72</ele>
        <time>2022-02-03T12:12:37Z</time>
      </trkpt>
      <trkpt lat="45.78138" lon="6.44586">
        <ele>1259.37</ele>
        <time>2022-02-03T12:12:47Z</time>
      </trkpt>
      <trkpt lat="45.78125" lon="6.44597">
        <ele>1256.97</ele>
        <time>2022-02-03T12:12:59Z</time>
      </trkpt>
      <trkpt lat="45.78111" lon="6.44599">
        <ele>1253.84</ele>
        <time>2022-02-03T12:13:13Z</time>
      </trkpt>
      <trkpt lat="45.78099" lon="6.44603">
        <ele>1251.19</ele>
        <time>2022-02-03T12:13:24Z</time>
      </trkpt>
      <trkpt lat="45.78091" lon="6.44614">
        <ele>1248.48</ele>
        <time>2022-02-03T12:13:39Z</time>
      </trkpt>
      <trkpt lat="45.78084" lon="6.44638">
        <ele>1246</ele>
        <time>2022-02-03T12:13:59Z</time>
      </trkpt>
      <trkpt lat="45.78081" lon="6.44669">
        <ele>1243.62</ele>
        <time>2022-02-03T12:14:19Z</time>
      </trkpt>
      <trkpt lat="45.78077" lon="6.44688">
        <ele>1240.56</ele>
        <time>2022-02-03T12:14:34Z</time>
      </trkpt>
      <trkpt lat="45.78066" lon="6.44709">
        <ele>1238.6</ele>
        <time>2022-02-03T12:14:53Z</time>
      </trkpt>
      <trkpt lat="45.78064" lon="6.44731">
        <ele>1236.03</ele>
        <time>2022-02-03T12:15:12Z</time>
      </trkpt>
      <trkpt lat="45.78062" lon="6.44747">
        <ele>1233</ele>
        <time>2022-02-03T12:15:28Z</time>
      </trkpt>
      <trkpt lat="45.78054" lon="6.44764">
        <ele>1229.94</ele>
        <time>2022-02-03T12:15:42Z</time>
      </trkpt>
      <trkpt lat="45.78048" lon="6.44774">
        <ele>1226.9</ele>
        <time>2022-02-03T12:15:58Z</time>
      </trkpt>
      <trkpt lat="45.78035" lon="6.44793">
        <ele>1223.68</ele>
        <time>2022-02-03T12:16:14Z</time>
      </trkpt>
      <trkpt lat="45.7802" lon="6.44814">
        <ele>1222.15</ele>
        <time>2022-02-03T12:16:34Z</time>
      </trkpt>
      <trkpt lat="45.78018" lon="6.44828">
        <ele>1220.13</ele>
        <time>2022-02-03T12:16:53Z</time>
      </trkpt>
      <trkpt lat="45.78012" lon="6.44841">
        <ele>1217.72</ele>
        <time>2022-02-03T12:17:06Z</time>
      </trkpt>
      <trkpt lat="45.78008" lon="6.44868">
        <ele>1217.06</ele>
        <time>2022-02-03T12:17:23Z</time>
      </trkpt>
      <trkpt lat="45.77998" lon="6.44897">
        <ele>1215.87</ele>
        <time>2022-02-03T12:17:40Z</time>
      </trkpt>
      <trkpt lat="45.7799" lon="6.44918">
        <ele>1214.53</ele>
        <time>2022-02-03T12:17:53Z</time>
      </trkpt>
      <trkpt lat="45.77988" lon="6.44929">
        <ele>1213.67</ele>
        <time>2022-02-03T12:18:00Z</time>
      </trkpt>
      <trkpt lat="45.77982" lon="6.44951">
        <ele>1211.96</ele>
        <time>2022-02-03T12:18:19Z</time>
      </trkpt>
      <trkpt lat="45.77974" lon="6.44979">
        <ele>1210.76</ele>
        <time>2022-02-03T12:18:37Z</time>
      </trkpt>
      <trkpt lat="45.7797" lon="6.45019">
        <ele>1209.64</ele>
        <time>2022-02-03T12:18:52Z</time>
      </trkpt>
      <trkpt lat="45.77977" lon="6.45034">
        <ele>1208.86</ele>
        <time>2022-02-03T12:19:01Z</time>
      </trkpt>
      <trkpt lat="45.77978" lon="6.45044">
        <ele>1208.29</ele>
        <time>2022-02-03T12:19:06Z</time>
      </trkpt>
      <trkpt lat="45.77993" lon="6.45069">
        <ele>1206.32</ele>
        <time>2022-02-03T12:19:25Z</time>
      </trkpt>
      <trkpt lat="45.77991" lon="6.45087">
        <ele>1205.12</ele>
        <time>2022-02-03T12:19:37Z</time>
      </trkpt>
      <trkpt lat="45.77991" lon="6.45092">
        <ele>1204.96</ele>
        <time>2022-02-03T12:19:40Z</time>
      </trkpt>
      <trkpt lat="45.77995" lon="6.45105">
        <ele>1203.71</ele>
        <time>2022-02-03T12:19:49Z</time>
      </trkpt>
      <trkpt lat="45.77996" lon="6.45111">
        <ele>1203.43</ele>
        <time>2022-02-03T12:19:53Z</time>
      </trkpt>
      <trkpt lat="45.78005" lon="6.4512">
        <ele>1202.85</ele>
        <time>2022-02-03T12:20:01Z</time>
      </trkpt>
      <trkpt lat="45.78021" lon="6.4515">
        <ele>1201.03</ele>
        <time>2022-02-03T12:20:19Z</time>
      </trkpt>
      <trkpt lat="45.78026" lon="6.45167">
        <ele>1200.17</ele>
        <time>2022-02-03T12:20:28Z</time>
      </trkpt>
      <trkpt lat="45.78026" lon="6.45171">
        <ele>1199.95</ele>
        <time>2022-02-03T12:20:30Z</time>
      </trkpt>
      <trkpt lat="45.78028" lon="6.45187">
        <ele>1199.81</ele>
        <time>2022-02-03T12:20:41Z</time>
      </trkpt>
      <trkpt lat="45.78025" lon="6.45203">
        <ele>1199.71</ele>
        <time>2022-02-03T12:20:51Z</time>
      </trkpt>
      <trkpt lat="45.78019" lon="6.45215">
        <ele>1200.09</ele>
        <time>2022-02-03T12:21:02Z</time>
      </trkpt>
      <trkpt lat="45.78019" lon="6.45227">
        <ele>1199.77</ele>
        <time>2022-02-03T12:21:10Z</time>
      </trkpt>
      <trkpt lat="45.78017" lon="6.45242">
        <ele>1199.26</ele>
        <time>2022-02-03T12:21:19Z</time>
      </trkpt>
      <trkpt lat="45.78018" lon="6.45247">
        <ele>1198.88</ele>
        <time>2022-02-03T12:21:22Z</time>
      </trkpt>
      <trkpt lat="45.78019" lon="6.45253">
        <ele>1198.39</ele>
        <time>2022-02-03T12:21:26Z</time>
      </trkpt>
      <trkpt lat="45.78022" lon="6.45271">
        <ele>1197.02</ele>
        <time>2022-02-03T12:21:37Z</time>
      </trkpt>
      <trkpt lat="45.78028" lon="6.4529">
        <ele>1195.97</ele>
        <time>2022-02-03T12:21:49Z</time>
      </trkpt>
      <trkpt lat="45.7803" lon="6.45294">
        <ele>1195.3</ele>
        <time>2022-02-03T12:21:52Z</time>
      </trkpt>
      <trkpt lat="45.78034" lon="6.45304">
        <ele>1194.6</ele>
        <time>2022-02-03T12:21:58Z</time>
      </trkpt>
      <trkpt lat="45.78039" lon="6.45321">
        <ele>1193.91</ele>
        <time>2022-02-03T12:22:07Z</time>
      </trkpt>
      <trkpt lat="45.78045" lon="6.45334">
        <ele>1193.44</ele>
        <time>2022-02-03T12:22:17Z</time>
      </trkpt>
      <trkpt lat="45.78052" lon="6.45357">
        <ele>1192.43</ele>
        <time>2022-02-03T12:22:31Z</time>
      </trkpt>
      <trkpt lat="45.78058" lon="6.45372">
        <ele>1191.6</ele>
        <time>2022-02-03T12:22:44Z</time>
      </trkpt>
      <trkpt lat="45.78066" lon="6.4539">
        <ele>1191.02</ele>
        <time>2022-02-03T12:22:58Z</time>
      </trkpt>
      <trkpt lat="45.78072" lon="6.45407">
        <ele>1189.35</ele>
        <time>2022-02-03T12:23:09Z</time>
      </trkpt>
      <trkpt lat="45.78075" lon="6.45423">
        <ele>1188.18</ele>
        <time>2022-02-03T12:23:21Z</time>
      </trkpt>
      <trkpt lat="45.78077" lon="6.45446">
        <ele>1187.42</ele>
        <time>2022-02-03T12:23:36Z</time>
      </trkpt>
      <trkpt lat="45.78077" lon="6.45449">
        <ele>1186.96</ele>
        <time>2022-02-03T12:23:38Z</time>
      </trkpt>
      <trkpt lat="45.78075" lon="6.4546">
        <ele>1186.71</ele>
        <time>2022-02-03T12:23:46Z</time>
      </trkpt>
      <trkpt lat="45.78074" lon="6.45477">
        <ele>1186.14</ele>
        <time>2022-02-03T12:23:57Z</time>
      </trkpt>
      <trkpt lat="45.78072" lon="6.45496">
        <ele>1185.61</ele>
        <time>2022-02-03T12:24:08Z</time>
      </trkpt>
      <trkpt lat="45.78071" lon="6.45514">
        <ele>1184.84</ele>
        <time>2022-02-03T12:24:17Z</time>
      </trkpt>
      <trkpt lat="45.78071" lon="6.45539">
        <ele>1183.41</ele>
        <time>2022-02-03T12:24:31Z</time>
      </trkpt>
      <trkpt lat="45.78073" lon="6.45557">
        <ele>1183.28</ele>
        <time>2022-02-03T12:24:42Z</time>
      </trkpt>
      <trkpt lat="45.78075" lon="6.45566">
        <ele>1183.08</ele>
        <time>2022-02-03T12:24:48Z</time>
      </trkpt>
      <trkpt lat="45.78073" lon="6.45581">
        <ele>1183.4</ele>
        <time>2022-02-03T12:24:58Z</time>
      </trkpt>
      <trkpt lat="45.78066" lon="6.45599">
        <ele>1182.9</ele>
        <time>2022-02-03T12:25:10Z</time>
      </trkpt>
      <trkpt lat="45.78065" lon="6.45601">
        <ele>1182.96</ele>
        <time>2022-02-03T12:25:12Z</time>
      </trkpt>
      <trkpt lat="45.78053" lon="6.45611">
        <ele>1183.89</ele>
        <time>2022-02-03T12:25:25Z</time>
      </trkpt>
      <trkpt lat="45.78041" lon="6.45621">
        <ele>1184.14</ele>
        <time>2022-02-03T12:25:39Z</time>
      </trkpt>
      <trkpt lat="45.78036" lon="6.45627">
        <ele>1184.13</ele>
        <time>2022-02-03T12:25:46Z</time>
      </trkpt>
      <trkpt lat="45.78031" lon="6.4564">
        <ele>1183.71</ele>
        <time>2022-02-03T12:25:54Z</time>
      </trkpt>
      <trkpt lat="45.78021" lon="6.45658">
        <ele>1182.85</ele>
        <time>2022-02-03T12:26:09Z</time>
      </trkpt>
      <trkpt lat="45.78018" lon="6.45664">
        <ele>1182.83</ele>
        <time>2022-02-03T12:26:13Z</time>
      </trkpt>
      <trkpt lat="45.78008" lon="6.45681">
        <ele>1182.58</ele>
        <time>2022-02-03T12:26:25Z</time>
      </trkpt>
      <trkpt lat="45.78" lon="6.45701">
        <ele>1182.8</ele>
        <time>2022-02-03T12:26:37Z</time>
      </trkpt>
      <trkpt lat="45.77994" lon="6.45715">
        <ele>1182.45</ele>
        <time>2022-02-03T12:26:49Z</time>
      </trkpt>
      <trkpt lat="45.77993" lon="6.45717">
        <ele>1182.36</ele>
        <time>2022-02-03T12:26:51Z</time>
      </trkpt>
      <trkpt lat="45.77989" lon="6.45723">
        <ele>1182.36</ele>
        <time>2022-02-03T12:27:05Z</time>
      </trkpt>
      <trkpt lat="45.77988" lon="6.45728">
        <ele>1182.19</ele>
        <time>2022-02-03T12:27:25Z</time>
      </trkpt>
      <trkpt lat="45.77987" lon="6.45724">
        <ele>1182.47</ele>
        <time>2022-02-03T12:27:53Z</time>
      </trkpt>
      <trkpt lat="45.77989" lon="6.45723">
        <ele>1182.42</ele>
        <time>2022-02-03T12:28:20Z</time>
      </trkpt>
      <trkpt lat="45.77989" lon="6.45723">
        <ele>1182.32</ele>
        <time>2022-02-03T12:28:47Z</time>
      </trkpt>
      <trkpt lat="45.77991" lon="6.45725">
        <ele>1182.38</ele>
        <time>2022-02-03T12:29:14Z</time>
      </trkpt>
      <trkpt lat="45.77992" lon="6.45726">
        <ele>1182.5</ele>
        <time>2022-02-03T12:29:43Z</time>
      </trkpt>
      <trkpt lat="45.77993" lon="6.45731">
        <ele>1182.72</ele>
        <time>2022-02-03T12:30:20Z</time>
      </trkpt>
      <trkpt lat="45.77991" lon="6.45727">
        <ele>1183.45</ele>
        <time>2022-02-03T12:31:13Z</time>
      </trkpt>
      <trkpt lat="45.77988" lon="6.45725">
        <ele>1183.65</ele>
        <time>2022-02-03T12:31:34Z</time>
      </trkpt>
      <trkpt lat="45.77985" lon="6.45736">
        <ele>1183.77</ele>
        <time>2022-02-03T12:31:48Z</time>
      </trkpt>
      <trkpt lat="45.77983" lon="6.45747">
        <ele>1184.25</ele>
        <time>2022-02-03T12:32:01Z</time>
      </trkpt>
      <trkpt lat="45.77977" lon="6.45759">
        <ele>1184.17</ele>
        <time>2022-02-03T12:32:11Z</time>
      </trkpt>
      <trkpt lat="45.77972" lon="6.45769">
        <ele>1184.02</ele>
        <time>2022-02-03T12:32:20Z</time>
      </trkpt>
      <trkpt lat="45.77971" lon="6.45772">
        <ele>1184.3</ele>
        <time>2022-02-03T12:32:34Z</time>
      </trkpt>
      <trkpt lat="45.77967" lon="6.45778">
        <ele>1184.71</ele>
        <time>2022-02-03T12:33:00Z</time>
      </trkpt>
      <trkpt lat="45.77963" lon="6.4579">
        <ele>1184.2</ele>
        <time>2022-02-03T12:33:09Z</time>
      </trkpt>
      <trkpt lat="45.77959" lon="6.45802">
        <ele>1184.28</ele>
        <time>2022-02-03T12:33:19Z</time>
      </trkpt>
      <trkpt lat="45.77954" lon="6.45815">
        <ele>1184.14</ele>
        <time>2022-02-03T12:33:28Z</time>
      </trkpt>
      <trkpt lat="45.77947" lon="6.45833">
        <ele>1184.37</ele>
        <time>2022-02-03T12:33:40Z</time>
      </trkpt>
      <trkpt lat="45.77942" lon="6.45847">
        <ele>1184.26</ele>
        <time>2022-02-03T12:33:49Z</time>
      </trkpt>
      <trkpt lat="45.77937" lon="6.45856">
        <ele>1184.13</ele>
        <time>2022-02-03T12:33:59Z</time>
      </trkpt>
      <trkpt lat="45.77937" lon="6.45857">
        <ele>1185.23</ele>
        <time>2022-02-03T12:34:23Z</time>
      </trkpt>
      <trkpt lat="45.77936" lon="6.45859">
        <ele>1184.73</ele>
        <time>2022-02-03T12:34:30Z</time>
      </trkpt>
      <trkpt lat="45.7793" lon="6.45871">
        <ele>1184.89</ele>
        <time>2022-02-03T12:34:40Z</time>
      </trkpt>
      <trkpt lat="45.77929" lon="6.45872">
        <ele>1184.88</ele>
        <time>2022-02-03T12:34:42Z</time>
      </trkpt>
      <trkpt lat="45.77928" lon="6.45874">
        <ele>1184.99</ele>
        <time>2022-02-03T12:34:43Z</time>
      </trkpt>
      <trkpt lat="45.77928" lon="6.45876">
        <ele>1185.13</ele>
        <time>2022-02-03T12:34:44Z</time>
      </trkpt>
      <trkpt lat="45.77927" lon="6.45877">
        <ele>1185.12</ele>
        <time>2022-02-03T12:34:45Z</time>
      </trkpt>
      <trkpt lat="45.77923" lon="6.45891">
        <ele>1184.71</ele>
        <time>2022-02-03T12:34:56Z</time>
      </trkpt>
      <trkpt lat="45.77922" lon="6.45894">
        <ele>1184.59</ele>
        <time>2022-02-03T12:34:58Z</time>
      </trkpt>
      <trkpt lat="45.77921" lon="6.45896">
        <ele>1184.45</ele>
        <time>2022-02-03T12:34:59Z</time>
      </trkpt>
      <trkpt lat="45.77917" lon="6.45906">
        <ele>1184.03</ele>
        <time>2022-02-03T12:35:06Z</time>
      </trkpt>
      <trkpt lat="45.77917" lon="6.45907">
        <ele>1183.89</ele>
        <time>2022-02-03T12:35:07Z</time>
      </trkpt>
      <trkpt lat="45.77916" lon="6.45909">
        <ele>1183.96</ele>
        <time>2022-02-03T12:35:08Z</time>
      </trkpt>
      <trkpt lat="45.77914" lon="6.45914">
        <ele>1183.97</ele>
        <time>2022-02-03T12:35:12Z</time>
      </trkpt>
      <trkpt lat="45.77911" lon="6.45925">
        <ele>1183.65</ele>
        <time>2022-02-03T12:35:22Z</time>
      </trkpt>
      <trkpt lat="45.77909" lon="6.45929">
        <ele>1183.46</ele>
        <time>2022-02-03T12:35:26Z</time>
      </trkpt>
      <trkpt lat="45.77908" lon="6.4593">
        <ele>1183.51</ele>
        <time>2022-02-03T12:35:27Z</time>
      </trkpt>
      <trkpt lat="45.77906" lon="6.45933">
        <ele>1183.47</ele>
        <time>2022-02-03T12:35:30Z</time>
      </trkpt>
      <trkpt lat="45.77896" lon="6.45943">
        <ele>1183.37</ele>
        <time>2022-02-03T12:35:40Z</time>
      </trkpt>
      <trkpt lat="45.77895" lon="6.45944">
        <ele>1183.55</ele>
        <time>2022-02-03T12:35:41Z</time>
      </trkpt>
      <trkpt lat="45.77893" lon="6.45946">
        <ele>1183.53</ele>
        <time>2022-02-03T12:35:43Z</time>
      </trkpt>
      <trkpt lat="45.77892" lon="6.45946">
        <ele>1183.93</ele>
        <time>2022-02-03T12:35:44Z</time>
      </trkpt>
      <trkpt lat="45.77888" lon="6.45949">
        <ele>1183.82</ele>
        <time>2022-02-03T12:35:48Z</time>
      </trkpt>
      <trkpt lat="45.77887" lon="6.4595">
        <ele>1183.9</ele>
        <time>2022-02-03T12:35:49Z</time>
      </trkpt>
      <trkpt lat="45.77886" lon="6.45951">
        <ele>1184.32</ele>
        <time>2022-02-03T12:35:50Z</time>
      </trkpt>
      <trkpt lat="45.77884" lon="6.45953">
        <ele>1184.36</ele>
        <time>2022-02-03T12:35:52Z</time>
      </trkpt>
      <trkpt lat="45.77883" lon="6.45953">
        <ele>1184.56</ele>
        <time>2022-02-03T12:35:53Z</time>
      </trkpt>
      <trkpt lat="45.77881" lon="6.45954">
        <ele>1184.39</ele>
        <time>2022-02-03T12:35:54Z</time>
      </trkpt>
      <trkpt lat="45.77879" lon="6.45956">
        <ele>1184.87</ele>
        <time>2022-02-03T12:35:57Z</time>
      </trkpt>
      <trkpt lat="45.77876" lon="6.45957">
        <ele>1184.86</ele>
        <time>2022-02-03T12:35:59Z</time>
      </trkpt>
      <trkpt lat="45.77874" lon="6.45958">
        <ele>1185.08</ele>
        <time>2022-02-03T12:36:01Z</time>
      </trkpt>
      <trkpt lat="45.77873" lon="6.45958">
        <ele>1185.15</ele>
        <time>2022-02-03T12:36:02Z</time>
      </trkpt>
      <trkpt lat="45.77872" lon="6.45959">
        <ele>1185.37</ele>
        <time>2022-02-03T12:36:03Z</time>
      </trkpt>
      <trkpt lat="45.7787" lon="6.4596">
        <ele>1185.54</ele>
        <time>2022-02-03T12:36:05Z</time>
      </trkpt>
      <trkpt lat="45.77868" lon="6.4596">
        <ele>1185.3</ele>
        <time>2022-02-03T12:36:06Z</time>
      </trkpt>
      <trkpt lat="45.77867" lon="6.45961">
        <ele>1185.47</ele>
        <time>2022-02-03T12:36:07Z</time>
      </trkpt>
      <trkpt lat="45.77866" lon="6.45962">
        <ele>1185.7</ele>
        <time>2022-02-03T12:36:08Z</time>
      </trkpt>
      <trkpt lat="45.77864" lon="6.45963">
        <ele>1185.6</ele>
        <time>2022-02-03T12:36:10Z</time>
      </trkpt>
      <trkpt lat="45.77862" lon="6.45963">
        <ele>1185.86</ele>
        <time>2022-02-03T12:36:11Z</time>
      </trkpt>
      <trkpt lat="45.77854" lon="6.4597">
        <ele>1186.38</ele>
        <time>2022-02-03T12:36:20Z</time>
      </trkpt>
      <trkpt lat="45.77852" lon="6.45971">
        <ele>1186.47</ele>
        <time>2022-02-03T12:36:22Z</time>
      </trkpt>
      <trkpt lat="45.77851" lon="6.45971">
        <ele>1186.35</ele>
        <time>2022-02-03T12:36:23Z</time>
      </trkpt>
      <trkpt lat="45.77838" lon="6.45978">
        <ele>1186.54</ele>
        <time>2022-02-03T12:36:36Z</time>
      </trkpt>
      <trkpt lat="45.77837" lon="6.4598">
        <ele>1186.81</ele>
        <time>2022-02-03T12:36:38Z</time>
      </trkpt>
      <trkpt lat="45.77836" lon="6.45985">
        <ele>1186.79</ele>
        <time>2022-02-03T12:36:42Z</time>
      </trkpt>
      <trkpt lat="45.77837" lon="6.45999">
        <ele>1186.79</ele>
        <time>2022-02-03T12:36:51Z</time>
      </trkpt>
      <trkpt lat="45.77837" lon="6.46001">
        <ele>1186.68</ele>
        <time>2022-02-03T12:36:52Z</time>
      </trkpt>
      <trkpt lat="45.77839" lon="6.46009">
        <ele>1186.58</ele>
        <time>2022-02-03T12:36:57Z</time>
      </trkpt>
      <trkpt lat="45.77841" lon="6.46021">
        <ele>1186.44</ele>
        <time>2022-02-03T12:37:07Z</time>
      </trkpt>
      <trkpt lat="45.77841" lon="6.46026">
        <ele>1186.37</ele>
        <time>2022-02-03T12:37:10Z</time>
      </trkpt>
      <trkpt lat="45.7784" lon="6.46031">
        <ele>1186.54</ele>
        <time>2022-02-03T12:37:14Z</time>
      </trkpt>
      <trkpt lat="45.7784" lon="6.4604">
        <ele>1186.6</ele>
        <time>2022-02-03T12:37:22Z</time>
      </trkpt>
      <trkpt lat="45.77838" lon="6.46052">
        <ele>1186.5</ele>
        <time>2022-02-03T12:37:31Z</time>
      </trkpt>
      <trkpt lat="45.77835" lon="6.46058">
        <ele>1186.19</ele>
        <time>2022-02-03T12:37:34Z</time>
      </trkpt>
      <trkpt lat="45.77834" lon="6.4606">
        <ele>1186.12</ele>
        <time>2022-02-03T12:37:36Z</time>
      </trkpt>
      <trkpt lat="45.77834" lon="6.46062">
        <ele>1186.15</ele>
        <time>2022-02-03T12:37:38Z</time>
      </trkpt>
      <trkpt lat="45.77833" lon="6.46064">
        <ele>1186.1</ele>
        <time>2022-02-03T12:37:39Z</time>
      </trkpt>
      <trkpt lat="45.77831" lon="6.46068">
        <ele>1186.21</ele>
        <time>2022-02-03T12:37:41Z</time>
      </trkpt>
      <trkpt lat="45.77831" lon="6.4607">
        <ele>1185.98</ele>
        <time>2022-02-03T12:37:42Z</time>
      </trkpt>
      <trkpt lat="45.77829" lon="6.46076">
        <ele>1185.91</ele>
        <time>2022-02-03T12:37:46Z</time>
      </trkpt>
      <trkpt lat="45.77828" lon="6.46078">
        <ele>1185.87</ele>
        <time>2022-02-03T12:37:47Z</time>
      </trkpt>
      <trkpt lat="45.77826" lon="6.4609">
        <ele>1185.59</ele>
        <time>2022-02-03T12:37:56Z</time>
      </trkpt>
      <trkpt lat="45.77825" lon="6.46092">
        <ele>1185.65</ele>
        <time>2022-02-03T12:37:57Z</time>
      </trkpt>
      <trkpt lat="45.77824" lon="6.46094">
        <ele>1185.9</ele>
        <time>2022-02-03T12:37:58Z</time>
      </trkpt>
      <trkpt lat="45.77823" lon="6.46101">
        <ele>1185.46</ele>
        <time>2022-02-03T12:38:03Z</time>
      </trkpt>
      <trkpt lat="45.77817" lon="6.46123">
        <ele>1185.35</ele>
        <time>2022-02-03T12:38:15Z</time>
      </trkpt>
      <trkpt lat="45.77812" lon="6.46129">
        <ele>1185.32</ele>
        <time>2022-02-03T12:38:20Z</time>
      </trkpt>
      <trkpt lat="45.77811" lon="6.4613">
        <ele>1185.4</ele>
        <time>2022-02-03T12:38:21Z</time>
      </trkpt>
      <trkpt lat="45.77806" lon="6.46134">
        <ele>1184.96</ele>
        <time>2022-02-03T12:38:26Z</time>
      </trkpt>
      <trkpt lat="45.77805" lon="6.46135">
        <ele>1184.76</ele>
        <time>2022-02-03T12:38:27Z</time>
      </trkpt>
      <trkpt lat="45.77804" lon="6.46136">
        <ele>1184.99</ele>
        <time>2022-02-03T12:38:28Z</time>
      </trkpt>
      <trkpt lat="45.77801" lon="6.46145">
        <ele>1185.24</ele>
        <time>2022-02-03T12:38:39Z</time>
      </trkpt>
      <trkpt lat="45.77796" lon="6.46152">
        <ele>1184.08</ele>
        <time>2022-02-03T12:38:46Z</time>
      </trkpt>
      <trkpt lat="45.7779" lon="6.46156">
        <ele>1181.82</ele>
        <time>2022-02-03T12:39:00Z</time>
      </trkpt>
      <trkpt lat="45.77786" lon="6.46159">
        <ele>1180.95</ele>
        <time>2022-02-03T12:39:19Z</time>
      </trkpt>
      <trkpt lat="45.77787" lon="6.46159">
        <ele>1181.06</ele>
        <time>2022-02-03T12:39:23Z</time>
      </trkpt>
      <trkpt lat="45.7778" lon="6.46163">
        <ele>1179.99</ele>
        <time>2022-02-03T12:39:45Z</time>
      </trkpt>
      <trkpt lat="45.77774" lon="6.46173">
        <ele>1179.07</ele>
        <time>2022-02-03T12:39:59Z</time>
      </trkpt>
      <trkpt lat="45.77769" lon="6.4618">
        <ele>1177.4</ele>
        <time>2022-02-03T12:40:12Z</time>
      </trkpt>
      <trkpt lat="45.77764" lon="6.46187">
        <ele>1176.87</ele>
        <time>2022-02-03T12:40:25Z</time>
      </trkpt>
      <trkpt lat="45.77757" lon="6.46197">
        <ele>1175.52</ele>
        <time>2022-02-03T12:40:40Z</time>
      </trkpt>
      <trkpt lat="45.77756" lon="6.46198">
        <ele>1175</ele>
        <time>2022-02-03T12:40:41Z</time>
      </trkpt>
      <trkpt lat="45.77755" lon="6.462">
        <ele>1175.23</ele>
        <time>2022-02-03T12:40:42Z</time>
      </trkpt>
      <trkpt lat="45.77747" lon="6.46215">
        <ele>1173.75</ele>
        <time>2022-02-03T12:40:52Z</time>
      </trkpt>
      <trkpt lat="45.77746" lon="6.4622">
        <ele>1173.76</ele>
        <time>2022-02-03T12:40:56Z</time>
      </trkpt>
      <trkpt lat="45.77746" lon="6.46222">
        <ele>1173.7</ele>
        <time>2022-02-03T12:40:57Z</time>
      </trkpt>
      <trkpt lat="45.77745" lon="6.46224">
        <ele>1173.45</ele>
        <time>2022-02-03T12:40:58Z</time>
      </trkpt>
      <trkpt lat="45.77745" lon="6.46237">
        <ele>1173.33</ele>
        <time>2022-02-03T12:41:05Z</time>
      </trkpt>
      <trkpt lat="45.77746" lon="6.4624">
        <ele>1173.04</ele>
        <time>2022-02-03T12:41:07Z</time>
      </trkpt>
      <trkpt lat="45.77745" lon="6.46243">
        <ele>1173.13</ele>
        <time>2022-02-03T12:41:08Z</time>
      </trkpt>
      <trkpt lat="45.77745" lon="6.46246">
        <ele>1172.84</ele>
        <time>2022-02-03T12:41:09Z</time>
      </trkpt>
      <trkpt lat="45.77746" lon="6.46248">
        <ele>1172.73</ele>
        <time>2022-02-03T12:41:11Z</time>
      </trkpt>
      <trkpt lat="45.77746" lon="6.4625">
        <ele>1172.56</ele>
        <time>2022-02-03T12:41:12Z</time>
      </trkpt>
      <trkpt lat="45.77747" lon="6.46252">
        <ele>1172.54</ele>
        <time>2022-02-03T12:41:13Z</time>
      </trkpt>
      <trkpt lat="45.77747" lon="6.46253">
        <ele>1172.11</ele>
        <time>2022-02-03T12:41:14Z</time>
      </trkpt>
      <trkpt lat="45.77747" lon="6.46255">
        <ele>1171.83</ele>
        <time>2022-02-03T12:41:15Z</time>
      </trkpt>
      <trkpt lat="45.77747" lon="6.46257">
        <ele>1171.83</ele>
        <time>2022-02-03T12:41:16Z</time>
      </trkpt>
      <trkpt lat="45.77747" lon="6.46259">
        <ele>1171.74</ele>
        <time>2022-02-03T12:41:17Z</time>
      </trkpt>
      <trkpt lat="45.77748" lon="6.46261">
        <ele>1171.69</ele>
        <time>2022-02-03T12:41:18Z</time>
      </trkpt>
      <trkpt lat="45.77748" lon="6.46263">
        <ele>1171.53</ele>
        <time>2022-02-03T12:41:19Z</time>
      </trkpt>
      <trkpt lat="45.77752" lon="6.46284">
        <ele>1170.08</ele>
        <time>2022-02-03T12:41:31Z</time>
      </trkpt>
      <trkpt lat="45.77756" lon="6.4631">
        <ele>1168.78</ele>
        <time>2022-02-03T12:41:44Z</time>
      </trkpt>
      <trkpt lat="45.77758" lon="6.46316">
        <ele>1168.5</ele>
        <time>2022-02-03T12:41:48Z</time>
      </trkpt>
      <trkpt lat="45.77759" lon="6.46317">
        <ele>1168.39</ele>
        <time>2022-02-03T12:41:49Z</time>
      </trkpt>
      <trkpt lat="45.7776" lon="6.46319">
        <ele>1168.57</ele>
        <time>2022-02-03T12:41:50Z</time>
      </trkpt>
      <trkpt lat="45.7776" lon="6.46321">
        <ele>1168.42</ele>
        <time>2022-02-03T12:41:51Z</time>
      </trkpt>
      <trkpt lat="45.7776" lon="6.46322">
        <ele>1168.36</ele>
        <time>2022-02-03T12:41:52Z</time>
      </trkpt>
      <trkpt lat="45.77761" lon="6.46325">
        <ele>1168.6</ele>
        <time>2022-02-03T12:41:53Z</time>
      </trkpt>
      <trkpt lat="45.77761" lon="6.46327">
        <ele>1168.45</ele>
        <time>2022-02-03T12:41:54Z</time>
      </trkpt>
      <trkpt lat="45.77761" lon="6.46329">
        <ele>1168.32</ele>
        <time>2022-02-03T12:41:55Z</time>
      </trkpt>
      <trkpt lat="45.77762" lon="6.46331">
        <ele>1168.29</ele>
        <time>2022-02-03T12:41:56Z</time>
      </trkpt>
      <trkpt lat="45.77764" lon="6.46337">
        <ele>1168.11</ele>
        <time>2022-02-03T12:42:00Z</time>
      </trkpt>
      <trkpt lat="45.77764" lon="6.46338">
        <ele>1168.09</ele>
        <time>2022-02-03T12:42:01Z</time>
      </trkpt>
      <trkpt lat="45.77764" lon="6.4634">
        <ele>1167.97</ele>
        <time>2022-02-03T12:42:02Z</time>
      </trkpt>
      <trkpt lat="45.77764" lon="6.46342">
        <ele>1167.87</ele>
        <time>2022-02-03T12:42:03Z</time>
      </trkpt>
      <trkpt lat="45.77764" lon="6.46345">
        <ele>1167.57</ele>
        <time>2022-02-03T12:42:04Z</time>
      </trkpt>
      <trkpt lat="45.77765" lon="6.46352">
        <ele>1167.9</ele>
        <time>2022-02-03T12:42:09Z</time>
      </trkpt>
      <trkpt lat="45.77765" lon="6.46355">
        <ele>1167.55</ele>
        <time>2022-02-03T12:42:10Z</time>
      </trkpt>
      <trkpt lat="45.77764" lon="6.46356">
        <ele>1167.66</ele>
        <time>2022-02-03T12:42:11Z</time>
      </trkpt>
      <trkpt lat="45.77765" lon="6.4636">
        <ele>1167.85</ele>
        <time>2022-02-03T12:42:14Z</time>
      </trkpt>
      <trkpt lat="45.77766" lon="6.46362">
        <ele>1167.79</ele>
        <time>2022-02-03T12:42:15Z</time>
      </trkpt>
      <trkpt lat="45.77766" lon="6.46363">
        <ele>1167.76</ele>
        <time>2022-02-03T12:42:16Z</time>
      </trkpt>
      <trkpt lat="45.77767" lon="6.46366">
        <ele>1167.85</ele>
        <time>2022-02-03T12:42:18Z</time>
      </trkpt>
      <trkpt lat="45.77769" lon="6.46371">
        <ele>1167.59</ele>
        <time>2022-02-03T12:42:22Z</time>
      </trkpt>
      <trkpt lat="45.77769" lon="6.46376">
        <ele>1167.6</ele>
        <time>2022-02-03T12:42:26Z</time>
      </trkpt>
      <trkpt lat="45.7777" lon="6.4638">
        <ele>1167.25</ele>
        <time>2022-02-03T12:42:29Z</time>
      </trkpt>
      <trkpt lat="45.77771" lon="6.46384">
        <ele>1167.06</ele>
        <time>2022-02-03T12:42:40Z</time>
      </trkpt>
      <trkpt lat="45.77771" lon="6.46384">
        <ele>1167.35</ele>
        <time>2022-02-03T12:42:48Z</time>
      </trkpt>
      <trkpt lat="45.77771" lon="6.46386">
        <ele>1167.17</ele>
        <time>2022-02-03T12:43:11Z</time>
      </trkpt>
      <trkpt lat="45.77771" lon="6.46386">
        <ele>1166.99</ele>
        <time>2022-02-03T12:43:34Z</time>
      </trkpt>
      <trkpt lat="45.7777" lon="6.46395">
        <ele>1165.18</ele>
        <time>2022-02-03T12:43:44Z</time>
      </trkpt>
      <trkpt lat="45.77769" lon="6.46402">
        <ele>1163.54</ele>
        <time>2022-02-03T12:43:49Z</time>
      </trkpt>
      <trkpt lat="45.77768" lon="6.4641">
        <ele>1161.98</ele>
        <time>2022-02-03T12:43:58Z</time>
      </trkpt>
      <trkpt lat="45.77768" lon="6.4642">
        <ele>1159.73</ele>
        <time>2022-02-03T12:44:06Z</time>
      </trkpt>
      <trkpt lat="45.77768" lon="6.46422">
        <ele>1159.39</ele>
        <time>2022-02-03T12:44:07Z</time>
      </trkpt>
      <trkpt lat="45.77768" lon="6.46424">
        <ele>1158.88</ele>
        <time>2022-02-03T12:44:08Z</time>
      </trkpt>
      <trkpt lat="45.77768" lon="6.46425">
        <ele>1158.84</ele>
        <time>2022-02-03T12:44:09Z</time>
      </trkpt>
      <trkpt lat="45.77768" lon="6.46427">
        <ele>1158.53</ele>
        <time>2022-02-03T12:44:10Z</time>
      </trkpt>
      <trkpt lat="45.77769" lon="6.46432">
        <ele>1157.22</ele>
        <time>2022-02-03T12:44:14Z</time>
      </trkpt>
      <trkpt lat="45.77769" lon="6.46434">
        <ele>1156.74</ele>
        <time>2022-02-03T12:44:15Z</time>
      </trkpt>
      <trkpt lat="45.77769" lon="6.46443">
        <ele>1154.57</ele>
        <time>2022-02-03T12:44:22Z</time>
      </trkpt>
      <trkpt lat="45.77769" lon="6.46445">
        <ele>1154.51</ele>
        <time>2022-02-03T12:44:23Z</time>
      </trkpt>
      <trkpt lat="45.7777" lon="6.46451">
        <ele>1152.05</ele>
        <time>2022-02-03T12:44:29Z</time>
      </trkpt>
      <trkpt lat="45.7777" lon="6.46457">
        <ele>1149.01</ele>
        <time>2022-02-03T12:44:40Z</time>
      </trkpt>
      <trkpt lat="45.77769" lon="6.46463">
        <ele>1145.65</ele>
        <time>2022-02-03T12:44:50Z</time>
      </trkpt>
      <trkpt lat="45.7777" lon="6.46469">
        <ele>1144.69</ele>
        <time>2022-02-03T12:44:55Z</time>
      </trkpt>
      <trkpt lat="45.7777" lon="6.46473">
        <ele>1143.52</ele>
        <time>2022-02-03T12:44:59Z</time>
      </trkpt>
      <trkpt lat="45.77764" lon="6.4648">
        <ele>1141.22</ele>
        <time>2022-02-03T12:45:08Z</time>
      </trkpt>
      <trkpt lat="45.77764" lon="6.46481">
        <ele>1140.76</ele>
        <time>2022-02-03T12:45:09Z</time>
      </trkpt>
      <trkpt lat="45.77763" lon="6.46488">
        <ele>1138.69</ele>
        <time>2022-02-03T12:45:15Z</time>
      </trkpt>
      <trkpt lat="45.77762" lon="6.4649">
        <ele>1138.35</ele>
        <time>2022-02-03T12:45:16Z</time>
      </trkpt>
      <trkpt lat="45.77763" lon="6.46504">
        <ele>1135.52</ele>
        <time>2022-02-03T12:45:27Z</time>
      </trkpt>
      <trkpt lat="45.77766" lon="6.46515">
        <ele>1132.23</ele>
        <time>2022-02-03T12:45:38Z</time>
      </trkpt>
      <trkpt lat="45.77763" lon="6.46528">
        <ele>1128.61</ele>
        <time>2022-02-03T12:45:51Z</time>
      </trkpt>
      <trkpt lat="45.77766" lon="6.46539">
        <ele>1127.22</ele>
        <time>2022-02-03T12:46:04Z</time>
      </trkpt>
      <trkpt lat="45.77767" lon="6.46551">
        <ele>1125.95</ele>
        <time>2022-02-03T12:46:21Z</time>
      </trkpt>
      <trkpt lat="45.77762" lon="6.46569">
        <ele>1126.24</ele>
        <time>2022-02-03T12:46:39Z</time>
      </trkpt>
      <trkpt lat="45.77757" lon="6.46587">
        <ele>1127.27</ele>
        <time>2022-02-03T12:46:55Z</time>
      </trkpt>
      <trkpt lat="45.77752" lon="6.46607">
        <ele>1126.98</ele>
        <time>2022-02-03T12:47:10Z</time>
      </trkpt>
      <trkpt lat="45.77743" lon="6.46627">
        <ele>1127.56</ele>
        <time>2022-02-03T12:47:25Z</time>
      </trkpt>
      <trkpt lat="45.77736" lon="6.46636">
        <ele>1128.05</ele>
        <time>2022-02-03T12:47:34Z</time>
      </trkpt>
      <trkpt lat="45.77732" lon="6.46648">
        <ele>1128.51</ele>
        <time>2022-02-03T12:47:45Z</time>
      </trkpt>
      <trkpt lat="45.77735" lon="6.46658">
        <ele>1128.41</ele>
        <time>2022-02-03T12:48:02Z</time>
      </trkpt>
      <trkpt lat="45.77729" lon="6.46672">
        <ele>1126.69</ele>
        <time>2022-02-03T12:48:13Z</time>
      </trkpt>
      <trkpt lat="45.77723" lon="6.4669">
        <ele>1125.11</ele>
        <time>2022-02-03T12:48:29Z</time>
      </trkpt>
      <trkpt lat="45.77719" lon="6.46707">
        <ele>1124.09</ele>
        <time>2022-02-03T12:48:40Z</time>
      </trkpt>
      <trkpt lat="45.77715" lon="6.46722">
        <ele>1123.31</ele>
        <time>2022-02-03T12:48:55Z</time>
      </trkpt>
      <trkpt lat="45.77709" lon="6.46741">
        <ele>1123.98</ele>
        <time>2022-02-03T12:49:12Z</time>
      </trkpt>
      <trkpt lat="45.77699" lon="6.46754">
        <ele>1123.55</ele>
        <time>2022-02-03T12:49:27Z</time>
      </trkpt>
      <trkpt lat="45.77688" lon="6.46784">
        <ele>1120.29</ele>
        <time>2022-02-03T12:49:48Z</time>
      </trkpt>
      <trkpt lat="45.77684" lon="6.46797">
        <ele>1117.48</ele>
        <time>2022-02-03T12:50:02Z</time>
      </trkpt>
      <trkpt lat="45.7768" lon="6.46808">
        <ele>1114.29</ele>
        <time>2022-02-03T12:50:20Z</time>
      </trkpt>
      <trkpt lat="45.77669" lon="6.46817">
        <ele>1111.23</ele>
        <time>2022-02-03T12:50:33Z</time>
      </trkpt>
      <trkpt lat="45.77662" lon="6.46826">
        <ele>1108.05</ele>
        <time>2022-02-03T12:50:44Z</time>
      </trkpt>
      <trkpt lat="45.77656" lon="6.46829">
        <ele>1104.73</ele>
        <time>2022-02-03T12:50:52Z</time>
      </trkpt>
      <trkpt lat="45.77655" lon="6.4683">
        <ele>1104.5</ele>
        <time>2022-02-03T12:50:53Z</time>
      </trkpt>
      <trkpt lat="45.77647" lon="6.46844">
        <ele>1101.11</ele>
        <time>2022-02-03T12:51:03Z</time>
      </trkpt>
      <trkpt lat="45.77641" lon="6.46857">
        <ele>1099.49</ele>
        <time>2022-02-03T12:51:09Z</time>
      </trkpt>
      <trkpt lat="45.77636" lon="6.46868">
        <ele>1098.24</ele>
        <time>2022-02-03T12:51:13Z</time>
      </trkpt>
      <trkpt lat="45.7763" lon="6.46883">
        <ele>1095.76</ele>
        <time>2022-02-03T12:51:21Z</time>
      </trkpt>
      <trkpt lat="45.77622" lon="6.46901">
        <ele>1092.74</ele>
        <time>2022-02-03T12:51:34Z</time>
      </trkpt>
      <trkpt lat="45.77617" lon="6.46912">
        <ele>1089.72</ele>
        <time>2022-02-03T12:51:46Z</time>
      </trkpt>
      <trkpt lat="45.77611" lon="6.46919">
        <ele>1086.61</ele>
        <time>2022-02-03T12:51:56Z</time>
      </trkpt>
      <trkpt lat="45.77601" lon="6.46931">
        <ele>1083.21</ele>
        <time>2022-02-03T12:52:08Z</time>
      </trkpt>
      <trkpt lat="45.77592" lon="6.46941">
        <ele>1080.08</ele>
        <time>2022-02-03T12:52:20Z</time>
      </trkpt>
      <trkpt lat="45.77583" lon="6.46952">
        <ele>1077.01</ele>
        <time>2022-02-03T12:52:30Z</time>
      </trkpt>
      <trkpt lat="45.77577" lon="6.46957">
        <ele>1074.61</ele>
        <time>2022-02-03T12:52:37Z</time>
      </trkpt>
      <trkpt lat="45.77569" lon="6.46969">
        <ele>1071.33</ele>
        <time>2022-02-03T12:52:49Z</time>
      </trkpt>
      <trkpt lat="45.77559" lon="6.46978">
        <ele>1068.26</ele>
        <time>2022-02-03T12:52:59Z</time>
      </trkpt>
      <trkpt lat="45.7755" lon="6.46987">
        <ele>1065.14</ele>
        <time>2022-02-03T12:53:08Z</time>
      </trkpt>
      <trkpt lat="45.77542" lon="6.46999">
        <ele>1062.11</ele>
        <time>2022-02-03T12:53:21Z</time>
      </trkpt>
      <trkpt lat="45.77534" lon="6.47011">
        <ele>1059.07</ele>
        <time>2022-02-03T12:53:31Z</time>
      </trkpt>
      <trkpt lat="45.77533" lon="6.47025">
        <ele>1056.71</ele>
        <time>2022-02-03T12:53:40Z</time>
      </trkpt>
      <trkpt lat="45.77529" lon="6.47033">
        <ele>1055.46</ele>
        <time>2022-02-03T12:53:45Z</time>
      </trkpt>
      <trkpt lat="45.77525" lon="6.47045">
        <ele>1054.31</ele>
        <time>2022-02-03T12:53:50Z</time>
      </trkpt>
      <trkpt lat="45.77518" lon="6.47066">
        <ele>1052.2</ele>
        <time>2022-02-03T12:54:00Z</time>
      </trkpt>
      <trkpt lat="45.77509" lon="6.47083">
        <ele>1050.05</ele>
        <time>2022-02-03T12:54:11Z</time>
      </trkpt>
      <trkpt lat="45.77507" lon="6.47088">
        <ele>1049.1</ele>
        <time>2022-02-03T12:54:15Z</time>
      </trkpt>
      <trkpt lat="45.775" lon="6.47099">
        <ele>1046.94</ele>
        <time>2022-02-03T12:54:24Z</time>
      </trkpt>
      <trkpt lat="45.77499" lon="6.471">
        <ele>1046.65</ele>
        <time>2022-02-03T12:54:25Z</time>
      </trkpt>
      <trkpt lat="45.77489" lon="6.47112">
        <ele>1044.13</ele>
        <time>2022-02-03T12:54:36Z</time>
      </trkpt>
      <trkpt lat="45.77479" lon="6.47122">
        <ele>1041.67</ele>
        <time>2022-02-03T12:54:48Z</time>
      </trkpt>
      <trkpt lat="45.77477" lon="6.47124">
        <ele>1041.36</ele>
        <time>2022-02-03T12:54:50Z</time>
      </trkpt>
      <trkpt lat="45.77477" lon="6.47126">
        <ele>1041.29</ele>
        <time>2022-02-03T12:54:51Z</time>
      </trkpt>
      <trkpt lat="45.77473" lon="6.47131">
        <ele>1040.05</ele>
        <time>2022-02-03T12:54:56Z</time>
      </trkpt>
      <trkpt lat="45.77472" lon="6.47132">
        <ele>1039.98</ele>
        <time>2022-02-03T12:54:57Z</time>
      </trkpt>
      <trkpt lat="45.77471" lon="6.47134">
        <ele>1039.59</ele>
        <time>2022-02-03T12:54:58Z</time>
      </trkpt>
      <trkpt lat="45.7747" lon="6.47136">
        <ele>1039.53</ele>
        <time>2022-02-03T12:54:59Z</time>
      </trkpt>
      <trkpt lat="45.77466" lon="6.47142">
        <ele>1038.31</ele>
        <time>2022-02-03T12:55:06Z</time>
      </trkpt>
      <trkpt lat="45.77461" lon="6.4715">
        <ele>1037.06</ele>
        <time>2022-02-03T12:55:16Z</time>
      </trkpt>
      <trkpt lat="45.77456" lon="6.47154">
        <ele>1036.56</ele>
        <time>2022-02-03T12:55:27Z</time>
      </trkpt>
      <trkpt lat="45.77447" lon="6.47153">
        <ele>1035.93</ele>
        <time>2022-02-03T12:55:35Z</time>
      </trkpt>
      <trkpt lat="45.77446" lon="6.47153">
        <ele>1036.04</ele>
        <time>2022-02-03T12:55:36Z</time>
      </trkpt>
      <trkpt lat="45.77444" lon="6.47153">
        <ele>1036.05</ele>
        <time>2022-02-03T12:55:37Z</time>
      </trkpt>
      <trkpt lat="45.77433" lon="6.47158">
        <ele>1035.15</ele>
        <time>2022-02-03T12:55:43Z</time>
      </trkpt>
      <trkpt lat="45.77432" lon="6.4716">
        <ele>1034.97</ele>
        <time>2022-02-03T12:55:44Z</time>
      </trkpt>
      <trkpt lat="45.77431" lon="6.4716">
        <ele>1034.76</ele>
        <time>2022-02-03T12:55:45Z</time>
      </trkpt>
      <trkpt lat="45.77428" lon="6.47166">
        <ele>1034.21</ele>
        <time>2022-02-03T12:55:50Z</time>
      </trkpt>
      <trkpt lat="45.77428" lon="6.47167">
        <ele>1034.04</ele>
        <time>2022-02-03T12:55:51Z</time>
      </trkpt>
      <trkpt lat="45.77428" lon="6.4717">
        <ele>1034.01</ele>
        <time>2022-02-03T12:55:52Z</time>
      </trkpt>
      <trkpt lat="45.7743" lon="6.47188">
        <ele>1033.31</ele>
        <time>2022-02-03T12:56:00Z</time>
      </trkpt>
      <trkpt lat="45.7743" lon="6.4719">
        <ele>1032.98</ele>
        <time>2022-02-03T12:56:01Z</time>
      </trkpt>
      <trkpt lat="45.77432" lon="6.47192">
        <ele>1032.8</ele>
        <time>2022-02-03T12:56:03Z</time>
      </trkpt>
      <trkpt lat="45.77433" lon="6.47193">
        <ele>1032.29</ele>
        <time>2022-02-03T12:56:04Z</time>
      </trkpt>
      <trkpt lat="45.77435" lon="6.47195">
        <ele>1032.26</ele>
        <time>2022-02-03T12:56:06Z</time>
      </trkpt>
      <trkpt lat="45.77436" lon="6.47196">
        <ele>1031.78</ele>
        <time>2022-02-03T12:56:07Z</time>
      </trkpt>
      <trkpt lat="45.77437" lon="6.47196">
        <ele>1031.67</ele>
        <time>2022-02-03T12:56:08Z</time>
      </trkpt>
      <trkpt lat="45.77439" lon="6.47197">
        <ele>1031.58</ele>
        <time>2022-02-03T12:56:09Z</time>
      </trkpt>
      <trkpt lat="45.7744" lon="6.47198">
        <ele>1031.69</ele>
        <time>2022-02-03T12:56:10Z</time>
      </trkpt>
      <trkpt lat="45.77441" lon="6.47198">
        <ele>1031.21</ele>
        <time>2022-02-03T12:56:11Z</time>
      </trkpt>
      <trkpt lat="45.77442" lon="6.47198">
        <ele>1030.92</ele>
        <time>2022-02-03T12:56:12Z</time>
      </trkpt>
      <trkpt lat="45.77455" lon="6.47202">
        <ele>1029.14</ele>
        <time>2022-02-03T12:56:23Z</time>
      </trkpt>
      <trkpt lat="45.77461" lon="6.47203">
        <ele>1028.49</ele>
        <time>2022-02-03T12:56:28Z</time>
      </trkpt>
      <trkpt lat="45.77481" lon="6.47202">
        <ele>1027.42</ele>
        <time>2022-02-03T12:56:42Z</time>
      </trkpt>
      <trkpt lat="45.77482" lon="6.47204">
        <ele>1025.34</ele>
        <time>2022-02-03T12:56:58Z</time>
      </trkpt>
      <trkpt lat="45.77479" lon="6.47211">
        <ele>1022.21</ele>
        <time>2022-02-03T12:57:11Z</time>
      </trkpt>
      <trkpt lat="45.77475" lon="6.47213">
        <ele>1020.7</ele>
        <time>2022-02-03T12:57:15Z</time>
      </trkpt>
      <trkpt lat="45.77474" lon="6.47214">
        <ele>1020.43</ele>
        <time>2022-02-03T12:57:16Z</time>
      </trkpt>
      <trkpt lat="45.77463" lon="6.47223">
        <ele>1017.22</ele>
        <time>2022-02-03T12:57:29Z</time>
      </trkpt>
      <trkpt lat="45.77461" lon="6.47223">
        <ele>1016.79</ele>
        <time>2022-02-03T12:57:31Z</time>
      </trkpt>
      <trkpt lat="45.77448" lon="6.47228">
        <ele>1013.62</ele>
        <time>2022-02-03T12:57:44Z</time>
      </trkpt>
      <trkpt lat="45.77446" lon="6.47228">
        <ele>1012.86</ele>
        <time>2022-02-03T12:57:46Z</time>
      </trkpt>
      <trkpt lat="45.7745" lon="6.47236">
        <ele>1009.66</ele>
        <time>2022-02-03T12:57:56Z</time>
      </trkpt>
      <trkpt lat="45.77461" lon="6.47243">
        <ele>1006.31</ele>
        <time>2022-02-03T12:58:10Z</time>
      </trkpt>
      <trkpt lat="45.77452" lon="6.4725">
        <ele>1003.58</ele>
        <time>2022-02-03T12:58:22Z</time>
      </trkpt>
      <trkpt lat="45.77451" lon="6.47251">
        <ele>1002.93</ele>
        <time>2022-02-03T12:58:23Z</time>
      </trkpt>
      <trkpt lat="45.77444" lon="6.47254">
        <ele>999.35</ele>
        <time>2022-02-03T12:58:35Z</time>
      </trkpt>
      <trkpt lat="45.77436" lon="6.47267">
        <ele>996.11</ele>
        <time>2022-02-03T12:58:47Z</time>
      </trkpt>
      <trkpt lat="45.77425" lon="6.47272">
        <ele>992.95</ele>
        <time>2022-02-03T12:58:58Z</time>
      </trkpt>
      <trkpt lat="45.77413" lon="6.4727">
        <ele>989.58</ele>
        <time>2022-02-03T12:59:10Z</time>
      </trkpt>
      <trkpt lat="45.77403" lon="6.47267">
        <ele>986.41</ele>
        <time>2022-02-03T12:59:21Z</time>
      </trkpt>
      <trkpt lat="45.77396" lon="6.47267">
        <ele>983.11</ele>
        <time>2022-02-03T12:59:31Z</time>
      </trkpt>
      <trkpt lat="45.77391" lon="6.47264">
        <ele>982.24</ele>
        <time>2022-02-03T12:59:36Z</time>
      </trkpt>
      <trkpt lat="45.77381" lon="6.47264">
        <ele>979.2</ele>
        <time>2022-02-03T12:59:47Z</time>
      </trkpt>
      <trkpt lat="45.77373" lon="6.47266">
        <ele>976.55</ele>
        <time>2022-02-03T12:59:56Z</time>
      </trkpt>
      <trkpt lat="45.77362" lon="6.47263">
        <ele>973.43</ele>
        <time>2022-02-03T13:00:05Z</time>
      </trkpt>
      <trkpt lat="45.77346" lon="6.47255">
        <ele>970.4</ele>
        <time>2022-02-03T13:00:21Z</time>
      </trkpt>
      <trkpt lat="45.77334" lon="6.47252">
        <ele>967.19</ele>
        <time>2022-02-03T13:00:32Z</time>
      </trkpt>
      <trkpt lat="45.77328" lon="6.47251">
        <ele>964.17</ele>
        <time>2022-02-03T13:00:41Z</time>
      </trkpt>
      <trkpt lat="45.77321" lon="6.47254">
        <ele>960.99</ele>
        <time>2022-02-03T13:00:51Z</time>
      </trkpt>
      <trkpt lat="45.77315" lon="6.47258">
        <ele>960.36</ele>
        <time>2022-02-03T13:00:55Z</time>
      </trkpt>
      <trkpt lat="45.77313" lon="6.4726">
        <ele>960.27</ele>
        <time>2022-02-03T13:00:56Z</time>
      </trkpt>
      <trkpt lat="45.77309" lon="6.47271">
        <ele>958.77</ele>
        <time>2022-02-03T13:01:02Z</time>
      </trkpt>
      <trkpt lat="45.77303" lon="6.47273">
        <ele>956.27</ele>
        <time>2022-02-03T13:01:14Z</time>
      </trkpt>
      <trkpt lat="45.77299" lon="6.47274">
        <ele>955.67</ele>
        <time>2022-02-03T13:01:17Z</time>
      </trkpt>
      <trkpt lat="45.77298" lon="6.47273">
        <ele>955.51</ele>
        <time>2022-02-03T13:01:18Z</time>
      </trkpt>
      <trkpt lat="45.77296" lon="6.47274">
        <ele>955.12</ele>
        <time>2022-02-03T13:01:20Z</time>
      </trkpt>
      <trkpt lat="45.77292" lon="6.47276">
        <ele>953.84</ele>
        <time>2022-02-03T13:01:24Z</time>
      </trkpt>
      <trkpt lat="45.7729" lon="6.47274">
        <ele>953.67</ele>
        <time>2022-02-03T13:01:26Z</time>
      </trkpt>
      <trkpt lat="45.77286" lon="6.47271">
        <ele>952.51</ele>
        <time>2022-02-03T13:01:30Z</time>
      </trkpt>
      <trkpt lat="45.77284" lon="6.47273">
        <ele>951.97</ele>
        <time>2022-02-03T13:01:33Z</time>
      </trkpt>
      <trkpt lat="45.77277" lon="6.47283">
        <ele>948.86</ele>
        <time>2022-02-03T13:01:45Z</time>
      </trkpt>
      <trkpt lat="45.77275" lon="6.47284">
        <ele>947.93</ele>
        <time>2022-02-03T13:01:47Z</time>
      </trkpt>
      <trkpt lat="45.77271" lon="6.47291">
        <ele>946.51</ele>
        <time>2022-02-03T13:01:53Z</time>
      </trkpt>
      <trkpt lat="45.77271" lon="6.47292">
        <ele>946.16</ele>
        <time>2022-02-03T13:01:54Z</time>
      </trkpt>
      <trkpt lat="45.7727" lon="6.47294">
        <ele>945.96</ele>
        <time>2022-02-03T13:01:55Z</time>
      </trkpt>
      <trkpt lat="45.77264" lon="6.47294">
        <ele>942.96</ele>
        <time>2022-02-03T13:02:08Z</time>
      </trkpt>
      <trkpt lat="45.77264" lon="6.47293">
        <ele>942.71</ele>
        <time>2022-02-03T13:02:09Z</time>
      </trkpt>
      <trkpt lat="45.77262" lon="6.47291">
        <ele>942.27</ele>
        <time>2022-02-03T13:02:11Z</time>
      </trkpt>
      <trkpt lat="45.77257" lon="6.47305">
        <ele>941.53</ele>
        <time>2022-02-03T13:02:26Z</time>
      </trkpt>
      <trkpt lat="45.77264" lon="6.47318">
        <ele>941.75</ele>
        <time>2022-02-03T13:02:39Z</time>
      </trkpt>
      <trkpt lat="45.77263" lon="6.47318">
        <ele>941.54</ele>
        <time>2022-02-03T13:03:01Z</time>
      </trkpt>
      <trkpt lat="45.77264" lon="6.47323">
        <ele>941.57</ele>
        <time>2022-02-03T13:03:26Z</time>
      </trkpt>
      <trkpt lat="45.77265" lon="6.47324">
        <ele>941.46</ele>
        <time>2022-02-03T13:03:48Z</time>
      </trkpt>
      <trkpt lat="45.77264" lon="6.47326">
        <ele>941.77</ele>
        <time>2022-02-03T13:04:06Z</time>
      </trkpt>
    </trkseg>
  </trk>
</gpx>